APL 2024 jan

¥188,000,000 GTD

28 jan -18 feb

¥20 MILJOEN GTD MAIN EVENT

ZONDAG, 18 feb @ 13:00 UTC

WELKOM BIJ

  • Vier Lunar New Year met de grootste serie van Azië
  • ¥188 miljoen aan totale garanties
  • 25 prestigieuze trofeeën met speciale avatars
  • Mis de ¥ 20 miljoen GTD Green Dragon niet Main Event
  • Win jouw deel van 5 miljoen yen van Red Envelope Cash Drops

TROFEE SCHEMA

DATUM DAG UTC +1 CST EVENT BUY-IN GTD
28 jan Zon 11:00 20:00 #1: APL 2024 Tip-Off ¥550 ¥2,024,000
29 jan Maa 11:00 20:00 #2: Zodiac Rat Serie Opener ¥188 ¥800,000
30 jan Tue 11:00 20:00 #3: Zodiac Os Sterkste Stack ¥330 ¥1,000,000
31 jan wo 11:00 20:00 #4: Zodiac Tijgerkoning Azië Bounty ¥1,050 ¥1,500,000
1 februari Thu 11:00 20:00 #5: Zodiac Konijn Lucky Mystery Bounty ¥840 ¥2,000,000
2 februari vr 11:00 20:00 #6: Zodiac Dragon PLO-NL High Roller ¥8,000 ¥1,000,000
3 februari Zat 11:00 20:00 #7: Zodiac Slangen Bounty 6-Max Speciaal ¥630 ¥1,500,000
4 februari Zon 11:00 20:00 #8: Zodiac Goat Sunday SHR ¥20,240 ¥5,000,000
4 februari Zon 13:00 21:00 #9: Winterkampioenschap [Laatste dag] ¥880 ¥8,000,000
5 februari Maa 11:00 20:00 #10: Zodiac Grote Paardenmaandag Marathon ¥1,100 ¥1,500,000
6 februari Tue 11:00 20:00 #11: Zodiac Apenkoning Wukong Bounty ¥215 ¥800,000
7 februari wo 11:00 20:00 #12: Zodiac Haan APL Speciaal ¥550 ¥1,000,000
8 februari Thu 11:00 20:00 #13: Zodiac Hond Ultra Deepstack [Turbo] ¥1,100 ¥1,000,000
9 februari vr 11:00 20:00 #14: Zodiac Varken Lentefeest [Bounty]. ¥330 ¥1,000,000
10 februari Zat 11:00 20:00 #15: Zodiac Gelukkig Nieuwjaar Viering ¥888 ¥1,500,000
11 feb Zon 11:00 20:00 #16: Baby Dragon Mini Main [2-daags evenement] ¥388 ¥2,000,000
11 feb Zon 13:00 21:00 #17: Lunar Mystery Bounty [Eindstadium] ¥2,024 ¥10,000,000
12 feb Maa 11:00 20:00 #18: Sanya Bay Shooting Star ¥550 ¥1,000,000
13 februari Tue 11:00 20:00 #19: Kunming Koning van de Berg [6-Max] ¥660 ¥1,000,000
14 februari wo 11:00 20:00 #20: Xi'an Zijderoute Bounty ¥840 ¥2,000,000
15 feb Thu 11:00 20:00 #21: Reuzenpanda Chengdu Stack ¥1,100 ¥1,500,000
16 feb vr 11:00 20:00 #22: Shenzhen Wolkenkrabber Bounty ¥2,200 ¥2,000,000
17 februari Zat 11:00 20:00 #23: Shanghai Masters of Poker ¥5,500 ¥2,500,000
18 feb Zon 11:00 20:00 #24: Beijing Bounty Miljoenen [Mystery Bounty]] ¥10,300 ¥3,500,000
18 feb Zon 13:00 21:00 #25: Groene draak Main Event [Dag 2] ¥1,888 ¥20,000,000

VOLLEDIG SCHEMA

DATUM DAG UTC +1 CTS EVENT BUY-IN GTD
28 jan Zon 5:00 13:00 APL-serie: ¥550 zondagopener ¥550 ¥60,000
28 jan Zon 5:00 13:00 APL serie: ¥88 Zodiac Rattenopener ¥88 ¥30,000
28 jan Zon 6:00 14:00 APL Series: ¥1.100 Sunday High Roller Deepstack ¥1,100 ¥88,000
28 jan Zon 6:00 14:00 APL-serie: ¥ 330 Zodiac Ox Sterk Stack ¥330 ¥60,000
28 jan Zon 7:00 16:00 APL Series: ¥1.050 Sunday High Roller Bounty ¥1,050 ¥88,000
28 jan Zon 7:00 16:00 APL-serie: ¥108 Zodiac Tiger King Bounty ¥108 ¥70,000
28 jan Zon 8:00 16:00 APL-serie: ¥220 Zondagsklassieker ¥220 ¥50,000
28 jan Zon 8:00 16:00 APL-serie: ¥85.50 Zodiac Konijn Lucky Bounty ¥85.5 ¥60,000
28 jan Zon 9:00 18:00 APL-serie: ¥ 80 Zondagsklassieker ¥80 ¥35,000
28 jan Zon 9:00 18:00 APL-serie: ¥800 Zodiac Dragon High Roller ¥800 ¥150,000
28 jan Zon 9:30 17:30 APL serie: ¥ 630 zondag premie [6-Max] ¥630 ¥150,000
28 jan Zon 9:30 17:30 APL serie: ¥64.50 Zodiac Snake Bounty [6-Max] ¥64.5 ¥60,000
28 jan Zon 10:00 18:00 APL-serie: ¥ 1.100 Zondag Marathon ¥1,100 ¥200,000
28 jan Zon 10:00 18:00 APL-serie: ¥110 Zodiac Paardenmarathon ¥110 ¥70,000
28 jan Zon 10:30 18:30 APL serie: 840¥ Zondag Bounty ¥840 ¥200,000
28 jan Zon 10:30 18:30 APL-serie: ¥85.50 Zondag Bounty ¥85.5 ¥100,000
28 jan Zon 11:00 20:00 APL-serie: ¥220 Zondagsklassieker ¥220 ¥125,000
28 jan Zon 11:00 20:00 APL-serie: ¥ 2.024 Zodiac Geit High Roller ¥2,024 ¥388,000
28 jan Zon 11:30 19:30 APL Series: ¥ 2.100 Sunday High Roller Bounty ¥2,100 ¥388,000
28 jan Zon 11:30 19:30 APL-serie: ¥ 215 Zodiac Apenkoning Bounty ¥215 ¥188,000
28 jan Zon 13:00 20:00 APL serie: ¥388 Zodiac Main Event , ¥500K GTD ¥388 ¥700,000
28 jan Zon 13:00 21:00 APL Series: ¥ 550 zondag Deepstack ¥550 ¥300,000
28 jan Zon 13:00 21:00 APL-serie: ¥ 10.300 zondag HR Main Event ¥10,300 ¥1,000,000
28 jan Zon 13:00 21:00 APL-serie: ¥50 Zodiac Haan Zonsondergang Speciaal ¥50 ¥60,000
28 jan Zon 13:10 21:10 APL serie: ¥ 3.150 Short Deck Bounty HR ¥3,150 ¥125,000
28 jan Zon 13:10 21:10 APL-serie: ¥ 320 Short Deck Bounty ¥320 ¥50,000
28 jan Zon 13:40 21:40 APL serie: ¥ 5.250 PLO-NL Bounty HR ¥5,250 ¥150,000
28 jan Zon 13:40 21:40 APL Serie: ¥530 PLO-NL Bounty ¥530 ¥60,000
28 jan Zon 14:00 23:00 APL-serie: ¥ 1.100 Zondagsklassieker ¥1,100 ¥388,000
28 jan Zon 14:00 23:00 APL serie: ¥110 Zodiac Hond Ultra Deepstack Turbo ¥110 ¥80,000
28 jan Zon 14:10 22:10 APL-serie: 8.000 YEN Short Deck HR [3-Stack] ¥8,000 ¥188,000
28 jan Zon 14:10 22:10 APL serie: ¥800 Short Deck [3-Stack] ¥800 ¥50,000
28 jan Zon 14:30 22:30 APL Series: ¥ 3.150 Sunday High Roller Bounty ¥3,150 ¥600,000
28 jan Zon 14:30 22:30 APL-serie: ¥ 320 Zodiac Varken Bounty Feest ¥320 ¥388,000
28 jan Zon 14:40 22:40 APL-serie: ¥ 1.100 PLO-NL Klassiek ¥1,100 ¥60,000
28 jan Zon 16:00 23:00 APL-serie: ¥800 zondag 6-Max ¥800 ¥388,000
28 jan Zon 16:00 23:00 APL Series: ¥5.500 Sunday High Roller 6-Max ¥5,500 ¥700,000
28 jan Zon 16:00 23:00 APL serie: ¥ 25.500 zondag SHR ¥25,500 ¥1,000,000
28 jan Zon 15:10 23:10 APL serie: ¥ 5.250 Short Deck Bounty HR ¥5,250 ¥200,000
28 jan Zon 15:10 23:10 APL serie: ¥ 530 Short Deck Bounty [Turbo] ¥530 ¥50,000
28 jan Zon 15:40 23:40 APL Serie: ¥5.250 PLO-NL Bounty High Roller ¥5,250 ¥200,000
28 jan Zon 15:40 23:40 APL Serie: ¥530 PLO-NL Bounty [Turbo] ¥530 ¥50,000
28 jan Zon 16:00 0:00 APL serie: 51.000¥ Zondag Ultra HR ¥51,000 ¥1,000,000
28 jan Zon 16:00 0:00 APL serie: ¥330 Midnight Madness [Hyper] ¥330 ¥150,000
28 jan Zon 16:30 0:30 APL serie: ¥ 2.100 Speed Racer Bounty Dichterbij HR ¥2,100 ¥100,000
28 jan Zon 16:30 0:30 APL-serie: ¥ 215 Speed Racer Bounty Closer ¥215 ¥70,000
28 jan Zon 16:40 0:40 APL-serie: ¥ 1.100 PLO-NL Hundred Stack ¥1,100 ¥80,000
28 jan Zon 16:40 0:40 APL serie: ¥ 10.300 PLO-NL Honderd Stack HR ¥10,300 ¥200,000
29 jan Maa 5:00 13:00 APL-serie: ¥ 550 dagelijkse opener ¥550 ¥60,000
29 jan Maa 5:00 13:00 APL serie: ¥88 Zodiac Rattenopener ¥88 ¥30,000
29 jan Maa 5:00 13:00 APL-serie: ¥ 550 dagelijkse opener ¥550 ¥60,000
29 jan Maa 5:00 13:00 APL serie: ¥88 Zodiac Rattenopener ¥88 ¥30,000
29 jan Maa 6:00 14:00 APL serie: ¥ 1.100 Deepstack High Roller ¥1,100 ¥80,000
29 jan Maa 6:00 14:00 APL-serie: ¥ 330 Zodiac Ox Sterk Stack ¥330 ¥70,000
29 jan Maa 6:00 14:00 APL serie: ¥ 1.100 Deepstack High Roller ¥1,100 ¥80,000
29 jan Maa 6:00 14:00 APL-serie: ¥ 330 Zodiac Ox Sterk Stack ¥330 ¥70,000
29 jan Maa 7:00 16:00 APL Serie: ¥ 1.050 Bounty High Roller ¥1,050 ¥100,000
29 jan Maa 7:00 16:00 APL-serie: ¥108 Zodiac Tiger King Bounty ¥108 ¥70,000
29 jan Maa 7:00 16:00 APL Serie: ¥ 1.050 Bounty High Roller ¥1,050 ¥100,000
29 jan Maa 7:00 16:00 APL-serie: ¥108 Zodiac Tiger King Bounty ¥108 ¥70,000
29 jan Maa 8:00 16:00 APL-serie: ¥220 Hold'em Klassieker ¥220 ¥50,000
29 jan Maa 8:00 16:00 APL-serie: ¥85.50 Zodiac Konijn Lucky Bounty ¥85.5 ¥50,000
29 jan Maa 8:00 16:00 APL-serie: ¥220 Hold'em Klassieker ¥220 ¥50,000
29 jan Maa 8:00 16:00 APL-serie: ¥85.50 Zodiac Konijn Lucky Bounty ¥85.5 ¥50,000
29 jan Maa 9:00 18:00 APL-serie: ¥80 Hold'em Klassieker ¥80 ¥30,000
29 jan Maa 9:00 18:00 APL-serie: ¥800 Zodiac Dragon High Roller ¥800 ¥100,000
29 jan Maa 9:00 18:00 APL-serie: ¥80 Hold'em Klassieker ¥80 ¥30,000
29 jan Maa 9:00 18:00 APL-serie: ¥800 Zodiac Dragon High Roller ¥800 ¥100,000
29 jan Maa 9:30 17:30 APL Series: ¥630 Hold'em Bounty [6-Max] ¥630 ¥120,000
29 jan Maa 9:30 17:30 APL serie: ¥64.50 Zodiac Snake Bounty [6-Max] ¥64.5 ¥50,000
29 jan Maa 9:30 17:30 APL Series: ¥630 Hold'em Bounty [6-Max] ¥630 ¥120,000
29 jan Maa 9:30 17:30 APL serie: ¥64.50 Zodiac Snake Bounty [6-Max] ¥64.5 ¥50,000
29 jan Maa 10:00 18:00 APL-serie: ¥1.100 Hold'em Marathon ¥1,100 ¥88,000
29 jan Maa 10:00 18:00 APL-serie: ¥110 Zodiac Paardenmarathon ¥110 ¥50,000
29 jan Maa 10:00 18:00 APL-serie: ¥1.100 Hold'em Marathon ¥1,100 ¥88,000
29 jan Maa 10:00 18:00 APL-serie: ¥110 Zodiac Paardenmarathon ¥110 ¥50,000
29 jan Maa 10:30 18:30 APL Series: ¥840 Hold'em Bounty ¥840 ¥125,000
29 jan Maa 10:30 18:30 APL-serie: ¥ 85,50 Hold'em Bounty ¥85.5 ¥60,000
29 jan Maa 10:30 18:30 APL Series: ¥840 Hold'em Bounty ¥840 ¥125,000
29 jan Maa 10:30 18:30 APL-serie: ¥ 85,50 Hold'em Bounty ¥85.5 ¥60,000
29 jan Maa 11:00 20:00 APL-serie: ¥ 2.024 Zodiac Geit High Roller ¥2,024 ¥130,000
29 jan Maa 11:00 20:00 APL-serie: ¥ 2.024 Zodiac Geit High Roller ¥2,024 ¥130,000
29 jan Maa 11:30 19:30 APL serie: ¥ 2.100 Bounty High Roller ¥2,100 ¥130,000
29 jan Maa 11:30 19:30 APL-serie: ¥ 215 Zodiac Apenkoning Bounty ¥215 ¥125,000
29 jan Maa 11:30 19:30 APL serie: ¥ 2.100 Bounty High Roller ¥2,100 ¥130,000
29 jan Maa 11:30 19:30 APL-serie: ¥ 215 Zodiac Apenkoning Bounty ¥215 ¥125,000
29 jan Maa 13:00 20:00 APL serie: ¥388 Zodiac Main Event , ¥250K GTD ¥388 ¥300,000
29 jan Maa 13:00 20:00 APL serie: ¥388 Zodiac Main Event , ¥250K GTD ¥388 ¥300,000
29 jan Maa 13:00 21:00 APL-serie: ¥ 5.500 Deepstack High Roller ¥5,500 ¥200,000
29 jan Maa 13:00 21:00 APL Series: ¥550 Hold'em Deepstack ¥550 ¥100,000
29 jan Maa 13:00 21:00 APL-serie: ¥50 Zodiac Haan Zonsondergang Speciaal ¥50 ¥35,000
29 jan Maa 13:00 21:00 APL-serie: ¥ 5.500 Deepstack High Roller ¥5,500 ¥200,000
29 jan Maa 13:00 21:00 APL Series: ¥550 Hold'em Deepstack ¥550 ¥100,000
29 jan Maa 13:00 21:00 APL-serie: ¥50 Zodiac Haan Zonsondergang Speciaal ¥50 ¥35,000
29 jan Maa 13:10 21:10 APL serie: ¥ 3.150 Short Deck Bounty HR ¥3,150 ¥88,000
29 jan Maa 13:10 21:10 APL-serie: ¥ 320 Short Deck Bounty ¥320 ¥25,000
29 jan Maa 13:10 21:10 APL serie: ¥ 3.150 Short Deck Bounty HR ¥3,150 ¥88,000
29 jan Maa 13:10 21:10 APL-serie: ¥ 320 Short Deck Bounty ¥320 ¥25,000
29 jan Maa 13:40 21:40 APL serie: ¥ 5.250 PLO-NL Bounty HR ¥5,250 ¥88,000
29 jan Maa 13:40 21:40 APL Serie: ¥530 PLO-NL Bounty ¥530 ¥30,000
29 jan Maa 13:40 21:40 APL serie: ¥ 5.250 PLO-NL Bounty HR ¥5,250 ¥88,000
29 jan Maa 13:40 21:40 APL Serie: ¥530 PLO-NL Bounty ¥530 ¥30,000
29 jan Maa 14:00 23:00 APL Series: ¥1.100 Hold'em Klassieker ¥1,100 ¥100,000
29 jan Maa 14:00 23:00 APL serie: ¥110 Zodiac Hond Ultra Deepstack Turbo ¥110 ¥50,000
29 jan Maa 14:00 23:00 APL Series: ¥1.100 Hold'em Klassieker ¥1,100 ¥100,000
29 jan Maa 14:00 23:00 APL serie: ¥110 Zodiac Hond Ultra Deepstack Turbo ¥110 ¥50,000
29 jan Maa 14:10 22:10 APL-serie: 8.000 YEN Short Deck HR [3-Stack] ¥8,000 ¥100,000
29 jan Maa 14:10 22:10 APL serie: ¥800 Short Deck [3-Stack] ¥800 ¥25,000
29 jan Maa 14:10 22:10 APL-serie: 8.000 YEN Short Deck HR [3-Stack] ¥8,000 ¥100,000
29 jan Maa 14:10 22:10 APL serie: ¥800 Short Deck [3-Stack] ¥800 ¥25,000
29 jan Maa 14:30 22:30 APL serie: ¥ 3.150 Bounty High Roller ¥3,150 ¥180,000
29 jan Maa 14:30 22:30 APL-serie: ¥ 320 Zodiac Varken Bounty Feest ¥320 ¥180,000
29 jan Maa 14:30 22:30 APL serie: ¥ 3.150 Bounty High Roller ¥3,150 ¥180,000
29 jan Maa 14:30 22:30 APL-serie: ¥ 320 Zodiac Varken Bounty Feest ¥320 ¥180,000
29 jan Maa 14:40 22:40 APL-serie: ¥ 1.100 PLO-NL Klassiek ¥1,100 ¥25,000
29 jan Maa 14:40 22:40 APL-serie: ¥ 1.100 PLO-NL Klassiek ¥1,100 ¥25,000
29 jan Maa 16:00 23:00 APL Serie: ¥5.500 Hoge Roller 6-Max ¥5,500 ¥250,000
29 jan Maa 16:00 23:00 APL Series: ¥800 Hold'em 6-Max ¥800 ¥150,000
29 jan Maa 16:00 23:00 APL Serie: ¥5.500 Hoge Roller 6-Max ¥5,500 ¥250,000
29 jan Maa 16:00 23:00 APL Series: ¥800 Hold'em 6-Max ¥800 ¥150,000
29 jan Maa 15:10 23:10 APL serie: ¥ 530 Short Deck Bounty [Turbo] ¥530 ¥30,000
29 jan Maa 15:10 23:10 APL serie: ¥ 530 Short Deck Bounty [Turbo] ¥530 ¥30,000
29 jan Maa 15:40 23:40 APL Serie: ¥530 PLO-NL Bounty [Turbo] ¥530 ¥30,000
29 jan Maa 15:40 23:40 APL Serie: ¥530 PLO-NL Bounty [Turbo] ¥530 ¥30,000
29 jan Maa 16:00 0:00 APL serie: ¥330 Midnight Madness [Hyper] ¥330 ¥60,000
29 jan Maa 16:00 0:00 APL serie: ¥330 Midnight Madness [Hyper] ¥330 ¥60,000
29 jan Maa 16:30 0:30 APL serie: ¥ 2.100 Speed Racer Bounty Dichterbij HR ¥2,100 ¥75,000
29 jan Maa 16:30 0:30 APL-serie: ¥ 215 Speed Racer Bounty Closer ¥215 ¥50,000
29 jan Maa 16:30 0:30 APL serie: ¥ 2.100 Speed Racer Bounty Dichterbij HR ¥2,100 ¥75,000
29 jan Maa 16:30 0:30 APL-serie: ¥ 215 Speed Racer Bounty Closer ¥215 ¥50,000
30 jan Tue 5:00 13:00 APL-serie: ¥ 550 dagelijkse opener ¥550 ¥60,000
30 jan Tue 5:00 13:00 APL serie: ¥88 Zodiac Rattenopener ¥88 ¥30,000
30 jan Tue 5:00 13:00 APL-serie: ¥ 550 dagelijkse opener ¥550 ¥60,000
30 jan Tue 5:00 13:00 APL serie: ¥88 Zodiac Rattenopener ¥88 ¥30,000
30 jan Tue 6:00 14:00 APL serie: ¥ 1.100 Deepstack High Roller ¥1,100 ¥80,000
30 jan Tue 6:00 14:00 APL-serie: ¥ 330 Zodiac Ox Sterk Stack ¥330 ¥70,000
30 jan Tue 6:00 14:00 APL serie: ¥ 1.100 Deepstack High Roller ¥1,100 ¥80,000
30 jan Tue 6:00 14:00 APL-serie: ¥ 330 Zodiac Ox Sterk Stack ¥330 ¥70,000
30 jan Tue 7:00 16:00 APL Serie: ¥ 1.050 Bounty High Roller ¥1,050 ¥100,000
30 jan Tue 7:00 16:00 APL-serie: ¥108 Zodiac Tiger King Bounty ¥108 ¥70,000
30 jan Tue 7:00 16:00 APL Serie: ¥ 1.050 Bounty High Roller ¥1,050 ¥100,000
30 jan Tue 7:00 16:00 APL-serie: ¥108 Zodiac Tiger King Bounty ¥108 ¥70,000
30 jan Tue 8:00 16:00 APL-serie: ¥220 Hold'em Klassieker ¥220 ¥50,000
30 jan Tue 8:00 16:00 APL-serie: ¥85.50 Zodiac Konijn Lucky Bounty ¥85.5 ¥50,000
30 jan Tue 8:00 16:00 APL-serie: ¥220 Hold'em Klassieker ¥220 ¥50,000
30 jan Tue 8:00 16:00 APL-serie: ¥85.50 Zodiac Konijn Lucky Bounty ¥85.5 ¥50,000
30 jan Tue 9:00 18:00 APL-serie: ¥80 Hold'em Klassieker ¥80 ¥30,000
30 jan Tue 9:00 18:00 APL-serie: ¥800 Zodiac Dragon High Roller ¥800 ¥100,000
30 jan Tue 9:00 18:00 APL-serie: ¥80 Hold'em Klassieker ¥80 ¥30,000
30 jan Tue 9:00 18:00 APL-serie: ¥800 Zodiac Dragon High Roller ¥800 ¥100,000
30 jan Tue 9:30 17:30 APL Series: ¥630 Hold'em Bounty [6-Max] ¥630 ¥120,000
30 jan Tue 9:30 17:30 APL serie: ¥64.50 Zodiac Snake Bounty [6-Max] ¥64.5 ¥50,000
30 jan Tue 9:30 17:30 APL Series: ¥630 Hold'em Bounty [6-Max] ¥630 ¥120,000
30 jan Tue 9:30 17:30 APL serie: ¥64.50 Zodiac Snake Bounty [6-Max] ¥64.5 ¥50,000
30 jan Tue 10:00 18:00 APL-serie: ¥1.100 Hold'em Marathon ¥1,100 ¥88,000
30 jan Tue 10:00 18:00 APL-serie: ¥110 Zodiac Paardenmarathon ¥110 ¥50,000
30 jan Tue 10:00 18:00 APL-serie: ¥1.100 Hold'em Marathon ¥1,100 ¥88,000
30 jan Tue 10:00 18:00 APL-serie: ¥110 Zodiac Paardenmarathon ¥110 ¥50,000
30 jan Tue 10:30 18:30 APL Series: ¥840 Hold'em Bounty ¥840 ¥125,000
30 jan Tue 10:30 18:30 APL-serie: ¥ 85,50 Hold'em Bounty ¥85.5 ¥60,000
30 jan Tue 10:30 18:30 APL Series: ¥840 Hold'em Bounty ¥840 ¥125,000
30 jan Tue 10:30 18:30 APL-serie: ¥ 85,50 Hold'em Bounty ¥85.5 ¥60,000
30 jan Tue 11:00 20:00 APL-serie: ¥ 2.024 Zodiac Geit High Roller ¥2,024 ¥130,000
30 jan Tue 11:00 20:00 APL-serie: ¥ 2.024 Zodiac Geit High Roller ¥2,024 ¥130,000
30 jan Tue 11:30 19:30 APL serie: ¥ 2.100 Bounty High Roller ¥2,100 ¥130,000
30 jan Tue 11:30 19:30 APL-serie: ¥ 215 Zodiac Apenkoning Bounty ¥215 ¥125,000
30 jan Tue 11:30 19:30 APL serie: ¥ 2.100 Bounty High Roller ¥2,100 ¥130,000
30 jan Tue 11:30 19:30 APL-serie: ¥ 215 Zodiac Apenkoning Bounty ¥215 ¥125,000
30 jan Tue 13:00 20:00 APL serie: ¥388 Zodiac Main Event , ¥250K GTD ¥388 ¥300,000
30 jan Tue 13:00 20:00 APL serie: ¥388 Zodiac Main Event , ¥250K GTD ¥388 ¥300,000
30 jan Tue 13:00 21:00 APL-serie: ¥ 5.500 Deepstack High Roller ¥5,500 ¥200,000
30 jan Tue 13:00 21:00 APL Series: ¥550 Hold'em Deepstack ¥550 ¥100,000
30 jan Tue 13:00 21:00 APL-serie: ¥50 Zodiac Haan Zonsondergang Speciaal ¥50 ¥35,000
30 jan Tue 13:00 21:00 APL-serie: ¥ 5.500 Deepstack High Roller ¥5,500 ¥200,000
30 jan Tue 13:00 21:00 APL Series: ¥550 Hold'em Deepstack ¥550 ¥100,000
30 jan Tue 13:00 21:00 APL-serie: ¥50 Zodiac Haan Zonsondergang Speciaal ¥50 ¥35,000
30 jan Tue 13:10 21:10 APL serie: ¥ 3.150 Short Deck Bounty HR ¥3,150 ¥88,000
30 jan Tue 13:10 21:10 APL-serie: ¥ 320 Short Deck Bounty ¥320 ¥25,000
30 jan Tue 13:10 21:10 APL serie: ¥ 3.150 Short Deck Bounty HR ¥3,150 ¥88,000
30 jan Tue 13:10 21:10 APL-serie: ¥ 320 Short Deck Bounty ¥320 ¥25,000
30 jan Tue 13:40 21:40 APL serie: ¥ 5.250 PLO-NL Bounty HR ¥5,250 ¥88,000
30 jan Tue 13:40 21:40 APL Serie: ¥530 PLO-NL Bounty ¥530 ¥30,000
30 jan Tue 13:40 21:40 APL serie: ¥ 5.250 PLO-NL Bounty HR ¥5,250 ¥88,000
30 jan Tue 13:40 21:40 APL Serie: ¥530 PLO-NL Bounty ¥530 ¥30,000
30 jan Tue 14:00 23:00 APL Series: ¥1.100 Hold'em Klassieker ¥1,100 ¥100,000
30 jan Tue 14:00 23:00 APL serie: ¥110 Zodiac Hond Ultra Deepstack Turbo ¥110 ¥50,000
30 jan Tue 14:00 23:00 APL Series: ¥1.100 Hold'em Klassieker ¥1,100 ¥100,000
30 jan Tue 14:00 23:00 APL serie: ¥110 Zodiac Hond Ultra Deepstack Turbo ¥110 ¥50,000
30 jan Tue 14:10 22:10 APL-serie: 8.000 YEN Short Deck HR [3-Stack] ¥8,000 ¥100,000
30 jan Tue 14:10 22:10 APL serie: ¥800 Short Deck [3-Stack] ¥800 ¥25,000
30 jan Tue 14:10 22:10 APL-serie: 8.000 YEN Short Deck HR [3-Stack] ¥8,000 ¥100,000
30 jan Tue 14:10 22:10 APL serie: ¥800 Short Deck [3-Stack] ¥800 ¥25,000
30 jan Tue 14:30 22:30 APL serie: ¥ 3.150 Bounty High Roller ¥3,150 ¥180,000
30 jan Tue 14:30 22:30 APL-serie: ¥ 320 Zodiac Varken Bounty Feest ¥320 ¥180,000
30 jan Tue 14:30 22:30 APL serie: ¥ 3.150 Bounty High Roller ¥3,150 ¥180,000
30 jan Tue 14:30 22:30 APL-serie: ¥ 320 Zodiac Varken Bounty Feest ¥320 ¥180,000
30 jan Tue 14:40 22:40 APL-serie: ¥ 1.100 PLO-NL Klassiek ¥1,100 ¥25,000
30 jan Tue 14:40 22:40 APL-serie: ¥ 1.100 PLO-NL Klassiek ¥1,100 ¥25,000
30 jan Tue 16:00 23:00 APL Serie: ¥5.500 Hoge Roller 6-Max ¥5,500 ¥250,000
30 jan Tue 16:00 23:00 APL Series: ¥800 Hold'em 6-Max ¥800 ¥150,000
30 jan Tue 16:00 23:00 APL Serie: ¥5.500 Hoge Roller 6-Max ¥5,500 ¥250,000
30 jan Tue 16:00 23:00 APL Series: ¥800 Hold'em 6-Max ¥800 ¥150,000
30 jan Tue 15:10 23:10 APL serie: ¥ 530 Short Deck Bounty [Turbo] ¥530 ¥30,000
30 jan Tue 15:10 23:10 APL serie: ¥ 530 Short Deck Bounty [Turbo] ¥530 ¥30,000
30 jan Tue 15:40 23:40 APL Serie: ¥530 PLO-NL Bounty [Turbo] ¥530 ¥30,000
30 jan Tue 15:40 23:40 APL Serie: ¥530 PLO-NL Bounty [Turbo] ¥530 ¥30,000
30 jan Tue 16:00 0:00 APL serie: ¥330 Midnight Madness [Hyper] ¥330 ¥60,000
30 jan Tue 16:00 0:00 APL serie: ¥330 Midnight Madness [Hyper] ¥330 ¥60,000
30 jan Tue 16:30 0:30 APL serie: ¥ 2.100 Speed Racer Bounty Dichterbij HR ¥2,100 ¥75,000
30 jan Tue 16:30 0:30 APL-serie: ¥ 215 Speed Racer Bounty Closer ¥215 ¥50,000
30 jan Tue 16:30 0:30 APL serie: ¥ 2.100 Speed Racer Bounty Dichterbij HR ¥2,100 ¥75,000
30 jan Tue 16:30 0:30 APL-serie: ¥ 215 Speed Racer Bounty Closer ¥215 ¥50,000
31 jan wo 5:00 13:00 APL-serie: ¥ 550 dagelijkse opener ¥550 ¥60,000
31 jan wo 5:00 13:00 APL serie: ¥88 Zodiac Rattenopener ¥88 ¥30,000
31 jan wo 5:00 13:00 APL-serie: ¥ 550 dagelijkse opener ¥550 ¥60,000
31 jan wo 5:00 13:00 APL serie: ¥88 Zodiac Rattenopener ¥88 ¥30,000
31 jan wo 6:00 14:00 APL serie: ¥ 1.100 Deepstack High Roller ¥1,100 ¥80,000
31 jan wo 6:00 14:00 APL-serie: ¥ 330 Zodiac Ox Sterk Stack ¥330 ¥70,000
31 jan wo 6:00 14:00 APL serie: ¥ 1.100 Deepstack High Roller ¥1,100 ¥80,000
31 jan wo 6:00 14:00 APL-serie: ¥ 330 Zodiac Ox Sterk Stack ¥330 ¥70,000
31 jan wo 7:00 16:00 APL Serie: ¥ 1.050 Bounty High Roller ¥1,050 ¥100,000
31 jan wo 7:00 16:00 APL-serie: ¥108 Zodiac Tiger King Bounty ¥108 ¥70,000
31 jan wo 7:00 16:00 APL Serie: ¥ 1.050 Bounty High Roller ¥1,050 ¥100,000
31 jan wo 7:00 16:00 APL-serie: ¥108 Zodiac Tiger King Bounty ¥108 ¥70,000
31 jan wo 8:00 16:00 APL-serie: ¥220 Hold'em Klassieker ¥220 ¥50,000
31 jan wo 8:00 16:00 APL-serie: ¥85.50 Zodiac Konijn Lucky Bounty ¥85.5 ¥50,000
31 jan wo 8:00 16:00 APL-serie: ¥220 Hold'em Klassieker ¥220 ¥50,000
31 jan wo 8:00 16:00 APL-serie: ¥85.50 Zodiac Konijn Lucky Bounty ¥85.5 ¥50,000
31 jan wo 9:00 18:00 APL-serie: ¥80 Hold'em Klassieker ¥80 ¥30,000
31 jan wo 9:00 18:00 APL-serie: ¥800 Zodiac Dragon High Roller ¥800 ¥100,000
31 jan wo 9:00 18:00 APL-serie: ¥80 Hold'em Klassieker ¥80 ¥30,000
31 jan wo 9:00 18:00 APL-serie: ¥800 Zodiac Dragon High Roller ¥800 ¥100,000
31 jan wo 9:30 17:30 APL Series: ¥630 Hold'em Bounty [6-Max] ¥630 ¥120,000
31 jan wo 9:30 17:30 APL serie: ¥64.50 Zodiac Snake Bounty [6-Max] ¥64.5 ¥50,000
31 jan wo 9:30 17:30 APL Series: ¥630 Hold'em Bounty [6-Max] ¥630 ¥120,000
31 jan wo 9:30 17:30 APL serie: ¥64.50 Zodiac Snake Bounty [6-Max] ¥64.5 ¥50,000
31 jan wo 10:00 18:00 APL-serie: ¥1.100 Hold'em Marathon ¥1,100 ¥88,000
31 jan wo 10:00 18:00 APL-serie: ¥110 Zodiac Paardenmarathon ¥110 ¥50,000
31 jan wo 10:00 18:00 APL-serie: ¥1.100 Hold'em Marathon ¥1,100 ¥88,000
31 jan wo 10:00 18:00 APL-serie: ¥110 Zodiac Paardenmarathon ¥110 ¥50,000
31 jan wo 10:30 18:30 APL Series: ¥840 Hold'em Bounty ¥840 ¥125,000
31 jan wo 10:30 18:30 APL-serie: ¥ 85,50 Hold'em Bounty ¥85.5 ¥60,000
31 jan wo 10:30 18:30 APL Series: ¥840 Hold'em Bounty ¥840 ¥125,000
31 jan wo 10:30 18:30 APL-serie: ¥ 85,50 Hold'em Bounty ¥85.5 ¥60,000
31 jan wo 11:00 20:00 APL-serie: ¥ 2.024 Zodiac Geit High Roller ¥2,024 ¥130,000
31 jan wo 11:00 20:00 APL-serie: ¥ 2.024 Zodiac Geit High Roller ¥2,024 ¥130,000
31 jan wo 11:30 19:30 APL serie: ¥ 2.100 Bounty High Roller ¥2,100 ¥130,000
31 jan wo 11:30 19:30 APL-serie: ¥ 215 Zodiac Apenkoning Bounty ¥215 ¥125,000
31 jan wo 11:30 19:30 APL serie: ¥ 2.100 Bounty High Roller ¥2,100 ¥130,000
31 jan wo 11:30 19:30 APL-serie: ¥ 215 Zodiac Apenkoning Bounty ¥215 ¥125,000
31 jan wo 13:00 20:00 APL serie: ¥388 Zodiac Main Event , ¥250K GTD ¥388 ¥300,000
31 jan wo 13:00 20:00 APL serie: ¥388 Zodiac Main Event , ¥250K GTD ¥388 ¥300,000
31 jan wo 13:00 21:00 APL-serie: ¥ 5.500 Deepstack High Roller ¥5,500 ¥200,000
31 jan wo 13:00 21:00 APL Series: ¥550 Hold'em Deepstack ¥550 ¥100,000
31 jan wo 13:00 21:00 APL-serie: ¥50 Zodiac Haan Zonsondergang Speciaal ¥50 ¥35,000
31 jan wo 13:00 21:00 APL-serie: ¥ 5.500 Deepstack High Roller ¥5,500 ¥200,000
31 jan wo 13:00 21:00 APL Series: ¥550 Hold'em Deepstack ¥550 ¥100,000
31 jan wo 13:00 21:00 APL-serie: ¥50 Zodiac Haan Zonsondergang Speciaal ¥50 ¥35,000
31 jan wo 13:10 21:10 APL serie: ¥ 3.150 Short Deck Bounty HR ¥3,150 ¥88,000
31 jan wo 13:10 21:10 APL-serie: ¥ 320 Short Deck Bounty ¥320 ¥25,000
31 jan wo 13:10 21:10 APL serie: ¥ 3.150 Short Deck Bounty HR ¥3,150 ¥88,000
31 jan wo 13:10 21:10 APL-serie: ¥ 320 Short Deck Bounty ¥320 ¥25,000
31 jan wo 13:40 21:40 APL serie: ¥ 5.250 PLO-NL Bounty HR ¥5,250 ¥88,000
31 jan wo 13:40 21:40 APL Serie: ¥530 PLO-NL Bounty ¥530 ¥30,000
31 jan wo 13:40 21:40 APL serie: ¥ 5.250 PLO-NL Bounty HR ¥5,250 ¥88,000
31 jan wo 13:40 21:40 APL Serie: ¥530 PLO-NL Bounty ¥530 ¥30,000
31 jan wo 14:00 23:00 APL Series: ¥1.100 Hold'em Klassieker ¥1,100 ¥100,000
31 jan wo 14:00 23:00 APL serie: ¥110 Zodiac Hond Ultra Deepstack Turbo ¥110 ¥50,000
31 jan wo 14:00 23:00 APL Series: ¥1.100 Hold'em Klassieker ¥1,100 ¥100,000
31 jan wo 14:00 23:00 APL serie: ¥110 Zodiac Hond Ultra Deepstack Turbo ¥110 ¥50,000
31 jan wo 14:10 22:10 APL-serie: 8.000 YEN Short Deck HR [3-Stack] ¥8,000 ¥100,000
31 jan wo 14:10 22:10 APL serie: ¥800 Short Deck [3-Stack] ¥800 ¥25,000
31 jan wo 14:10 22:10 APL-serie: 8.000 YEN Short Deck HR [3-Stack] ¥8,000 ¥100,000
31 jan wo 14:10 22:10 APL serie: ¥800 Short Deck [3-Stack] ¥800 ¥25,000
31 jan wo 14:30 22:30 APL serie: ¥ 3.150 Bounty High Roller ¥3,150 ¥180,000
31 jan wo 14:30 22:30 APL-serie: ¥ 320 Zodiac Varken Bounty Feest ¥320 ¥180,000
31 jan wo 14:30 22:30 APL serie: ¥ 3.150 Bounty High Roller ¥3,150 ¥180,000
31 jan wo 14:30 22:30 APL-serie: ¥ 320 Zodiac Varken Bounty Feest ¥320 ¥180,000
31 jan wo 14:40 22:40 APL-serie: ¥ 1.100 PLO-NL Klassiek ¥1,100 ¥25,000
31 jan wo 14:40 22:40 APL-serie: ¥ 1.100 PLO-NL Klassiek ¥1,100 ¥25,000
31 jan wo 16:00 23:00 APL Serie: ¥5.500 Hoge Roller 6-Max ¥5,500 ¥250,000
31 jan wo 16:00 23:00 APL Series: ¥800 Hold'em 6-Max ¥800 ¥150,000
31 jan wo 16:00 23:00 APL Serie: ¥5.500 Hoge Roller 6-Max ¥5,500 ¥250,000
31 jan wo 16:00 23:00 APL Series: ¥800 Hold'em 6-Max ¥800 ¥150,000
31 jan wo 15:10 23:10 APL serie: ¥ 530 Short Deck Bounty [Turbo] ¥530 ¥30,000
31 jan wo 15:10 23:10 APL serie: ¥ 530 Short Deck Bounty [Turbo] ¥530 ¥30,000
31 jan wo 15:40 23:40 APL Serie: ¥530 PLO-NL Bounty [Turbo] ¥530 ¥30,000
31 jan wo 15:40 23:40 APL Serie: ¥530 PLO-NL Bounty [Turbo] ¥530 ¥30,000
31 jan wo 16:00 0:00 APL serie: ¥330 Midnight Madness [Hyper] ¥330 ¥60,000
31 jan wo 16:00 0:00 APL serie: ¥330 Midnight Madness [Hyper] ¥330 ¥60,000
31 jan wo 16:30 0:30 APL serie: ¥ 2.100 Speed Racer Bounty Dichterbij HR ¥2,100 ¥75,000
31 jan wo 16:30 0:30 APL-serie: ¥ 215 Speed Racer Bounty Closer ¥215 ¥50,000
31 jan wo 16:30 0:30 APL serie: ¥ 2.100 Speed Racer Bounty Dichterbij HR ¥2,100 ¥75,000
31 jan wo 16:30 0:30 APL-serie: ¥ 215 Speed Racer Bounty Closer ¥215 ¥50,000
1 februari Thu 5:00 13:00 APL-serie: ¥ 550 dagelijkse opener ¥550 ¥60,000
1 februari Thu 5:00 13:00 APL serie: ¥88 Zodiac Rattenopener ¥88 ¥30,000
1 februari Thu 5:00 13:00 APL-serie: ¥ 550 dagelijkse opener ¥550 ¥60,000
1 februari Thu 5:00 13:00 APL serie: ¥88 Zodiac Rattenopener ¥88 ¥30,000
1 februari Thu 6:00 14:00 APL serie: ¥ 1.100 Deepstack High Roller ¥1,100 ¥80,000
1 februari Thu 6:00 14:00 APL-serie: ¥ 330 Zodiac Ox Sterk Stack ¥330 ¥70,000
1 februari Thu 6:00 14:00 APL serie: ¥ 1.100 Deepstack High Roller ¥1,100 ¥80,000
1 februari Thu 6:00 14:00 APL-serie: ¥ 330 Zodiac Ox Sterk Stack ¥330 ¥70,000
1 februari Thu 7:00 16:00 APL Serie: ¥ 1.050 Bounty High Roller ¥1,050 ¥100,000
1 februari Thu 7:00 16:00 APL-serie: ¥108 Zodiac Tiger King Bounty ¥108 ¥70,000
1 februari Thu 7:00 16:00 APL Serie: ¥ 1.050 Bounty High Roller ¥1,050 ¥100,000
1 februari Thu 7:00 16:00 APL-serie: ¥108 Zodiac Tiger King Bounty ¥108 ¥70,000
1 februari Thu 8:00 16:00 APL-serie: ¥220 Hold'em Klassieker ¥220 ¥50,000
1 februari Thu 8:00 16:00 APL-serie: ¥85.50 Zodiac Konijn Lucky Bounty ¥85.5 ¥50,000
1 februari Thu 8:00 16:00 APL-serie: ¥220 Hold'em Klassieker ¥220 ¥50,000
1 februari Thu 8:00 16:00 APL-serie: ¥85.50 Zodiac Konijn Lucky Bounty ¥85.5 ¥50,000
1 februari Thu 9:00 18:00 APL-serie: ¥80 Hold'em Klassieker ¥80 ¥30,000
1 februari Thu 9:00 18:00 APL-serie: ¥800 Zodiac Dragon High Roller ¥800 ¥100,000
1 februari Thu 9:00 18:00 APL-serie: ¥80 Hold'em Klassieker ¥80 ¥30,000
1 februari Thu 9:00 18:00 APL-serie: ¥800 Zodiac Dragon High Roller ¥800 ¥100,000
1 februari Thu 9:30 17:30 APL Series: ¥630 Hold'em Bounty [6-Max] ¥630 ¥120,000
1 februari Thu 9:30 17:30 APL serie: ¥64.50 Zodiac Snake Bounty [6-Max] ¥64.5 ¥50,000
1 februari Thu 9:30 17:30 APL Series: ¥630 Hold'em Bounty [6-Max] ¥630 ¥120,000
1 februari Thu 9:30 17:30 APL serie: ¥64.50 Zodiac Snake Bounty [6-Max] ¥64.5 ¥50,000
1 februari Thu 10:00 18:00 APL-serie: ¥1.100 Hold'em Marathon ¥1,100 ¥88,000
1 februari Thu 10:00 18:00 APL-serie: ¥110 Zodiac Paardenmarathon ¥110 ¥50,000
1 februari Thu 10:00 18:00 APL-serie: ¥1.100 Hold'em Marathon ¥1,100 ¥88,000
1 februari Thu 10:00 18:00 APL-serie: ¥110 Zodiac Paardenmarathon ¥110 ¥50,000
1 februari Thu 10:30 18:30 APL Series: ¥840 Hold'em Bounty ¥840 ¥125,000
1 februari Thu 10:30 18:30 APL-serie: ¥ 85,50 Hold'em Bounty ¥85.5 ¥60,000
1 februari Thu 10:30 18:30 APL Series: ¥840 Hold'em Bounty ¥840 ¥125,000
1 februari Thu 10:30 18:30 APL-serie: ¥ 85,50 Hold'em Bounty ¥85.5 ¥60,000
1 februari Thu 11:00 20:00 APL-serie: ¥ 2.024 Zodiac Geit High Roller ¥2,024 ¥130,000
1 februari Thu 11:00 20:00 APL-serie: ¥ 2.024 Zodiac Geit High Roller ¥2,024 ¥130,000
1 februari Thu 11:30 19:30 APL serie: ¥ 2.100 Bounty High Roller ¥2,100 ¥130,000
1 februari Thu 11:30 19:30 APL-serie: ¥ 215 Zodiac Apenkoning Bounty ¥215 ¥125,000
1 februari Thu 11:30 19:30 APL serie: ¥ 2.100 Bounty High Roller ¥2,100 ¥130,000
1 februari Thu 11:30 19:30 APL-serie: ¥ 215 Zodiac Apenkoning Bounty ¥215 ¥125,000
1 februari Thu 13:00 20:00 APL serie: ¥388 Zodiac Main Event , ¥250K GTD ¥388 ¥300,000
1 februari Thu 13:00 20:00 APL serie: ¥388 Zodiac Main Event , ¥250K GTD ¥388 ¥300,000
1 februari Thu 13:00 21:00 APL-serie: ¥ 5.500 Deepstack High Roller ¥5,500 ¥200,000
1 februari Thu 13:00 21:00 APL Series: ¥550 Hold'em Deepstack ¥550 ¥100,000
1 februari Thu 13:00 21:00 APL-serie: ¥50 Zodiac Haan Zonsondergang Speciaal ¥50 ¥35,000
1 februari Thu 13:00 21:00 APL-serie: ¥ 5.500 Deepstack High Roller ¥5,500 ¥200,000
1 februari Thu 13:00 21:00 APL Series: ¥550 Hold'em Deepstack ¥550 ¥100,000
1 februari Thu 13:00 21:00 APL-serie: ¥50 Zodiac Haan Zonsondergang Speciaal ¥50 ¥35,000
1 februari Thu 13:10 21:10 APL serie: ¥ 3.150 Short Deck Bounty HR ¥3,150 ¥88,000
1 februari Thu 13:10 21:10 APL-serie: ¥ 320 Short Deck Bounty ¥320 ¥25,000
1 februari Thu 13:10 21:10 APL serie: ¥ 3.150 Short Deck Bounty HR ¥3,150 ¥88,000
1 februari Thu 13:10 21:10 APL-serie: ¥ 320 Short Deck Bounty ¥320 ¥25,000
1 februari Thu 13:40 21:40 APL serie: ¥ 5.250 PLO-NL Bounty HR ¥5,250 ¥88,000
1 februari Thu 13:40 21:40 APL Serie: ¥530 PLO-NL Bounty ¥530 ¥30,000
1 februari Thu 13:40 21:40 APL serie: ¥ 5.250 PLO-NL Bounty HR ¥5,250 ¥88,000
1 februari Thu 13:40 21:40 APL Serie: ¥530 PLO-NL Bounty ¥530 ¥30,000
1 februari Thu 14:00 23:00 APL Series: ¥1.100 Hold'em Klassieker ¥1,100 ¥100,000
1 februari Thu 14:00 23:00 APL serie: ¥110 Zodiac Hond Ultra Deepstack Turbo ¥110 ¥50,000
1 februari Thu 14:00 23:00 APL Series: ¥1.100 Hold'em Klassieker ¥1,100 ¥100,000
1 februari Thu 14:00 23:00 APL serie: ¥110 Zodiac Hond Ultra Deepstack Turbo ¥110 ¥50,000
1 februari Thu 14:10 22:10 APL-serie: 8.000 YEN Short Deck HR [3-Stack] ¥8,000 ¥100,000
1 februari Thu 14:10 22:10 APL serie: ¥800 Short Deck [3-Stack] ¥800 ¥25,000
1 februari Thu 14:10 22:10 APL-serie: 8.000 YEN Short Deck HR [3-Stack] ¥8,000 ¥100,000
1 februari Thu 14:10 22:10 APL serie: ¥800 Short Deck [3-Stack] ¥800 ¥25,000
1 februari Thu 14:30 22:30 APL serie: ¥ 3.150 Bounty High Roller ¥3,150 ¥180,000
1 februari Thu 14:30 22:30 APL-serie: ¥ 320 Zodiac Varken Bounty Feest ¥320 ¥180,000
1 februari Thu 14:30 22:30 APL serie: ¥ 3.150 Bounty High Roller ¥3,150 ¥180,000
1 februari Thu 14:30 22:30 APL-serie: ¥ 320 Zodiac Varken Bounty Feest ¥320 ¥180,000
1 februari Thu 14:40 22:40 APL-serie: ¥ 1.100 PLO-NL Klassiek ¥1,100 ¥25,000
1 februari Thu 14:40 22:40 APL-serie: ¥ 1.100 PLO-NL Klassiek ¥1,100 ¥25,000
1 februari Thu 16:00 23:00 APL Serie: ¥5.500 Hoge Roller 6-Max ¥5,500 ¥250,000
1 februari Thu 16:00 23:00 APL Series: ¥800 Hold'em 6-Max ¥800 ¥150,000
1 februari Thu 16:00 23:00 APL Serie: ¥5.500 Hoge Roller 6-Max ¥5,500 ¥250,000
1 februari Thu 16:00 23:00 APL Series: ¥800 Hold'em 6-Max ¥800 ¥150,000
1 februari Thu 15:10 23:10 APL serie: ¥ 530 Short Deck Bounty [Turbo] ¥530 ¥30,000
1 februari Thu 15:10 23:10 APL serie: ¥ 530 Short Deck Bounty [Turbo] ¥530 ¥30,000
1 februari Thu 15:40 23:40 APL Serie: ¥530 PLO-NL Bounty [Turbo] ¥530 ¥30,000
1 februari Thu 15:40 23:40 APL Serie: ¥530 PLO-NL Bounty [Turbo] ¥530 ¥30,000
1 februari Thu 16:00 0:00 APL serie: ¥330 Midnight Madness [Hyper] ¥330 ¥60,000
1 februari Thu 16:00 0:00 APL serie: ¥330 Midnight Madness [Hyper] ¥330 ¥60,000
1 februari Thu 16:30 0:30 APL serie: ¥ 2.100 Speed Racer Bounty Dichterbij HR ¥2,100 ¥75,000
1 februari Thu 16:30 0:30 APL-serie: ¥ 215 Speed Racer Bounty Closer ¥215 ¥50,000
1 februari Thu 16:30 0:30 APL serie: ¥ 2.100 Speed Racer Bounty Dichterbij HR ¥2,100 ¥75,000
1 februari Thu 16:30 0:30 APL-serie: ¥ 215 Speed Racer Bounty Closer ¥215 ¥50,000
2 februari vr 5:00 13:00 APL-serie: ¥ 550 dagelijkse opener ¥550 ¥60,000
2 februari vr 5:00 13:00 APL serie: ¥88 Zodiac Rattenopener ¥88 ¥30,000
2 februari vr 5:00 13:00 APL-serie: ¥ 550 dagelijkse opener ¥550 ¥60,000
2 februari vr 5:00 13:00 APL serie: ¥88 Zodiac Rattenopener ¥88 ¥30,000
2 februari vr 6:00 14:00 APL serie: ¥ 1.100 Deepstack High Roller ¥1,100 ¥80,000
2 februari vr 6:00 14:00 APL-serie: ¥ 330 Zodiac Ox Sterk Stack ¥330 ¥70,000
2 februari vr 6:00 14:00 APL serie: ¥ 1.100 Deepstack High Roller ¥1,100 ¥80,000
2 februari vr 6:00 14:00 APL-serie: ¥ 330 Zodiac Ox Sterk Stack ¥330 ¥70,000
2 februari vr 7:00 16:00 APL Serie: ¥ 1.050 Bounty High Roller ¥1,050 ¥100,000
2 februari vr 7:00 16:00 APL-serie: ¥108 Zodiac Tiger King Bounty ¥108 ¥70,000
2 februari vr 7:00 16:00 APL Serie: ¥ 1.050 Bounty High Roller ¥1,050 ¥100,000
2 februari vr 7:00 16:00 APL-serie: ¥108 Zodiac Tiger King Bounty ¥108 ¥70,000
2 februari vr 8:00 16:00 APL-serie: ¥220 Hold'em Klassieker ¥220 ¥50,000
2 februari vr 8:00 16:00 APL-serie: ¥85.50 Zodiac Konijn Lucky Bounty ¥85.5 ¥50,000
2 februari vr 8:00 16:00 APL-serie: ¥220 Hold'em Klassieker ¥220 ¥50,000
2 februari vr 8:00 16:00 APL-serie: ¥85.50 Zodiac Konijn Lucky Bounty ¥85.5 ¥50,000
2 februari vr 9:00 18:00 APL-serie: ¥80 Hold'em Klassieker ¥80 ¥30,000
2 februari vr 9:00 18:00 APL-serie: ¥800 Zodiac Dragon High Roller ¥800 ¥100,000
2 februari vr 9:00 18:00 APL-serie: ¥80 Hold'em Klassieker ¥80 ¥30,000
2 februari vr 9:00 18:00 APL-serie: ¥800 Zodiac Dragon High Roller ¥800 ¥100,000
2 februari vr 9:30 17:30 APL Series: ¥630 Hold'em Bounty [6-Max] ¥630 ¥120,000
2 februari vr 9:30 17:30 APL serie: ¥64.50 Zodiac Snake Bounty [6-Max] ¥64.5 ¥50,000
2 februari vr 9:30 17:30 APL Series: ¥630 Hold'em Bounty [6-Max] ¥630 ¥120,000
2 februari vr 9:30 17:30 APL serie: ¥64.50 Zodiac Snake Bounty [6-Max] ¥64.5 ¥50,000
2 februari vr 10:00 18:00 APL-serie: ¥1.100 Hold'em Marathon ¥1,100 ¥88,000
2 februari vr 10:00 18:00 APL-serie: ¥110 Zodiac Paardenmarathon ¥110 ¥50,000
2 februari vr 10:00 18:00 APL-serie: ¥1.100 Hold'em Marathon ¥1,100 ¥88,000
2 februari vr 10:00 18:00 APL-serie: ¥110 Zodiac Paardenmarathon ¥110 ¥50,000
2 februari vr 10:30 18:30 APL Series: ¥840 Hold'em Bounty ¥840 ¥125,000
2 februari vr 10:30 18:30 APL-serie: ¥ 85,50 Hold'em Bounty ¥85.5 ¥60,000
2 februari vr 10:30 18:30 APL Series: ¥840 Hold'em Bounty ¥840 ¥125,000
2 februari vr 10:30 18:30 APL-serie: ¥ 85,50 Hold'em Bounty ¥85.5 ¥60,000
2 februari vr 11:00 20:00 APL-serie: ¥ 2.024 Zodiac Geit High Roller ¥2,024 ¥130,000
2 februari vr 11:00 20:00 APL-serie: ¥ 2.024 Zodiac Geit High Roller ¥2,024 ¥130,000
2 februari vr 11:30 19:30 APL serie: ¥ 2.100 Bounty High Roller ¥2,100 ¥130,000
2 februari vr 11:30 19:30 APL-serie: ¥ 215 Zodiac Apenkoning Bounty ¥215 ¥125,000
2 februari vr 11:30 19:30 APL serie: ¥ 2.100 Bounty High Roller ¥2,100 ¥130,000
2 februari vr 11:30 19:30 APL-serie: ¥ 215 Zodiac Apenkoning Bounty ¥215 ¥125,000
2 februari vr 13:00 20:00 APL serie: ¥388 Zodiac Main Event , ¥250K GTD ¥388 ¥300,000
2 februari vr 13:00 20:00 APL serie: ¥388 Zodiac Main Event , ¥250K GTD ¥388 ¥300,000
2 februari vr 13:00 21:00 APL-serie: ¥ 5.500 Deepstack High Roller ¥5,500 ¥200,000
2 februari vr 13:00 21:00 APL Series: ¥550 Hold'em Deepstack ¥550 ¥100,000
2 februari vr 13:00 21:00 APL-serie: ¥50 Zodiac Haan Zonsondergang Speciaal ¥50 ¥35,000
2 februari vr 13:00 21:00 APL-serie: ¥ 5.500 Deepstack High Roller ¥5,500 ¥200,000
2 februari vr 13:00 21:00 APL Series: ¥550 Hold'em Deepstack ¥550 ¥100,000
2 februari vr 13:00 21:00 APL-serie: ¥50 Zodiac Haan Zonsondergang Speciaal ¥50 ¥35,000
2 februari vr 13:10 21:10 APL serie: ¥ 3.150 Short Deck Bounty HR ¥3,150 ¥88,000
2 februari vr 13:10 21:10 APL-serie: ¥ 320 Short Deck Bounty ¥320 ¥25,000
2 februari vr 13:10 21:10 APL serie: ¥ 3.150 Short Deck Bounty HR ¥3,150 ¥88,000
2 februari vr 13:10 21:10 APL-serie: ¥ 320 Short Deck Bounty ¥320 ¥25,000
2 februari vr 13:40 21:40 APL serie: ¥ 5.250 PLO-NL Bounty HR ¥5,250 ¥88,000
2 februari vr 13:40 21:40 APL Serie: ¥530 PLO-NL Bounty ¥530 ¥30,000
2 februari vr 13:40 21:40 APL serie: ¥ 5.250 PLO-NL Bounty HR ¥5,250 ¥88,000
2 februari vr 13:40 21:40 APL Serie: ¥530 PLO-NL Bounty ¥530 ¥30,000
2 februari vr 14:00 23:00 APL Series: ¥1.100 Hold'em Klassieker ¥1,100 ¥100,000
2 februari vr 14:00 23:00 APL serie: ¥110 Zodiac Hond Ultra Deepstack Turbo ¥110 ¥50,000
2 februari vr 14:00 23:00 APL Series: ¥1.100 Hold'em Klassieker ¥1,100 ¥100,000
2 februari vr 14:00 23:00 APL serie: ¥110 Zodiac Hond Ultra Deepstack Turbo ¥110 ¥50,000
2 februari vr 14:10 22:10 APL-serie: 8.000 YEN Short Deck HR [3-Stack] ¥8,000 ¥100,000
2 februari vr 14:10 22:10 APL serie: ¥800 Short Deck [3-Stack] ¥800 ¥25,000
2 februari vr 14:10 22:10 APL-serie: 8.000 YEN Short Deck HR [3-Stack] ¥8,000 ¥100,000
2 februari vr 14:10 22:10 APL serie: ¥800 Short Deck [3-Stack] ¥800 ¥25,000
2 februari vr 14:30 22:30 APL serie: ¥ 3.150 Bounty High Roller ¥3,150 ¥180,000
2 februari vr 14:30 22:30 APL-serie: ¥ 320 Zodiac Varken Bounty Feest ¥320 ¥180,000
2 februari vr 14:30 22:30 APL serie: ¥ 3.150 Bounty High Roller ¥3,150 ¥180,000
2 februari vr 14:30 22:30 APL-serie: ¥ 320 Zodiac Varken Bounty Feest ¥320 ¥180,000
2 februari vr 14:40 22:40 APL-serie: ¥ 1.100 PLO-NL Klassiek ¥1,100 ¥25,000
2 februari vr 14:40 22:40 APL-serie: ¥ 1.100 PLO-NL Klassiek ¥1,100 ¥25,000
2 februari vr 16:00 23:00 APL Serie: ¥5.500 Hoge Roller 6-Max ¥5,500 ¥250,000
2 februari vr 16:00 23:00 APL Series: ¥800 Hold'em 6-Max ¥800 ¥150,000
2 februari vr 16:00 23:00 APL Serie: ¥5.500 Hoge Roller 6-Max ¥5,500 ¥250,000
2 februari vr 16:00 23:00 APL Series: ¥800 Hold'em 6-Max ¥800 ¥150,000
2 februari vr 15:10 23:10 APL serie: ¥ 530 Short Deck Bounty [Turbo] ¥530 ¥30,000
2 februari vr 15:10 23:10 APL serie: ¥ 530 Short Deck Bounty [Turbo] ¥530 ¥30,000
2 februari vr 15:40 23:40 APL Serie: ¥530 PLO-NL Bounty [Turbo] ¥530 ¥30,000
2 februari vr 15:40 23:40 APL Serie: ¥530 PLO-NL Bounty [Turbo] ¥530 ¥30,000
2 februari vr 16:00 0:00 APL serie: ¥330 Midnight Madness [Hyper] ¥330 ¥60,000
2 februari vr 16:00 0:00 APL serie: ¥330 Midnight Madness [Hyper] ¥330 ¥60,000
2 februari vr 16:30 0:30 APL serie: ¥ 2.100 Speed Racer Bounty Dichterbij HR ¥2,100 ¥75,000
2 februari vr 16:30 0:30 APL-serie: ¥ 215 Speed Racer Bounty Closer ¥215 ¥50,000
2 februari vr 16:30 0:30 APL serie: ¥ 2.100 Speed Racer Bounty Dichterbij HR ¥2,100 ¥75,000
2 februari vr 16:30 0:30 APL-serie: ¥ 215 Speed Racer Bounty Closer ¥215 ¥50,000
3 februari Zat 5:00 13:00 APL-serie: ¥ 550 dagelijkse opener ¥550 ¥60,000
3 februari Zat 5:00 13:00 APL serie: ¥88 Zodiac Rattenopener ¥88 ¥30,000
3 februari Zat 5:00 13:00 APL-serie: ¥ 550 dagelijkse opener ¥550 ¥60,000
3 februari Zat 5:00 13:00 APL serie: ¥88 Zodiac Rattenopener ¥88 ¥30,000
3 februari Zat 6:00 14:00 APL serie: ¥ 1.100 Deepstack High Roller ¥1,100 ¥80,000
3 februari Zat 6:00 14:00 APL-serie: ¥ 330 Zodiac Ox Sterk Stack ¥330 ¥70,000
3 februari Zat 6:00 14:00 APL serie: ¥ 1.100 Deepstack High Roller ¥1,100 ¥80,000
3 februari Zat 6:00 14:00 APL-serie: ¥ 330 Zodiac Ox Sterk Stack ¥330 ¥70,000
3 februari Zat 7:00 16:00 APL Serie: ¥ 1.050 Bounty High Roller ¥1,050 ¥100,000
3 februari Zat 7:00 16:00 APL-serie: ¥108 Zodiac Tiger King Bounty ¥108 ¥70,000
3 februari Zat 7:00 16:00 APL Serie: ¥ 1.050 Bounty High Roller ¥1,050 ¥100,000
3 februari Zat 7:00 16:00 APL-serie: ¥108 Zodiac Tiger King Bounty ¥108 ¥70,000
3 februari Zat 8:00 16:00 APL-serie: ¥220 Hold'em Klassieker ¥220 ¥50,000
3 februari Zat 8:00 16:00 APL-serie: ¥85.50 Zodiac Konijn Lucky Bounty ¥85.5 ¥50,000
3 februari Zat 8:00 16:00 APL-serie: ¥220 Hold'em Klassieker ¥220 ¥50,000
3 februari Zat 8:00 16:00 APL-serie: ¥85.50 Zodiac Konijn Lucky Bounty ¥85.5 ¥50,000
3 februari Zat 9:00 18:00 APL-serie: ¥80 Hold'em Klassieker ¥80 ¥30,000
3 februari Zat 9:00 18:00 APL-serie: ¥800 Zodiac Dragon High Roller ¥800 ¥100,000
3 februari Zat 9:00 18:00 APL-serie: ¥80 Hold'em Klassieker ¥80 ¥30,000
3 februari Zat 9:00 18:00 APL-serie: ¥800 Zodiac Dragon High Roller ¥800 ¥100,000
3 februari Zat 9:30 17:30 APL Series: ¥630 Hold'em Bounty [6-Max] ¥630 ¥120,000
3 februari Zat 9:30 17:30 APL serie: ¥64.50 Zodiac Snake Bounty [6-Max] ¥64.5 ¥50,000
3 februari Zat 9:30 17:30 APL Series: ¥630 Hold'em Bounty [6-Max] ¥630 ¥120,000
3 februari Zat 9:30 17:30 APL serie: ¥64.50 Zodiac Snake Bounty [6-Max] ¥64.5 ¥50,000
3 februari Zat 10:00 18:00 APL-serie: ¥1.100 Hold'em Marathon ¥1,100 ¥88,000
3 februari Zat 10:00 18:00 APL-serie: ¥110 Zodiac Paardenmarathon ¥110 ¥50,000
3 februari Zat 10:00 18:00 APL-serie: ¥1.100 Hold'em Marathon ¥1,100 ¥88,000
3 februari Zat 10:00 18:00 APL-serie: ¥110 Zodiac Paardenmarathon ¥110 ¥50,000
3 februari Zat 10:30 18:30 APL Series: ¥840 Hold'em Bounty ¥840 ¥125,000
3 februari Zat 10:30 18:30 APL-serie: ¥ 85,50 Hold'em Bounty ¥85.5 ¥60,000
3 februari Zat 10:30 18:30 APL Series: ¥840 Hold'em Bounty ¥840 ¥125,000
3 februari Zat 10:30 18:30 APL-serie: ¥ 85,50 Hold'em Bounty ¥85.5 ¥60,000
3 februari Zat 11:00 20:00 APL-serie: ¥ 2.024 Zodiac Geit High Roller ¥2,024 ¥130,000
3 februari Zat 11:00 20:00 APL-serie: ¥ 2.024 Zodiac Geit High Roller ¥2,024 ¥130,000
3 februari Zat 11:30 19:30 APL serie: ¥ 2.100 Bounty High Roller ¥2,100 ¥130,000
3 februari Zat 11:30 19:30 APL-serie: ¥ 215 Zodiac Apenkoning Bounty ¥215 ¥125,000
3 februari Zat 11:30 19:30 APL serie: ¥ 2.100 Bounty High Roller ¥2,100 ¥130,000
3 februari Zat 11:30 19:30 APL-serie: ¥ 215 Zodiac Apenkoning Bounty ¥215 ¥125,000
3 februari Zat 13:00 20:00 APL serie: ¥388 Zodiac Main Event , ¥250K GTD ¥388 ¥300,000
3 februari Zat 13:00 20:00 APL serie: ¥388 Zodiac Main Event , ¥250K GTD ¥388 ¥300,000
3 februari Zat 13:00 21:00 APL-serie: ¥ 5.500 Deepstack High Roller ¥5,500 ¥200,000
3 februari Zat 13:00 21:00 APL Series: ¥550 Hold'em Deepstack ¥550 ¥100,000
3 februari Zat 13:00 21:00 APL-serie: ¥50 Zodiac Haan Zonsondergang Speciaal ¥50 ¥35,000
3 februari Zat 13:00 21:00 APL-serie: ¥ 5.500 Deepstack High Roller ¥5,500 ¥200,000
3 februari Zat 13:00 21:00 APL Series: ¥550 Hold'em Deepstack ¥550 ¥100,000
3 februari Zat 13:00 21:00 APL-serie: ¥50 Zodiac Haan Zonsondergang Speciaal ¥50 ¥35,000
3 februari Zat 13:10 21:10 APL serie: ¥ 3.150 Short Deck Bounty HR ¥3,150 ¥88,000
3 februari Zat 13:10 21:10 APL-serie: ¥ 320 Short Deck Bounty ¥320 ¥25,000
3 februari Zat 13:10 21:10 APL serie: ¥ 3.150 Short Deck Bounty HR ¥3,150 ¥88,000
3 februari Zat 13:10 21:10 APL-serie: ¥ 320 Short Deck Bounty ¥320 ¥25,000
3 februari Zat 13:40 21:40 APL serie: ¥ 5.250 PLO-NL Bounty HR ¥5,250 ¥88,000
3 februari Zat 13:40 21:40 APL Serie: ¥530 PLO-NL Bounty ¥530 ¥30,000
3 februari Zat 13:40 21:40 APL serie: ¥ 5.250 PLO-NL Bounty HR ¥5,250 ¥88,000
3 februari Zat 13:40 21:40 APL Serie: ¥530 PLO-NL Bounty ¥530 ¥30,000
3 februari Zat 14:00 23:00 APL Series: ¥1.100 Hold'em Klassieker ¥1,100 ¥100,000
3 februari Zat 14:00 23:00 APL serie: ¥110 Zodiac Hond Ultra Deepstack Turbo ¥110 ¥50,000
3 februari Zat 14:00 23:00 APL Series: ¥1.100 Hold'em Klassieker ¥1,100 ¥100,000
3 februari Zat 14:00 23:00 APL serie: ¥110 Zodiac Hond Ultra Deepstack Turbo ¥110 ¥50,000
3 februari Zat 14:10 22:10 APL-serie: 8.000 YEN Short Deck HR [3-Stack] ¥8,000 ¥100,000
3 februari Zat 14:10 22:10 APL serie: ¥800 Short Deck [3-Stack] ¥800 ¥25,000
3 februari Zat 14:10 22:10 APL-serie: 8.000 YEN Short Deck HR [3-Stack] ¥8,000 ¥100,000
3 februari Zat 14:10 22:10 APL serie: ¥800 Short Deck [3-Stack] ¥800 ¥25,000
3 februari Zat 14:30 22:30 APL serie: ¥ 3.150 Bounty High Roller ¥3,150 ¥180,000
3 februari Zat 14:30 22:30 APL-serie: ¥ 320 Zodiac Varken Bounty Feest ¥320 ¥180,000
3 februari Zat 14:30 22:30 APL serie: ¥ 3.150 Bounty High Roller ¥3,150 ¥180,000
3 februari Zat 14:30 22:30 APL-serie: ¥ 320 Zodiac Varken Bounty Feest ¥320 ¥180,000
3 februari Zat 14:40 22:40 APL-serie: ¥ 1.100 PLO-NL Klassiek ¥1,100 ¥25,000
3 februari Zat 14:40 22:40 APL-serie: ¥ 1.100 PLO-NL Klassiek ¥1,100 ¥25,000
3 februari Zat 16:00 23:00 APL Serie: ¥5.500 Hoge Roller 6-Max ¥5,500 ¥250,000
3 februari Zat 16:00 23:00 APL Series: ¥800 Hold'em 6-Max ¥800 ¥150,000
3 februari Zat 16:00 23:00 APL Serie: ¥5.500 Hoge Roller 6-Max ¥5,500 ¥250,000
3 februari Zat 16:00 23:00 APL Series: ¥800 Hold'em 6-Max ¥800 ¥150,000
3 februari Zat 15:10 23:10 APL serie: ¥ 530 Short Deck Bounty [Turbo] ¥530 ¥30,000
3 februari Zat 15:10 23:10 APL serie: ¥ 530 Short Deck Bounty [Turbo] ¥530 ¥30,000
3 februari Zat 15:40 23:40 APL Serie: ¥530 PLO-NL Bounty [Turbo] ¥530 ¥30,000
3 februari Zat 15:40 23:40 APL Serie: ¥530 PLO-NL Bounty [Turbo] ¥530 ¥30,000
3 februari Zat 16:00 0:00 APL serie: ¥330 Midnight Madness [Hyper] ¥330 ¥60,000
3 februari Zat 16:00 0:00 APL serie: ¥330 Midnight Madness [Hyper] ¥330 ¥60,000
3 februari Zat 16:30 0:30 APL serie: ¥ 2.100 Speed Racer Bounty Dichterbij HR ¥2,100 ¥75,000
3 februari Zat 16:30 0:30 APL-serie: ¥ 215 Speed Racer Bounty Closer ¥215 ¥50,000
3 februari Zat 16:30 0:30 APL serie: ¥ 2.100 Speed Racer Bounty Dichterbij HR ¥2,100 ¥75,000
3 februari Zat 16:30 0:30 APL-serie: ¥ 215 Speed Racer Bounty Closer ¥215 ¥50,000
4 februari Zon 5:00 13:00 APL-serie: ¥550 zondagopener ¥550 ¥60,000
4 februari Zon 5:00 13:00 APL serie: ¥88 Zodiac Rattenopener ¥88 ¥30,000
4 februari Zon 6:00 14:00 APL Series: ¥1.100 Sunday High Roller Deepstack ¥1,100 ¥88,000
4 februari Zon 6:00 14:00 APL-serie: ¥ 330 Zodiac Ox Sterk Stack ¥330 ¥60,000
4 februari Zon 7:00 16:00 APL Series: ¥1.050 Sunday High Roller Bounty ¥1,050 ¥88,000
4 februari Zon 7:00 16:00 APL-serie: ¥108 Zodiac Tiger King Bounty ¥108 ¥70,000
4 februari Zon 8:00 16:00 APL-serie: ¥220 Zondagsklassieker ¥220 ¥50,000
4 februari Zon 8:00 16:00 APL-serie: ¥85.50 Zodiac Konijn Lucky Bounty ¥85.5 ¥60,000
4 februari Zon 9:00 18:00 APL-serie: ¥ 80 Zondagsklassieker ¥80 ¥35,000
4 februari Zon 9:00 18:00 APL-serie: ¥800 Zodiac Dragon High Roller ¥800 ¥150,000
4 februari Zon 9:30 17:30 APL serie: ¥ 630 zondag premie [6-Max] ¥630 ¥150,000
4 februari Zon 9:30 17:30 APL serie: ¥64.50 Zodiac Snake Bounty [6-Max] ¥64.5 ¥60,000
4 februari Zon 10:00 18:00 APL-serie: ¥ 1.100 Zondag Marathon ¥1,100 ¥200,000
4 februari Zon 10:00 18:00 APL-serie: ¥110 Zodiac Paardenmarathon ¥110 ¥70,000
4 februari Zon 10:30 18:30 APL serie: 840¥ Zondag Bounty ¥840 ¥200,000
4 februari Zon 10:30 18:30 APL-serie: ¥85.50 Zondag Bounty ¥85.5 ¥100,000
4 februari Zon 11:00 20:00 APL-serie: ¥220 Zondagsklassieker ¥220 ¥125,000
4 februari Zon 11:00 20:00 APL-serie: ¥ 2.024 Zodiac Geit High Roller ¥2,024 ¥388,000
4 februari Zon 11:30 19:30 APL Series: ¥ 2.100 Sunday High Roller Bounty ¥2,100 ¥388,000
4 februari Zon 11:30 19:30 APL-serie: ¥ 215 Zodiac Apenkoning Bounty ¥215 ¥188,000
4 februari Zon 13:00 20:00 APL serie: ¥388 Zodiac Main Event , ¥500K GTD ¥388 ¥700,000
4 februari Zon 13:00 21:00 APL Series: ¥ 550 zondag Deepstack ¥550 ¥300,000
4 februari Zon 13:00 21:00 APL-serie: ¥ 10.300 zondag HR Main Event ¥10,300 ¥1,000,000
4 februari Zon 13:00 21:00 APL-serie: ¥50 Zodiac Haan Zonsondergang Speciaal ¥50 ¥60,000
4 februari Zon 13:10 21:10 APL serie: ¥ 3.150 Short Deck Bounty HR ¥3,150 ¥125,000
4 februari Zon 13:10 21:10 APL-serie: ¥ 320 Short Deck Bounty ¥320 ¥50,000
4 februari Zon 13:40 21:40 APL serie: ¥ 5.250 PLO-NL Bounty HR ¥5,250 ¥150,000
4 februari Zon 13:40 21:40 APL Serie: ¥530 PLO-NL Bounty ¥530 ¥60,000
4 februari Zon 14:00 23:00 APL-serie: ¥ 1.100 Zondagsklassieker ¥1,100 ¥388,000
4 februari Zon 14:00 23:00 APL serie: ¥110 Zodiac Hond Ultra Deepstack Turbo ¥110 ¥80,000
4 februari Zon 14:10 22:10 APL-serie: 8.000 YEN Short Deck HR [3-Stack] ¥8,000 ¥188,000
4 februari Zon 14:10 22:10 APL serie: ¥800 Short Deck [3-Stack] ¥800 ¥50,000
4 februari Zon 14:30 22:30 APL Series: ¥ 3.150 Sunday High Roller Bounty ¥3,150 ¥600,000
4 februari Zon 14:30 22:30 APL-serie: ¥ 320 Zodiac Varken Bounty Feest ¥320 ¥388,000
4 februari Zon 14:40 22:40 APL-serie: ¥ 1.100 PLO-NL Klassiek ¥1,100 ¥60,000
4 februari Zon 16:00 23:00 APL-serie: ¥800 zondag 6-Max ¥800 ¥388,000
4 februari Zon 16:00 23:00 APL Series: ¥5.500 Sunday High Roller 6-Max ¥5,500 ¥700,000
4 februari Zon 16:00 23:00 APL serie: ¥ 25.500 zondag SHR ¥25,500 ¥1,000,000
4 februari Zon 15:10 23:10 APL serie: ¥ 5.250 Short Deck Bounty HR ¥5,250 ¥200,000
4 februari Zon 15:10 23:10 APL serie: ¥ 530 Short Deck Bounty [Turbo] ¥530 ¥50,000
4 februari Zon 15:40 23:40 APL Serie: ¥5.250 PLO-NL Bounty High Roller ¥5,250 ¥200,000
4 februari Zon 15:40 23:40 APL Serie: ¥530 PLO-NL Bounty [Turbo] ¥530 ¥50,000
4 februari Zon 16:00 0:00 APL serie: 51.000¥ Zondag Ultra HR ¥51,000 ¥1,000,000
4 februari Zon 16:00 0:00 APL serie: ¥330 Midnight Madness [Hyper] ¥330 ¥150,000
4 februari Zon 16:30 0:30 APL serie: ¥ 2.100 Speed Racer Bounty Dichterbij HR ¥2,100 ¥100,000
4 februari Zon 16:40 0:40 APL-serie: ¥ 1.100 PLO-NL Hundred Stack ¥1,100 ¥80,000
4 februari Zon 16:40 0:40 APL serie: ¥ 10.300 PLO-NL Honderd Stack HR ¥10,300 ¥200,000
5 februari Maa 5:00 13:00 APL-serie: ¥ 550 dagelijkse opener ¥550 ¥60,000
5 februari Maa 5:00 13:00 APL serie: ¥88 Zodiac Rattenopener ¥88 ¥30,000
5 februari Maa 5:00 13:00 APL-serie: ¥ 550 dagelijkse opener ¥550 ¥60,000
5 februari Maa 5:00 13:00 APL serie: ¥88 Zodiac Rattenopener ¥88 ¥30,000
5 februari Maa 6:00 14:00 APL serie: ¥ 1.100 Deepstack High Roller ¥1,100 ¥80,000
5 februari Maa 6:00 14:00 APL-serie: ¥ 330 Zodiac Ox Sterk Stack ¥330 ¥70,000
5 februari Maa 6:00 14:00 APL serie: ¥ 1.100 Deepstack High Roller ¥1,100 ¥80,000
5 februari Maa 6:00 14:00 APL-serie: ¥ 330 Zodiac Ox Sterk Stack ¥330 ¥70,000
5 februari Maa 7:00 16:00 APL Serie: ¥ 1.050 Bounty High Roller ¥1,050 ¥100,000
5 februari Maa 7:00 16:00 APL-serie: ¥108 Zodiac Tiger King Bounty ¥108 ¥70,000
5 februari Maa 7:00 16:00 APL Serie: ¥ 1.050 Bounty High Roller ¥1,050 ¥100,000
5 februari Maa 7:00 16:00 APL-serie: ¥108 Zodiac Tiger King Bounty ¥108 ¥70,000
5 februari Maa 8:00 16:00 APL-serie: ¥220 Hold'em Klassieker ¥220 ¥50,000
5 februari Maa 8:00 16:00 APL-serie: ¥85.50 Zodiac Konijn Lucky Bounty ¥85.5 ¥50,000
5 februari Maa 8:00 16:00 APL-serie: ¥220 Hold'em Klassieker ¥220 ¥50,000
5 februari Maa 8:00 16:00 APL-serie: ¥85.50 Zodiac Konijn Lucky Bounty ¥85.5 ¥50,000
5 februari Maa 9:00 18:00 APL-serie: ¥80 Hold'em Klassieker ¥80 ¥30,000
5 februari Maa 9:00 18:00 APL-serie: ¥800 Zodiac Dragon High Roller ¥800 ¥100,000
5 februari Maa 9:00 18:00 APL-serie: ¥80 Hold'em Klassieker ¥80 ¥30,000
5 februari Maa 9:00 18:00 APL-serie: ¥800 Zodiac Dragon High Roller ¥800 ¥100,000
5 februari Maa 9:30 17:30 APL Series: ¥630 Hold'em Bounty [6-Max] ¥630 ¥120,000
5 februari Maa 9:30 17:30 APL serie: ¥64.50 Zodiac Snake Bounty [6-Max] ¥64.5 ¥50,000
5 februari Maa 9:30 17:30 APL Series: ¥630 Hold'em Bounty [6-Max] ¥630 ¥120,000
5 februari Maa 9:30 17:30 APL serie: ¥64.50 Zodiac Snake Bounty [6-Max] ¥64.5 ¥50,000
5 februari Maa 10:00 18:00 APL-serie: ¥1.100 Hold'em Marathon ¥1,100 ¥88,000
5 februari Maa 10:00 18:00 APL-serie: ¥110 Zodiac Paardenmarathon ¥110 ¥50,000
5 februari Maa 10:00 18:00 APL-serie: ¥1.100 Hold'em Marathon ¥1,100 ¥88,000
5 februari Maa 10:00 18:00 APL-serie: ¥110 Zodiac Paardenmarathon ¥110 ¥50,000
5 februari Maa 10:30 18:30 APL Series: ¥840 Hold'em Bounty ¥840 ¥125,000
5 februari Maa 10:30 18:30 APL-serie: ¥ 85,50 Hold'em Bounty ¥85.5 ¥60,000
5 februari Maa 10:30 18:30 APL Series: ¥840 Hold'em Bounty ¥840 ¥125,000
5 februari Maa 10:30 18:30 APL-serie: ¥ 85,50 Hold'em Bounty ¥85.5 ¥60,000
5 februari Maa 11:00 20:00 APL-serie: ¥ 2.024 Zodiac Geit High Roller ¥2,024 ¥130,000
5 februari Maa 11:00 20:00 APL-serie: ¥ 2.024 Zodiac Geit High Roller ¥2,024 ¥130,000
5 februari Maa 11:30 19:30 APL serie: ¥ 2.100 Bounty High Roller ¥2,100 ¥130,000
5 februari Maa 11:30 19:30 APL-serie: ¥ 215 Zodiac Apenkoning Bounty ¥215 ¥125,000
5 februari Maa 11:30 19:30 APL serie: ¥ 2.100 Bounty High Roller ¥2,100 ¥130,000
5 februari Maa 11:30 19:30 APL-serie: ¥ 215 Zodiac Apenkoning Bounty ¥215 ¥125,000
5 februari Maa 13:00 20:00 APL serie: ¥388 Zodiac Main Event , ¥250K GTD ¥388 ¥300,000
5 februari Maa 13:00 20:00 APL serie: ¥388 Zodiac Main Event , ¥250K GTD ¥388 ¥300,000
5 februari Maa 13:00 21:00 APL-serie: ¥ 5.500 Deepstack High Roller ¥5,500 ¥200,000
5 februari Maa 13:00 21:00 APL Series: ¥550 Hold'em Deepstack ¥550 ¥100,000
5 februari Maa 13:00 21:00 APL-serie: ¥50 Zodiac Haan Zonsondergang Speciaal ¥50 ¥35,000
5 februari Maa 13:00 21:00 APL-serie: ¥ 5.500 Deepstack High Roller ¥5,500 ¥200,000
5 februari Maa 13:00 21:00 APL Series: ¥550 Hold'em Deepstack ¥550 ¥100,000
5 februari Maa 13:00 21:00 APL-serie: ¥50 Zodiac Haan Zonsondergang Speciaal ¥50 ¥35,000
5 februari Maa 13:10 21:10 APL serie: ¥ 3.150 Short Deck Bounty HR ¥3,150 ¥88,000
5 februari Maa 13:10 21:10 APL-serie: ¥ 320 Short Deck Bounty ¥320 ¥25,000
5 februari Maa 13:10 21:10 APL serie: ¥ 3.150 Short Deck Bounty HR ¥3,150 ¥88,000
5 februari Maa 13:10 21:10 APL-serie: ¥ 320 Short Deck Bounty ¥320 ¥25,000
5 februari Maa 13:40 21:40 APL serie: ¥ 5.250 PLO-NL Bounty HR ¥5,250 ¥88,000
5 februari Maa 13:40 21:40 APL Serie: ¥530 PLO-NL Bounty ¥530 ¥30,000
5 februari Maa 13:40 21:40 APL serie: ¥ 5.250 PLO-NL Bounty HR ¥5,250 ¥88,000
5 februari Maa 13:40 21:40 APL Serie: ¥530 PLO-NL Bounty ¥530 ¥30,000
5 februari Maa 14:00 23:00 APL Series: ¥1.100 Hold'em Klassieker ¥1,100 ¥100,000
5 februari Maa 14:00 23:00 APL serie: ¥110 Zodiac Hond Ultra Deepstack Turbo ¥110 ¥50,000
5 februari Maa 14:00 23:00 APL Series: ¥1.100 Hold'em Klassieker ¥1,100 ¥100,000
5 februari Maa 14:00 23:00 APL serie: ¥110 Zodiac Hond Ultra Deepstack Turbo ¥110 ¥50,000
5 februari Maa 14:10 22:10 APL-serie: 8.000 YEN Short Deck HR [3-Stack] ¥8,000 ¥100,000
5 februari Maa 14:10 22:10 APL serie: ¥800 Short Deck [3-Stack] ¥800 ¥25,000
5 februari Maa 14:10 22:10 APL-serie: 8.000 YEN Short Deck HR [3-Stack] ¥8,000 ¥100,000
5 februari Maa 14:10 22:10 APL serie: ¥800 Short Deck [3-Stack] ¥800 ¥25,000
5 februari Maa 14:30 22:30 APL serie: ¥ 3.150 Bounty High Roller ¥3,150 ¥180,000
5 februari Maa 14:30 22:30 APL-serie: ¥ 320 Zodiac Varken Bounty Feest ¥320 ¥180,000
5 februari Maa 14:30 22:30 APL serie: ¥ 3.150 Bounty High Roller ¥3,150 ¥180,000
5 februari Maa 14:30 22:30 APL-serie: ¥ 320 Zodiac Varken Bounty Feest ¥320 ¥180,000
5 februari Maa 14:40 22:40 APL-serie: ¥ 1.100 PLO-NL Klassiek ¥1,100 ¥25,000
5 februari Maa 14:40 22:40 APL-serie: ¥ 1.100 PLO-NL Klassiek ¥1,100 ¥25,000
5 februari Maa 16:00 23:00 APL Serie: ¥5.500 Hoge Roller 6-Max ¥5,500 ¥250,000
5 februari Maa 16:00 23:00 APL Series: ¥800 Hold'em 6-Max ¥800 ¥150,000
5 februari Maa 16:00 23:00 APL Serie: ¥5.500 Hoge Roller 6-Max ¥5,500 ¥250,000
5 februari Maa 16:00 23:00 APL Series: ¥800 Hold'em 6-Max ¥800 ¥150,000
5 februari Maa 15:10 23:10 APL serie: ¥ 530 Short Deck Bounty [Turbo] ¥530 ¥30,000
5 februari Maa 15:10 23:10 APL serie: ¥ 530 Short Deck Bounty [Turbo] ¥530 ¥30,000
5 februari Maa 15:40 23:40 APL Serie: ¥530 PLO-NL Bounty [Turbo] ¥530 ¥30,000
5 februari Maa 15:40 23:40 APL Serie: ¥530 PLO-NL Bounty [Turbo] ¥530 ¥30,000
5 februari Maa 16:00 0:00 APL serie: ¥330 Midnight Madness [Hyper] ¥330 ¥60,000
5 februari Maa 16:00 0:00 APL serie: ¥330 Midnight Madness [Hyper] ¥330 ¥60,000
5 februari Maa 16:30 0:30 APL serie: ¥ 2.100 Speed Racer Bounty Dichterbij HR ¥2,100 ¥75,000
5 februari Maa 16:30 0:30 APL-serie: ¥ 215 Speed Racer Bounty Closer ¥215 ¥50,000
5 februari Maa 16:30 0:30 APL serie: ¥ 2.100 Speed Racer Bounty Dichterbij HR ¥2,100 ¥75,000
5 februari Maa 16:30 0:30 APL-serie: ¥ 215 Speed Racer Bounty Closer ¥215 ¥50,000
6 februari Tue 5:00 13:00 APL-serie: ¥ 550 dagelijkse opener ¥550 ¥60,000
6 februari Tue 5:00 13:00 APL serie: ¥88 Zodiac Rattenopener ¥88 ¥30,000
6 februari Tue 5:00 13:00 APL-serie: ¥ 550 dagelijkse opener ¥550 ¥60,000
6 februari Tue 5:00 13:00 APL serie: ¥88 Zodiac Rattenopener ¥88 ¥30,000
6 februari Tue 6:00 14:00 APL serie: ¥ 1.100 Deepstack High Roller ¥1,100 ¥80,000
6 februari Tue 6:00 14:00 APL-serie: ¥ 330 Zodiac Ox Sterk Stack ¥330 ¥70,000
6 februari Tue 6:00 14:00 APL serie: ¥ 1.100 Deepstack High Roller ¥1,100 ¥80,000
6 februari Tue 6:00 14:00 APL-serie: ¥ 330 Zodiac Ox Sterk Stack ¥330 ¥70,000
6 februari Tue 7:00 16:00 APL Serie: ¥ 1.050 Bounty High Roller ¥1,050 ¥100,000
6 februari Tue 7:00 16:00 APL-serie: ¥108 Zodiac Tiger King Bounty ¥108 ¥70,000
6 februari Tue 7:00 16:00 APL Serie: ¥ 1.050 Bounty High Roller ¥1,050 ¥100,000
6 februari Tue 7:00 16:00 APL-serie: ¥108 Zodiac Tiger King Bounty ¥108 ¥70,000
6 februari Tue 8:00 16:00 APL-serie: ¥220 Hold'em Klassieker ¥220 ¥50,000
6 februari Tue 8:00 16:00 APL-serie: ¥85.50 Zodiac Konijn Lucky Bounty ¥85.5 ¥50,000
6 februari Tue 8:00 16:00 APL-serie: ¥220 Hold'em Klassieker ¥220 ¥50,000
6 februari Tue 8:00 16:00 APL-serie: ¥85.50 Zodiac Konijn Lucky Bounty ¥85.5 ¥50,000
6 februari Tue 9:00 18:00 APL-serie: ¥80 Hold'em Klassieker ¥80 ¥30,000
6 februari Tue 9:00 18:00 APL-serie: ¥800 Zodiac Dragon High Roller ¥800 ¥100,000
6 februari Tue 9:00 18:00 APL-serie: ¥80 Hold'em Klassieker ¥80 ¥30,000
6 februari Tue 9:00 18:00 APL-serie: ¥800 Zodiac Dragon High Roller ¥800 ¥100,000
6 februari Tue 9:30 17:30 APL Series: ¥630 Hold'em Bounty [6-Max] ¥630 ¥120,000
6 februari Tue 9:30 17:30 APL serie: ¥64.50 Zodiac Snake Bounty [6-Max] ¥64.5 ¥50,000
6 februari Tue 9:30 17:30 APL Series: ¥630 Hold'em Bounty [6-Max] ¥630 ¥120,000
6 februari Tue 9:30 17:30 APL serie: ¥64.50 Zodiac Snake Bounty [6-Max] ¥64.5 ¥50,000
6 februari Tue 10:00 18:00 APL-serie: ¥1.100 Hold'em Marathon ¥1,100 ¥88,000
6 februari Tue 10:00 18:00 APL-serie: ¥110 Zodiac Paardenmarathon ¥110 ¥50,000
6 februari Tue 10:00 18:00 APL-serie: ¥1.100 Hold'em Marathon ¥1,100 ¥88,000
6 februari Tue 10:00 18:00 APL-serie: ¥110 Zodiac Paardenmarathon ¥110 ¥50,000
6 februari Tue 10:30 18:30 APL Series: ¥840 Hold'em Bounty ¥840 ¥125,000
6 februari Tue 10:30 18:30 APL-serie: ¥ 85,50 Hold'em Bounty ¥85.5 ¥60,000
6 februari Tue 10:30 18:30 APL Series: ¥840 Hold'em Bounty ¥840 ¥125,000
6 februari Tue 10:30 18:30 APL-serie: ¥ 85,50 Hold'em Bounty ¥85.5 ¥60,000
6 februari Tue 11:00 20:00 APL-serie: ¥ 2.024 Zodiac Geit High Roller ¥2,024 ¥130,000
6 februari Tue 11:00 20:00 APL-serie: ¥ 2.024 Zodiac Geit High Roller ¥2,024 ¥130,000
6 februari Tue 11:30 19:30 APL serie: ¥ 2.100 Bounty High Roller ¥2,100 ¥130,000
6 februari Tue 11:30 19:30 APL-serie: ¥ 215 Zodiac Apenkoning Bounty ¥215 ¥125,000
6 februari Tue 11:30 19:30 APL serie: ¥ 2.100 Bounty High Roller ¥2,100 ¥130,000
6 februari Tue 11:30 19:30 APL-serie: ¥ 215 Zodiac Apenkoning Bounty ¥215 ¥125,000
6 februari Tue 13:00 20:00 APL serie: ¥388 Zodiac Main Event , ¥250K GTD ¥388 ¥300,000
6 februari Tue 13:00 20:00 APL serie: ¥388 Zodiac Main Event , ¥250K GTD ¥388 ¥300,000
6 februari Tue 13:00 21:00 APL-serie: ¥ 5.500 Deepstack High Roller ¥5,500 ¥200,000
6 februari Tue 13:00 21:00 APL Series: ¥550 Hold'em Deepstack ¥550 ¥100,000
6 februari Tue 13:00 21:00 APL-serie: ¥50 Zodiac Haan Zonsondergang Speciaal ¥50 ¥35,000
6 februari Tue 13:00 21:00 APL-serie: ¥ 5.500 Deepstack High Roller ¥5,500 ¥200,000
6 februari Tue 13:00 21:00 APL Series: ¥550 Hold'em Deepstack ¥550 ¥100,000
6 februari Tue 13:00 21:00 APL-serie: ¥50 Zodiac Haan Zonsondergang Speciaal ¥50 ¥35,000
6 februari Tue 13:10 21:10 APL serie: ¥ 3.150 Short Deck Bounty HR ¥3,150 ¥88,000
6 februari Tue 13:10 21:10 APL-serie: ¥ 320 Short Deck Bounty ¥320 ¥25,000
6 februari Tue 13:10 21:10 APL serie: ¥ 3.150 Short Deck Bounty HR ¥3,150 ¥88,000
6 februari Tue 13:10 21:10 APL-serie: ¥ 320 Short Deck Bounty ¥320 ¥25,000
6 februari Tue 13:40 21:40 APL serie: ¥ 5.250 PLO-NL Bounty HR ¥5,250 ¥88,000
6 februari Tue 13:40 21:40 APL Serie: ¥530 PLO-NL Bounty ¥530 ¥30,000
6 februari Tue 13:40 21:40 APL serie: ¥ 5.250 PLO-NL Bounty HR ¥5,250 ¥88,000
6 februari Tue 13:40 21:40 APL Serie: ¥530 PLO-NL Bounty ¥530 ¥30,000
6 februari Tue 14:00 23:00 APL Series: ¥1.100 Hold'em Klassieker ¥1,100 ¥100,000
6 februari Tue 14:00 23:00 APL serie: ¥110 Zodiac Hond Ultra Deepstack Turbo ¥110 ¥50,000
6 februari Tue 14:00 23:00 APL Series: ¥1.100 Hold'em Klassieker ¥1,100 ¥100,000
6 februari Tue 14:00 23:00 APL serie: ¥110 Zodiac Hond Ultra Deepstack Turbo ¥110 ¥50,000
6 februari Tue 14:10 22:10 APL-serie: 8.000 YEN Short Deck HR [3-Stack] ¥8,000 ¥100,000
6 februari Tue 14:10 22:10 APL serie: ¥800 Short Deck [3-Stack] ¥800 ¥25,000
6 februari Tue 14:10 22:10 APL-serie: 8.000 YEN Short Deck HR [3-Stack] ¥8,000 ¥100,000
6 februari Tue 14:10 22:10 APL serie: ¥800 Short Deck [3-Stack] ¥800 ¥25,000
6 februari Tue 14:30 22:30 APL serie: ¥ 3.150 Bounty High Roller ¥3,150 ¥180,000
6 februari Tue 14:30 22:30 APL-serie: ¥ 320 Zodiac Varken Bounty Feest ¥320 ¥180,000
6 februari Tue 14:30 22:30 APL serie: ¥ 3.150 Bounty High Roller ¥3,150 ¥180,000
6 februari Tue 14:30 22:30 APL-serie: ¥ 320 Zodiac Varken Bounty Feest ¥320 ¥180,000
6 februari Tue 14:40 22:40 APL-serie: ¥ 1.100 PLO-NL Klassiek ¥1,100 ¥25,000
6 februari Tue 14:40 22:40 APL-serie: ¥ 1.100 PLO-NL Klassiek ¥1,100 ¥25,000
6 februari Tue 16:00 23:00 APL Serie: ¥5.500 Hoge Roller 6-Max ¥5,500 ¥250,000
6 februari Tue 16:00 23:00 APL Series: ¥800 Hold'em 6-Max ¥800 ¥150,000
6 februari Tue 16:00 23:00 APL Serie: ¥5.500 Hoge Roller 6-Max ¥5,500 ¥250,000
6 februari Tue 16:00 23:00 APL Series: ¥800 Hold'em 6-Max ¥800 ¥150,000
6 februari Tue 15:10 23:10 APL serie: ¥ 530 Short Deck Bounty [Turbo] ¥530 ¥30,000
6 februari Tue 15:10 23:10 APL serie: ¥ 530 Short Deck Bounty [Turbo] ¥530 ¥30,000
6 februari Tue 15:40 23:40 APL Serie: ¥530 PLO-NL Bounty [Turbo] ¥530 ¥30,000
6 februari Tue 15:40 23:40 APL Serie: ¥530 PLO-NL Bounty [Turbo] ¥530 ¥30,000
6 februari Tue 16:00 0:00 APL serie: ¥330 Midnight Madness [Hyper] ¥330 ¥60,000
6 februari Tue 16:00 0:00 APL serie: ¥330 Midnight Madness [Hyper] ¥330 ¥60,000
6 februari Tue 16:30 0:30 APL serie: ¥ 2.100 Speed Racer Bounty Dichterbij HR ¥2,100 ¥75,000
6 februari Tue 16:30 0:30 APL-serie: ¥ 215 Speed Racer Bounty Closer ¥215 ¥50,000
6 februari Tue 16:30 0:30 APL serie: ¥ 2.100 Speed Racer Bounty Dichterbij HR ¥2,100 ¥75,000
6 februari Tue 16:30 0:30 APL-serie: ¥ 215 Speed Racer Bounty Closer ¥215 ¥50,000
7 februari wo 5:00 13:00 APL-serie: ¥ 550 dagelijkse opener ¥550 ¥60,000
7 februari wo 5:00 13:00 APL serie: ¥88 Zodiac Rattenopener ¥88 ¥30,000
7 februari wo 5:00 13:00 APL-serie: ¥ 550 dagelijkse opener ¥550 ¥60,000
7 februari wo 5:00 13:00 APL serie: ¥88 Zodiac Rattenopener ¥88 ¥30,000
7 februari wo 6:00 14:00 APL serie: ¥ 1.100 Deepstack High Roller ¥1,100 ¥80,000
7 februari wo 6:00 14:00 APL-serie: ¥ 330 Zodiac Ox Sterk Stack ¥330 ¥70,000
7 februari wo 6:00 14:00 APL serie: ¥ 1.100 Deepstack High Roller ¥1,100 ¥80,000
7 februari wo 6:00 14:00 APL-serie: ¥ 330 Zodiac Ox Sterk Stack ¥330 ¥70,000
7 februari wo 7:00 16:00 APL Serie: ¥ 1.050 Bounty High Roller ¥1,050 ¥100,000
7 februari wo 7:00 16:00 APL-serie: ¥108 Zodiac Tiger King Bounty ¥108 ¥70,000
7 februari wo 7:00 16:00 APL Serie: ¥ 1.050 Bounty High Roller ¥1,050 ¥100,000
7 februari wo 7:00 16:00 APL-serie: ¥108 Zodiac Tiger King Bounty ¥108 ¥70,000
7 februari wo 8:00 16:00 APL-serie: ¥220 Hold'em Klassieker ¥220 ¥50,000
7 februari wo 8:00 16:00 APL-serie: ¥85.50 Zodiac Konijn Lucky Bounty ¥85.5 ¥50,000
7 februari wo 8:00 16:00 APL-serie: ¥220 Hold'em Klassieker ¥220 ¥50,000
7 februari wo 8:00 16:00 APL-serie: ¥85.50 Zodiac Konijn Lucky Bounty ¥85.5 ¥50,000
7 februari wo 9:00 18:00 APL-serie: ¥80 Hold'em Klassieker ¥80 ¥30,000
7 februari wo 9:00 18:00 APL-serie: ¥800 Zodiac Dragon High Roller ¥800 ¥100,000
7 februari wo 9:00 18:00 APL-serie: ¥80 Hold'em Klassieker ¥80 ¥30,000
7 februari wo 9:00 18:00 APL-serie: ¥800 Zodiac Dragon High Roller ¥800 ¥100,000
7 februari wo 9:30 17:30 APL Series: ¥630 Hold'em Bounty [6-Max] ¥630 ¥120,000
7 februari wo 9:30 17:30 APL serie: ¥64.50 Zodiac Snake Bounty [6-Max] ¥64.5 ¥50,000
7 februari wo 9:30 17:30 APL Series: ¥630 Hold'em Bounty [6-Max] ¥630 ¥120,000
7 februari wo 9:30 17:30 APL serie: ¥64.50 Zodiac Snake Bounty [6-Max] ¥64.5 ¥50,000
7 februari wo 10:00 18:00 APL-serie: ¥1.100 Hold'em Marathon ¥1,100 ¥88,000
7 februari wo 10:00 18:00 APL-serie: ¥110 Zodiac Paardenmarathon ¥110 ¥50,000
7 februari wo 10:00 18:00 APL-serie: ¥1.100 Hold'em Marathon ¥1,100 ¥88,000
7 februari wo 10:00 18:00 APL-serie: ¥110 Zodiac Paardenmarathon ¥110 ¥50,000
7 februari wo 10:30 18:30 APL Series: ¥840 Hold'em Bounty ¥840 ¥125,000
7 februari wo 10:30 18:30 APL-serie: ¥ 85,50 Hold'em Bounty ¥85.5 ¥60,000
7 februari wo 10:30 18:30 APL Series: ¥840 Hold'em Bounty ¥840 ¥125,000
7 februari wo 10:30 18:30 APL-serie: ¥ 85,50 Hold'em Bounty ¥85.5 ¥60,000
7 februari wo 11:00 20:00 APL-serie: ¥ 2.024 Zodiac Geit High Roller ¥2,024 ¥130,000
7 februari wo 11:00 20:00 APL-serie: ¥ 2.024 Zodiac Geit High Roller ¥2,024 ¥130,000
7 februari wo 11:30 19:30 APL serie: ¥ 2.100 Bounty High Roller ¥2,100 ¥130,000
7 februari wo 11:30 19:30 APL-serie: ¥ 215 Zodiac Apenkoning Bounty ¥215 ¥125,000
7 februari wo 11:30 19:30 APL serie: ¥ 2.100 Bounty High Roller ¥2,100 ¥130,000
7 februari wo 11:30 19:30 APL-serie: ¥ 215 Zodiac Apenkoning Bounty ¥215 ¥125,000
7 februari wo 13:00 20:00 APL serie: ¥388 Zodiac Main Event , ¥250K GTD ¥388 ¥300,000
7 februari wo 13:00 20:00 APL serie: ¥388 Zodiac Main Event , ¥250K GTD ¥388 ¥300,000
7 februari wo 13:00 21:00 APL-serie: ¥ 5.500 Deepstack High Roller ¥5,500 ¥200,000
7 februari wo 13:00 21:00 APL Series: ¥550 Hold'em Deepstack ¥550 ¥100,000
7 februari wo 13:00 21:00 APL-serie: ¥50 Zodiac Haan Zonsondergang Speciaal ¥50 ¥35,000
7 februari wo 13:00 21:00 APL-serie: ¥ 5.500 Deepstack High Roller ¥5,500 ¥200,000
7 februari wo 13:00 21:00 APL Series: ¥550 Hold'em Deepstack ¥550 ¥100,000
7 februari wo 13:00 21:00 APL-serie: ¥50 Zodiac Haan Zonsondergang Speciaal ¥50 ¥35,000
7 februari wo 13:10 21:10 APL serie: ¥ 3.150 Short Deck Bounty HR ¥3,150 ¥88,000
7 februari wo 13:10 21:10 APL-serie: ¥ 320 Short Deck Bounty ¥320 ¥25,000
7 februari wo 13:10 21:10 APL serie: ¥ 3.150 Short Deck Bounty HR ¥3,150 ¥88,000
7 februari wo 13:10 21:10 APL-serie: ¥ 320 Short Deck Bounty ¥320 ¥25,000
7 februari wo 13:40 21:40 APL serie: ¥ 5.250 PLO-NL Bounty HR ¥5,250 ¥88,000
7 februari wo 13:40 21:40 APL Serie: ¥530 PLO-NL Bounty ¥530 ¥30,000
7 februari wo 13:40 21:40 APL serie: ¥ 5.250 PLO-NL Bounty HR ¥5,250 ¥88,000
7 februari wo 13:40 21:40 APL Serie: ¥530 PLO-NL Bounty ¥530 ¥30,000
7 februari wo 14:00 23:00 APL Series: ¥1.100 Hold'em Klassieker ¥1,100 ¥100,000
7 februari wo 14:00 23:00 APL serie: ¥110 Zodiac Hond Ultra Deepstack Turbo ¥110 ¥50,000
7 februari wo 14:00 23:00 APL Series: ¥1.100 Hold'em Klassieker ¥1,100 ¥100,000
7 februari wo 14:00 23:00 APL serie: ¥110 Zodiac Hond Ultra Deepstack Turbo ¥110 ¥50,000
7 februari wo 14:10 22:10 APL-serie: 8.000 YEN Short Deck HR [3-Stack] ¥8,000 ¥100,000
7 februari wo 14:10 22:10 APL serie: ¥800 Short Deck [3-Stack] ¥800 ¥25,000
7 februari wo 14:10 22:10 APL-serie: 8.000 YEN Short Deck HR [3-Stack] ¥8,000 ¥100,000
7 februari wo 14:10 22:10 APL serie: ¥800 Short Deck [3-Stack] ¥800 ¥25,000
7 februari wo 14:30 22:30 APL serie: ¥ 3.150 Bounty High Roller ¥3,150 ¥180,000
7 februari wo 14:30 22:30 APL-serie: ¥ 320 Zodiac Varken Bounty Feest ¥320 ¥180,000
7 februari wo 14:30 22:30 APL serie: ¥ 3.150 Bounty High Roller ¥3,150 ¥180,000
7 februari wo 14:30 22:30 APL-serie: ¥ 320 Zodiac Varken Bounty Feest ¥320 ¥180,000
7 februari wo 14:40 22:40 APL-serie: ¥ 1.100 PLO-NL Klassiek ¥1,100 ¥25,000
7 februari wo 14:40 22:40 APL-serie: ¥ 1.100 PLO-NL Klassiek ¥1,100 ¥25,000
7 februari wo 16:00 23:00 APL Serie: ¥5.500 Hoge Roller 6-Max ¥5,500 ¥250,000
7 februari wo 16:00 23:00 APL Series: ¥800 Hold'em 6-Max ¥800 ¥150,000
7 februari wo 16:00 23:00 APL Serie: ¥5.500 Hoge Roller 6-Max ¥5,500 ¥250,000
7 februari wo 16:00 23:00 APL Series: ¥800 Hold'em 6-Max ¥800 ¥150,000
7 februari wo 15:10 23:10 APL serie: ¥ 530 Short Deck Bounty [Turbo] ¥530 ¥30,000
7 februari wo 15:10 23:10 APL serie: ¥ 530 Short Deck Bounty [Turbo] ¥530 ¥30,000
7 februari wo 15:40 23:40 APL Serie: ¥530 PLO-NL Bounty [Turbo] ¥530 ¥30,000
7 februari wo 15:40 23:40 APL Serie: ¥530 PLO-NL Bounty [Turbo] ¥530 ¥30,000
7 februari wo 16:00 0:00 APL serie: ¥330 Midnight Madness [Hyper] ¥330 ¥60,000
7 februari wo 16:00 0:00 APL serie: ¥330 Midnight Madness [Hyper] ¥330 ¥60,000
7 februari wo 16:30 0:30 APL serie: ¥ 2.100 Speed Racer Bounty Dichterbij HR ¥2,100 ¥75,000
7 februari wo 16:30 0:30 APL-serie: ¥ 215 Speed Racer Bounty Closer ¥215 ¥50,000
7 februari wo 16:30 0:30 APL serie: ¥ 2.100 Speed Racer Bounty Dichterbij HR ¥2,100 ¥75,000
7 februari wo 16:30 0:30 APL-serie: ¥ 215 Speed Racer Bounty Closer ¥215 ¥50,000
8 februari Thu 5:00 13:00 APL-serie: ¥ 550 dagelijkse opener ¥550 ¥60,000
8 februari Thu 5:00 13:00 APL serie: ¥88 Zodiac Rattenopener ¥88 ¥30,000
8 februari Thu 5:00 13:00 APL-serie: ¥ 550 dagelijkse opener ¥550 ¥60,000
8 februari Thu 5:00 13:00 APL serie: ¥88 Zodiac Rattenopener ¥88 ¥30,000
8 februari Thu 6:00 14:00 APL serie: ¥ 1.100 Deepstack High Roller ¥1,100 ¥80,000
8 februari Thu 6:00 14:00 APL-serie: ¥ 330 Zodiac Ox Sterk Stack ¥330 ¥70,000
8 februari Thu 6:00 14:00 APL serie: ¥ 1.100 Deepstack High Roller ¥1,100 ¥80,000
8 februari Thu 6:00 14:00 APL-serie: ¥ 330 Zodiac Ox Sterk Stack ¥330 ¥70,000
8 februari Thu 7:00 16:00 APL Serie: ¥ 1.050 Bounty High Roller ¥1,050 ¥100,000
8 februari Thu 7:00 16:00 APL-serie: ¥108 Zodiac Tiger King Bounty ¥108 ¥70,000
8 februari Thu 7:00 16:00 APL Serie: ¥ 1.050 Bounty High Roller ¥1,050 ¥100,000
8 februari Thu 7:00 16:00 APL-serie: ¥108 Zodiac Tiger King Bounty ¥108 ¥70,000
8 februari Thu 8:00 16:00 APL-serie: ¥220 Hold'em Klassieker ¥220 ¥50,000
8 februari Thu 8:00 16:00 APL-serie: ¥85.50 Zodiac Konijn Lucky Bounty ¥85.5 ¥50,000
8 februari Thu 8:00 16:00 APL-serie: ¥220 Hold'em Klassieker ¥220 ¥50,000
8 februari Thu 8:00 16:00 APL-serie: ¥85.50 Zodiac Konijn Lucky Bounty ¥85.5 ¥50,000
8 februari Thu 9:00 18:00 APL-serie: ¥80 Hold'em Klassieker ¥80 ¥30,000
8 februari Thu 9:00 18:00 APL-serie: ¥800 Zodiac Dragon High Roller ¥800 ¥100,000
8 februari Thu 9:00 18:00 APL-serie: ¥80 Hold'em Klassieker ¥80 ¥30,000
8 februari Thu 9:00 18:00 APL-serie: ¥800 Zodiac Dragon High Roller ¥800 ¥100,000
8 februari Thu 9:30 17:30 APL Series: ¥630 Hold'em Bounty [6-Max] ¥630 ¥120,000
8 februari Thu 9:30 17:30 APL serie: ¥64.50 Zodiac Snake Bounty [6-Max] ¥64.5 ¥50,000
8 februari Thu 9:30 17:30 APL Series: ¥630 Hold'em Bounty [6-Max] ¥630 ¥120,000
8 februari Thu 9:30 17:30 APL serie: ¥64.50 Zodiac Snake Bounty [6-Max] ¥64.5 ¥50,000
8 februari Thu 10:00 18:00 APL-serie: ¥1.100 Hold'em Marathon ¥1,100 ¥88,000
8 februari Thu 10:00 18:00 APL-serie: ¥110 Zodiac Paardenmarathon ¥110 ¥50,000
8 februari Thu 10:00 18:00 APL-serie: ¥1.100 Hold'em Marathon ¥1,100 ¥88,000
8 februari Thu 10:00 18:00 APL-serie: ¥110 Zodiac Paardenmarathon ¥110 ¥50,000
8 februari Thu 10:30 18:30 APL Series: ¥840 Hold'em Bounty ¥840 ¥125,000
8 februari Thu 10:30 18:30 APL-serie: ¥ 85,50 Hold'em Bounty ¥85.5 ¥60,000
8 februari Thu 10:30 18:30 APL Series: ¥840 Hold'em Bounty ¥840 ¥125,000
8 februari Thu 10:30 18:30 APL-serie: ¥ 85,50 Hold'em Bounty ¥85.5 ¥60,000
8 februari Thu 11:00 20:00 APL-serie: ¥ 2.024 Zodiac Geit High Roller ¥2,024 ¥130,000
8 februari Thu 11:00 20:00 APL-serie: ¥ 2.024 Zodiac Geit High Roller ¥2,024 ¥130,000
8 februari Thu 11:30 19:30 APL serie: ¥ 2.100 Bounty High Roller ¥2,100 ¥130,000
8 februari Thu 11:30 19:30 APL-serie: ¥ 215 Zodiac Apenkoning Bounty ¥215 ¥125,000
8 februari Thu 11:30 19:30 APL serie: ¥ 2.100 Bounty High Roller ¥2,100 ¥130,000
8 februari Thu 11:30 19:30 APL-serie: ¥ 215 Zodiac Apenkoning Bounty ¥215 ¥125,000
8 februari Thu 13:00 20:00 APL serie: ¥388 Zodiac Main Event , ¥250K GTD ¥388 ¥300,000
8 februari Thu 13:00 20:00 APL serie: ¥388 Zodiac Main Event , ¥250K GTD ¥388 ¥300,000
8 februari Thu 13:00 21:00 APL-serie: ¥ 5.500 Deepstack High Roller ¥5,500 ¥200,000
8 februari Thu 13:00 21:00 APL Series: ¥550 Hold'em Deepstack ¥550 ¥100,000
8 februari Thu 13:00 21:00 APL-serie: ¥50 Zodiac Haan Zonsondergang Speciaal ¥50 ¥35,000
8 februari Thu 13:00 21:00 APL-serie: ¥ 5.500 Deepstack High Roller ¥5,500 ¥200,000
8 februari Thu 13:00 21:00 APL Series: ¥550 Hold'em Deepstack ¥550 ¥100,000
8 februari Thu 13:00 21:00 APL-serie: ¥50 Zodiac Haan Zonsondergang Speciaal ¥50 ¥35,000
8 februari Thu 13:10 21:10 APL serie: ¥ 3.150 Short Deck Bounty HR ¥3,150 ¥88,000
8 februari Thu 13:10 21:10 APL-serie: ¥ 320 Short Deck Bounty ¥320 ¥25,000
8 februari Thu 13:10 21:10 APL serie: ¥ 3.150 Short Deck Bounty HR ¥3,150 ¥88,000
8 februari Thu 13:10 21:10 APL-serie: ¥ 320 Short Deck Bounty ¥320 ¥25,000
8 februari Thu 13:40 21:40 APL serie: ¥ 5.250 PLO-NL Bounty HR ¥5,250 ¥88,000
8 februari Thu 13:40 21:40 APL Serie: ¥530 PLO-NL Bounty ¥530 ¥30,000
8 februari Thu 13:40 21:40 APL serie: ¥ 5.250 PLO-NL Bounty HR ¥5,250 ¥88,000
8 februari Thu 13:40 21:40 APL Serie: ¥530 PLO-NL Bounty ¥530 ¥30,000
8 februari Thu 14:00 23:00 APL Series: ¥1.100 Hold'em Klassieker ¥1,100 ¥100,000
8 februari Thu 14:00 23:00 APL serie: ¥110 Zodiac Hond Ultra Deepstack Turbo ¥110 ¥50,000
8 februari Thu 14:00 23:00 APL Series: ¥1.100 Hold'em Klassieker ¥1,100 ¥100,000
8 februari Thu 14:00 23:00 APL serie: ¥110 Zodiac Hond Ultra Deepstack Turbo ¥110 ¥50,000
8 februari Thu 14:10 22:10 APL-serie: 8.000 YEN Short Deck HR [3-Stack] ¥8,000 ¥100,000
8 februari Thu 14:10 22:10 APL serie: ¥800 Short Deck [3-Stack] ¥800 ¥25,000
8 februari Thu 14:10 22:10 APL-serie: 8.000 YEN Short Deck HR [3-Stack] ¥8,000 ¥100,000
8 februari Thu 14:10 22:10 APL serie: ¥800 Short Deck [3-Stack] ¥800 ¥25,000
8 februari Thu 14:30 22:30 APL serie: ¥ 3.150 Bounty High Roller ¥3,150 ¥180,000
8 februari Thu 14:30 22:30 APL-serie: ¥ 320 Zodiac Varken Bounty Feest ¥320 ¥180,000
8 februari Thu 14:30 22:30 APL serie: ¥ 3.150 Bounty High Roller ¥3,150 ¥180,000
8 februari Thu 14:30 22:30 APL-serie: ¥ 320 Zodiac Varken Bounty Feest ¥320 ¥180,000
8 februari Thu 14:40 22:40 APL-serie: ¥ 1.100 PLO-NL Klassiek ¥1,100 ¥25,000
8 februari Thu 14:40 22:40 APL-serie: ¥ 1.100 PLO-NL Klassiek ¥1,100 ¥25,000
8 februari Thu 16:00 23:00 APL Serie: ¥5.500 Hoge Roller 6-Max ¥5,500 ¥250,000
8 februari Thu 16:00 23:00 APL Series: ¥800 Hold'em 6-Max ¥800 ¥150,000
8 februari Thu 16:00 23:00 APL Serie: ¥5.500 Hoge Roller 6-Max ¥5,500 ¥250,000
8 februari Thu 16:00 23:00 APL Series: ¥800 Hold'em 6-Max ¥800 ¥150,000
8 februari Thu 15:10 23:10 APL serie: ¥ 530 Short Deck Bounty [Turbo] ¥530 ¥30,000
8 februari Thu 15:10 23:10 APL serie: ¥ 530 Short Deck Bounty [Turbo] ¥530 ¥30,000
8 februari Thu 15:40 23:40 APL Serie: ¥530 PLO-NL Bounty [Turbo] ¥530 ¥30,000
8 februari Thu 15:40 23:40 APL Serie: ¥530 PLO-NL Bounty [Turbo] ¥530 ¥30,000
8 februari Thu 16:00 0:00 APL serie: ¥330 Midnight Madness [Hyper] ¥330 ¥60,000
8 februari Thu 16:00 0:00 APL serie: ¥330 Midnight Madness [Hyper] ¥330 ¥60,000
8 februari Thu 16:30 0:30 APL serie: ¥ 2.100 Speed Racer Bounty Dichterbij HR ¥2,100 ¥75,000
8 februari Thu 16:30 0:30 APL-serie: ¥ 215 Speed Racer Bounty Closer ¥215 ¥50,000
8 februari Thu 16:30 0:30 APL serie: ¥ 2.100 Speed Racer Bounty Dichterbij HR ¥2,100 ¥75,000
8 februari Thu 16:30 0:30 APL-serie: ¥ 215 Speed Racer Bounty Closer ¥215 ¥50,000
9 februari vr 5:00 13:00 APL-serie: ¥ 550 dagelijkse opener ¥550 ¥60,000
9 februari vr 5:00 13:00 APL serie: ¥88 Zodiac Rattenopener ¥88 ¥30,000
9 februari vr 5:00 13:00 APL-serie: ¥ 550 dagelijkse opener ¥550 ¥60,000
9 februari vr 5:00 13:00 APL serie: ¥88 Zodiac Rattenopener ¥88 ¥30,000
9 februari vr 6:00 14:00 APL serie: ¥ 1.100 Deepstack High Roller ¥1,100 ¥80,000
9 februari vr 6:00 14:00 APL-serie: ¥ 330 Zodiac Ox Sterk Stack ¥330 ¥70,000
9 februari vr 6:00 14:00 APL serie: ¥ 1.100 Deepstack High Roller ¥1,100 ¥80,000
9 februari vr 6:00 14:00 APL-serie: ¥ 330 Zodiac Ox Sterk Stack ¥330 ¥70,000
9 februari vr 7:00 16:00 APL Serie: ¥ 1.050 Bounty High Roller ¥1,050 ¥100,000
9 februari vr 7:00 16:00 APL-serie: ¥108 Zodiac Tiger King Bounty ¥108 ¥70,000
9 februari vr 7:00 16:00 APL Serie: ¥ 1.050 Bounty High Roller ¥1,050 ¥100,000
9 februari vr 7:00 16:00 APL-serie: ¥108 Zodiac Tiger King Bounty ¥108 ¥70,000
9 februari vr 8:00 16:00 APL-serie: ¥220 Hold'em Klassieker ¥220 ¥50,000
9 februari vr 8:00 16:00 APL-serie: ¥85.50 Zodiac Konijn Lucky Bounty ¥85.5 ¥50,000
9 februari vr 8:00 16:00 APL-serie: ¥220 Hold'em Klassieker ¥220 ¥50,000
9 februari vr 8:00 16:00 APL-serie: ¥85.50 Zodiac Konijn Lucky Bounty ¥85.5 ¥50,000
9 februari vr 9:00 18:00 APL-serie: ¥80 Hold'em Klassieker ¥80 ¥30,000
9 februari vr 9:00 18:00 APL-serie: ¥800 Zodiac Dragon High Roller ¥800 ¥100,000
9 februari vr 9:00 18:00 APL-serie: ¥80 Hold'em Klassieker ¥80 ¥30,000
9 februari vr 9:00 18:00 APL-serie: ¥800 Zodiac Dragon High Roller ¥800 ¥100,000
9 februari vr 9:30 17:30 APL Series: ¥630 Hold'em Bounty [6-Max] ¥630 ¥120,000
9 februari vr 9:30 17:30 APL serie: ¥64.50 Zodiac Snake Bounty [6-Max] ¥64.5 ¥50,000
9 februari vr 9:30 17:30 APL Series: ¥630 Hold'em Bounty [6-Max] ¥630 ¥120,000
9 februari vr 9:30 17:30 APL serie: ¥64.50 Zodiac Snake Bounty [6-Max] ¥64.5 ¥50,000
9 februari vr 10:00 18:00 APL-serie: ¥1.100 Hold'em Marathon ¥1,100 ¥88,000
9 februari vr 10:00 18:00 APL-serie: ¥110 Zodiac Paardenmarathon ¥110 ¥50,000
9 februari vr 10:00 18:00 APL-serie: ¥1.100 Hold'em Marathon ¥1,100 ¥88,000
9 februari vr 10:00 18:00 APL-serie: ¥110 Zodiac Paardenmarathon ¥110 ¥50,000
9 februari vr 10:30 18:30 APL Series: ¥840 Hold'em Bounty ¥840 ¥125,000
9 februari vr 10:30 18:30 APL-serie: ¥ 85,50 Hold'em Bounty ¥85.5 ¥60,000
9 februari vr 10:30 18:30 APL Series: ¥840 Hold'em Bounty ¥840 ¥125,000
9 februari vr 10:30 18:30 APL-serie: ¥ 85,50 Hold'em Bounty ¥85.5 ¥60,000
9 februari vr 11:00 20:00 APL-serie: ¥ 2.024 Zodiac Geit High Roller ¥2,024 ¥130,000
9 februari vr 11:00 20:00 APL-serie: ¥ 2.024 Zodiac Geit High Roller ¥2,024 ¥130,000
9 februari vr 11:30 19:30 APL serie: ¥ 2.100 Bounty High Roller ¥2,100 ¥130,000
9 februari vr 11:30 19:30 APL-serie: ¥ 215 Zodiac Apenkoning Bounty ¥215 ¥125,000
9 februari vr 11:30 19:30 APL serie: ¥ 2.100 Bounty High Roller ¥2,100 ¥130,000
9 februari vr 11:30 19:30 APL-serie: ¥ 215 Zodiac Apenkoning Bounty ¥215 ¥125,000
9 februari vr 13:00 20:00 APL serie: ¥388 Zodiac Main Event , ¥250K GTD ¥388 ¥300,000
9 februari vr 13:00 20:00 APL serie: ¥388 Zodiac Main Event , ¥250K GTD ¥388 ¥300,000
9 februari vr 13:00 21:00 APL-serie: ¥ 5.500 Deepstack High Roller ¥5,500 ¥200,000
9 februari vr 13:00 21:00 APL Series: ¥550 Hold'em Deepstack ¥550 ¥100,000
9 februari vr 13:00 21:00 APL-serie: ¥50 Zodiac Haan Zonsondergang Speciaal ¥50 ¥35,000
9 februari vr 13:00 21:00 APL-serie: ¥ 5.500 Deepstack High Roller ¥5,500 ¥200,000
9 februari vr 13:00 21:00 APL Series: ¥550 Hold'em Deepstack ¥550 ¥100,000
9 februari vr 13:00 21:00 APL-serie: ¥50 Zodiac Haan Zonsondergang Speciaal ¥50 ¥35,000
9 februari vr 13:10 21:10 APL serie: ¥ 3.150 Short Deck Bounty HR ¥3,150 ¥88,000
9 februari vr 13:10 21:10 APL-serie: ¥ 320 Short Deck Bounty ¥320 ¥25,000
9 februari vr 13:10 21:10 APL serie: ¥ 3.150 Short Deck Bounty HR ¥3,150 ¥88,000
9 februari vr 13:10 21:10 APL-serie: ¥ 320 Short Deck Bounty ¥320 ¥25,000
9 februari vr 13:40 21:40 APL serie: ¥ 5.250 PLO-NL Bounty HR ¥5,250 ¥88,000
9 februari vr 13:40 21:40 APL Serie: ¥530 PLO-NL Bounty ¥530 ¥30,000
9 februari vr 13:40 21:40 APL serie: ¥ 5.250 PLO-NL Bounty HR ¥5,250 ¥88,000
9 februari vr 13:40 21:40 APL Serie: ¥530 PLO-NL Bounty ¥530 ¥30,000
9 februari vr 14:00 23:00 APL Series: ¥1.100 Hold'em Klassieker ¥1,100 ¥100,000
9 februari vr 14:00 23:00 APL serie: ¥110 Zodiac Hond Ultra Deepstack Turbo ¥110 ¥50,000
9 februari vr 14:00 23:00 APL Series: ¥1.100 Hold'em Klassieker ¥1,100 ¥100,000
9 februari vr 14:00 23:00 APL serie: ¥110 Zodiac Hond Ultra Deepstack Turbo ¥110 ¥50,000
9 februari vr 14:10 22:10 APL-serie: 8.000 YEN Short Deck HR [3-Stack] ¥8,000 ¥100,000
9 februari vr 14:10 22:10 APL serie: ¥800 Short Deck [3-Stack] ¥800 ¥25,000
9 februari vr 14:10 22:10 APL-serie: 8.000 YEN Short Deck HR [3-Stack] ¥8,000 ¥100,000
9 februari vr 14:10 22:10 APL serie: ¥800 Short Deck [3-Stack] ¥800 ¥25,000
9 februari vr 14:30 22:30 APL serie: ¥ 3.150 Bounty High Roller ¥3,150 ¥180,000
9 februari vr 14:30 22:30 APL-serie: ¥ 320 Zodiac Varken Bounty Feest ¥320 ¥180,000
9 februari vr 14:30 22:30 APL serie: ¥ 3.150 Bounty High Roller ¥3,150 ¥180,000
9 februari vr 14:30 22:30 APL-serie: ¥ 320 Zodiac Varken Bounty Feest ¥320 ¥180,000
9 februari vr 14:40 22:40 APL-serie: ¥ 1.100 PLO-NL Klassiek ¥1,100 ¥25,000
9 februari vr 14:40 22:40 APL-serie: ¥ 1.100 PLO-NL Klassiek ¥1,100 ¥25,000
9 februari vr 16:00 23:00 APL Serie: ¥5.500 Hoge Roller 6-Max ¥5,500 ¥250,000
9 februari vr 16:00 23:00 APL Series: ¥800 Hold'em 6-Max ¥800 ¥150,000
9 februari vr 16:00 23:00 APL Serie: ¥5.500 Hoge Roller 6-Max ¥5,500 ¥250,000
9 februari vr 16:00 23:00 APL Series: ¥800 Hold'em 6-Max ¥800 ¥150,000
9 februari vr 15:10 23:10 APL serie: ¥ 530 Short Deck Bounty [Turbo] ¥530 ¥30,000
9 februari vr 15:10 23:10 APL serie: ¥ 530 Short Deck Bounty [Turbo] ¥530 ¥30,000
9 februari vr 15:40 23:40 APL Serie: ¥530 PLO-NL Bounty [Turbo] ¥530 ¥30,000
9 februari vr 15:40 23:40 APL Serie: ¥530 PLO-NL Bounty [Turbo] ¥530 ¥30,000
9 februari vr 16:00 0:00 APL serie: ¥330 Midnight Madness [Hyper] ¥330 ¥60,000
9 februari vr 16:00 0:00 APL serie: ¥330 Midnight Madness [Hyper] ¥330 ¥60,000
9 februari vr 16:30 0:30 APL serie: ¥ 2.100 Speed Racer Bounty Dichterbij HR ¥2,100 ¥75,000
9 februari vr 16:30 0:30 APL-serie: ¥ 215 Speed Racer Bounty Closer ¥215 ¥50,000
9 februari vr 16:30 0:30 APL serie: ¥ 2.100 Speed Racer Bounty Dichterbij HR ¥2,100 ¥75,000
9 februari vr 16:30 0:30 APL-serie: ¥ 215 Speed Racer Bounty Closer ¥215 ¥50,000
10 februari Zat 5:00 13:00 APL-serie: ¥ 550 dagelijkse opener ¥550 ¥60,000
10 februari Zat 5:00 13:00 APL serie: ¥88 Zodiac Rattenopener ¥88 ¥30,000
10 februari Zat 5:00 13:00 APL-serie: ¥ 550 dagelijkse opener ¥550 ¥60,000
10 februari Zat 5:00 13:00 APL serie: ¥88 Zodiac Rattenopener ¥88 ¥30,000
10 februari Zat 6:00 14:00 APL serie: ¥ 1.100 Deepstack High Roller ¥1,100 ¥80,000
10 februari Zat 6:00 14:00 APL-serie: ¥ 330 Zodiac Ox Sterk Stack ¥330 ¥70,000
10 februari Zat 6:00 14:00 APL serie: ¥ 1.100 Deepstack High Roller ¥1,100 ¥80,000
10 februari Zat 6:00 14:00 APL-serie: ¥ 330 Zodiac Ox Sterk Stack ¥330 ¥70,000
10 februari Zat 7:00 16:00 APL Serie: ¥ 1.050 Bounty High Roller ¥1,050 ¥100,000
10 februari Zat 7:00 16:00 APL-serie: ¥108 Zodiac Tiger King Bounty ¥108 ¥70,000
10 februari Zat 7:00 16:00 APL Serie: ¥ 1.050 Bounty High Roller ¥1,050 ¥100,000
10 februari Zat 7:00 16:00 APL-serie: ¥108 Zodiac Tiger King Bounty ¥108 ¥70,000
10 februari Zat 8:00 16:00 APL-serie: ¥220 Hold'em Klassieker ¥220 ¥50,000
10 februari Zat 8:00 16:00 APL-serie: ¥85.50 Zodiac Konijn Lucky Bounty ¥85.5 ¥50,000
10 februari Zat 8:00 16:00 APL-serie: ¥220 Hold'em Klassieker ¥220 ¥50,000
10 februari Zat 8:00 16:00 APL-serie: ¥85.50 Zodiac Konijn Lucky Bounty ¥85.5 ¥50,000
10 februari Zat 9:00 18:00 APL-serie: ¥80 Hold'em Klassieker ¥80 ¥30,000
10 februari Zat 9:00 18:00 APL-serie: ¥800 Zodiac Dragon High Roller ¥800 ¥100,000
10 februari Zat 9:00 18:00 APL-serie: ¥80 Hold'em Klassieker ¥80 ¥30,000
10 februari Zat 9:00 18:00 APL-serie: ¥800 Zodiac Dragon High Roller ¥800 ¥100,000
10 februari Zat 9:30 17:30 APL Series: ¥630 Hold'em Bounty [6-Max] ¥630 ¥120,000
10 februari Zat 9:30 17:30 APL serie: ¥64.50 Zodiac Snake Bounty [6-Max] ¥64.5 ¥50,000
10 februari Zat 9:30 17:30 APL Series: ¥630 Hold'em Bounty [6-Max] ¥630 ¥120,000
10 februari Zat 9:30 17:30 APL serie: ¥64.50 Zodiac Snake Bounty [6-Max] ¥64.5 ¥50,000
10 februari Zat 10:00 18:00 APL-serie: ¥1.100 Hold'em Marathon ¥1,100 ¥88,000
10 februari Zat 10:00 18:00 APL-serie: ¥110 Zodiac Paardenmarathon ¥110 ¥50,000
10 februari Zat 10:00 18:00 APL-serie: ¥1.100 Hold'em Marathon ¥1,100 ¥88,000
10 februari Zat 10:00 18:00 APL-serie: ¥110 Zodiac Paardenmarathon ¥110 ¥50,000
10 februari Zat 10:30 18:30 APL Series: ¥840 Hold'em Bounty ¥840 ¥125,000
10 februari Zat 10:30 18:30 APL-serie: ¥ 85,50 Hold'em Bounty ¥85.5 ¥60,000
10 februari Zat 10:30 18:30 APL Series: ¥840 Hold'em Bounty ¥840 ¥125,000
10 februari Zat 10:30 18:30 APL-serie: ¥ 85,50 Hold'em Bounty ¥85.5 ¥60,000
10 februari Zat 11:00 20:00 APL-serie: ¥ 2.024 Zodiac Geit High Roller ¥2,024 ¥130,000
10 februari Zat 11:00 20:00 APL-serie: ¥ 2.024 Zodiac Geit High Roller ¥2,024 ¥130,000
10 februari Zat 11:30 19:30 APL serie: ¥ 2.100 Bounty High Roller ¥2,100 ¥130,000
10 februari Zat 11:30 19:30 APL-serie: ¥ 215 Zodiac Apenkoning Bounty ¥215 ¥125,000
10 februari Zat 11:30 19:30 APL serie: ¥ 2.100 Bounty High Roller ¥2,100 ¥130,000
10 februari Zat 11:30 19:30 APL-serie: ¥ 215 Zodiac Apenkoning Bounty ¥215 ¥125,000
10 februari Zat 13:00 20:00 APL serie: ¥388 Zodiac Main Event , ¥250K GTD ¥388 ¥300,000
10 februari Zat 13:00 20:00 APL serie: ¥388 Zodiac Main Event , ¥250K GTD ¥388 ¥300,000
10 februari Zat 13:00 21:00 APL-serie: ¥ 5.500 Deepstack High Roller ¥5,500 ¥200,000
10 februari Zat 13:00 21:00 APL Series: ¥550 Hold'em Deepstack ¥550 ¥100,000
10 februari Zat 13:00 21:00 APL-serie: ¥50 Zodiac Haan Zonsondergang Speciaal ¥50 ¥35,000
10 februari Zat 13:00 21:00 APL-serie: ¥ 5.500 Deepstack High Roller ¥5,500 ¥200,000
10 februari Zat 13:00 21:00 APL Series: ¥550 Hold'em Deepstack ¥550 ¥100,000
10 februari Zat 13:00 21:00 APL-serie: ¥50 Zodiac Haan Zonsondergang Speciaal ¥50 ¥35,000
10 februari Zat 13:10 21:10 APL serie: ¥ 3.150 Short Deck Bounty HR ¥3,150 ¥88,000
10 februari Zat 13:10 21:10 APL-serie: ¥ 320 Short Deck Bounty ¥320 ¥25,000
10 februari Zat 13:10 21:10 APL serie: ¥ 3.150 Short Deck Bounty HR ¥3,150 ¥88,000
10 februari Zat 13:10 21:10 APL-serie: ¥ 320 Short Deck Bounty ¥320 ¥25,000
10 februari Zat 13:40 21:40 APL serie: ¥ 5.250 PLO-NL Bounty HR ¥5,250 ¥88,000
10 februari Zat 13:40 21:40 APL Serie: ¥530 PLO-NL Bounty ¥530 ¥30,000
10 februari Zat 13:40 21:40 APL serie: ¥ 5.250 PLO-NL Bounty HR ¥5,250 ¥88,000
10 februari Zat 13:40 21:40 APL Serie: ¥530 PLO-NL Bounty ¥530 ¥30,000
10 februari Zat 14:00 23:00 APL Series: ¥1.100 Hold'em Klassieker ¥1,100 ¥100,000
10 februari Zat 14:00 23:00 APL serie: ¥110 Zodiac Hond Ultra Deepstack Turbo ¥110 ¥50,000
10 februari Zat 14:00 23:00 APL Series: ¥1.100 Hold'em Klassieker ¥1,100 ¥100,000
10 februari Zat 14:00 23:00 APL serie: ¥110 Zodiac Hond Ultra Deepstack Turbo ¥110 ¥50,000
10 februari Zat 14:10 22:10 APL-serie: 8.000 YEN Short Deck HR [3-Stack] ¥8,000 ¥100,000
10 februari Zat 14:10 22:10 APL serie: ¥800 Short Deck [3-Stack] ¥800 ¥25,000
10 februari Zat 14:10 22:10 APL-serie: 8.000 YEN Short Deck HR [3-Stack] ¥8,000 ¥100,000
10 februari Zat 14:10 22:10 APL serie: ¥800 Short Deck [3-Stack] ¥800 ¥25,000
10 februari Zat 14:30 22:30 APL serie: ¥ 3.150 Bounty High Roller ¥3,150 ¥180,000
10 februari Zat 14:30 22:30 APL-serie: ¥ 320 Zodiac Varken Bounty Feest ¥320 ¥180,000
10 februari Zat 14:30 22:30 APL serie: ¥ 3.150 Bounty High Roller ¥3,150 ¥180,000
10 februari Zat 14:30 22:30 APL-serie: ¥ 320 Zodiac Varken Bounty Feest ¥320 ¥180,000
10 februari Zat 14:40 22:40 APL-serie: ¥ 1.100 PLO-NL Klassiek ¥1,100 ¥25,000
10 februari Zat 14:40 22:40 APL-serie: ¥ 1.100 PLO-NL Klassiek ¥1,100 ¥25,000
10 februari Zat 16:00 23:00 APL Serie: ¥5.500 Hoge Roller 6-Max ¥5,500 ¥250,000
10 februari Zat 16:00 23:00 APL Series: ¥800 Hold'em 6-Max ¥800 ¥150,000
10 februari Zat 16:00 23:00 APL Serie: ¥5.500 Hoge Roller 6-Max ¥5,500 ¥250,000
10 februari Zat 16:00 23:00 APL Series: ¥800 Hold'em 6-Max ¥800 ¥150,000
10 februari Zat 15:10 23:10 APL serie: ¥ 530 Short Deck Bounty [Turbo] ¥530 ¥30,000
10 februari Zat 15:10 23:10 APL serie: ¥ 530 Short Deck Bounty [Turbo] ¥530 ¥30,000
10 februari Zat 15:40 23:40 APL Serie: ¥530 PLO-NL Bounty [Turbo] ¥530 ¥30,000
10 februari Zat 15:40 23:40 APL Serie: ¥530 PLO-NL Bounty [Turbo] ¥530 ¥30,000
10 februari Zat 16:00 0:00 APL serie: ¥330 Midnight Madness [Hyper] ¥330 ¥60,000
10 februari Zat 16:00 0:00 APL serie: ¥330 Midnight Madness [Hyper] ¥330 ¥60,000
10 februari Zat 16:30 0:30 APL serie: ¥ 2.100 Speed Racer Bounty Dichterbij HR ¥2,100 ¥75,000
10 februari Zat 16:30 0:30 APL-serie: ¥ 215 Speed Racer Bounty Closer ¥215 ¥50,000
10 februari Zat 16:30 0:30 APL serie: ¥ 2.100 Speed Racer Bounty Dichterbij HR ¥2,100 ¥75,000
10 februari Zat 16:30 0:30 APL-serie: ¥ 215 Speed Racer Bounty Closer ¥215 ¥50,000
11 feb Zon 5:00 13:00 APL-serie: ¥550 zondagopener ¥550 ¥60,000
11 feb Zon 5:00 13:00 APL serie: ¥88 Zodiac Rattenopener ¥88 ¥30,000
11 feb Zon 6:00 14:00 APL Series: ¥1.100 Sunday High Roller Deepstack ¥1,100 ¥88,000
11 feb Zon 6:00 14:00 APL-serie: ¥ 330 Zodiac Ox Sterk Stack ¥330 ¥60,000
11 feb Zon 7:00 16:00 APL Series: ¥1.050 Sunday High Roller Bounty ¥1,050 ¥88,000
11 feb Zon 7:00 16:00 APL-serie: ¥108 Zodiac Tiger King Bounty ¥108 ¥70,000
11 feb Zon 8:00 16:00 APL-serie: ¥220 Zondagsklassieker ¥220 ¥50,000
11 feb Zon 8:00 16:00 APL-serie: ¥85.50 Zodiac Konijn Lucky Bounty ¥85.5 ¥60,000
11 feb Zon 9:00 18:00 APL-serie: ¥ 80 Zondagsklassieker ¥80 ¥35,000
11 feb Zon 9:00 18:00 APL-serie: ¥800 Zodiac Dragon High Roller ¥800 ¥150,000
11 feb Zon 9:30 17:30 APL serie: ¥ 630 zondag premie [6-Max] ¥630 ¥150,000
11 feb Zon 9:30 17:30 APL serie: ¥64.50 Zodiac Snake Bounty [6-Max] ¥64.5 ¥60,000
11 feb Zon 10:00 18:00 APL-serie: ¥ 1.100 Zondag Marathon ¥1,100 ¥200,000
11 feb Zon 10:00 18:00 APL-serie: ¥110 Zodiac Paardenmarathon ¥110 ¥70,000
11 feb Zon 10:30 18:30 APL serie: 840¥ Zondag Bounty ¥840 ¥200,000
11 feb Zon 10:30 18:30 APL-serie: ¥85.50 Zondag Bounty ¥85.5 ¥100,000
11 feb Zon 11:00 20:00 APL-serie: ¥220 Zondagsklassieker ¥220 ¥125,000
11 feb Zon 11:00 20:00 APL-serie: ¥ 2.024 Zodiac Geit High Roller ¥2,024 ¥388,000
11 feb Zon 11:30 19:30 APL Series: ¥ 2.100 Sunday High Roller Bounty ¥2,100 ¥388,000
11 feb Zon 11:30 19:30 APL-serie: ¥ 215 Zodiac Apenkoning Bounty ¥215 ¥188,000
11 feb Zon 13:00 20:00 APL serie: ¥388 Zodiac Main Event , ¥500K GTD ¥388 ¥700,000
11 feb Zon 13:00 21:00 APL Series: ¥ 550 zondag Deepstack ¥550 ¥300,000
11 feb Zon 13:00 21:00 APL-serie: ¥ 10.300 zondag HR Main Event ¥10,300 ¥1,000,000
11 feb Zon 13:00 21:00 APL-serie: ¥50 Zodiac Haan Zonsondergang Speciaal ¥50 ¥60,000
11 feb Zon 13:10 21:10 APL serie: ¥ 3.150 Short Deck Bounty HR ¥3,150 ¥125,000
11 feb Zon 13:10 21:10 APL-serie: ¥ 320 Short Deck Bounty ¥320 ¥50,000
11 feb Zon 13:40 21:40 APL serie: ¥ 5.250 PLO-NL Bounty HR ¥5,250 ¥150,000
11 feb Zon 13:40 21:40 APL Serie: ¥530 PLO-NL Bounty ¥530 ¥60,000
11 feb Zon 14:00 23:00 APL-serie: ¥ 1.100 Zondagsklassieker ¥1,100 ¥388,000
11 feb Zon 14:00 23:00 APL serie: ¥110 Zodiac Hond Ultra Deepstack Turbo ¥110 ¥80,000
11 feb Zon 14:10 22:10 APL-serie: 8.000 YEN Short Deck HR [3-Stack] ¥8,000 ¥188,000
11 feb Zon 14:10 22:10 APL serie: ¥800 Short Deck [3-Stack] ¥800 ¥50,000
11 feb Zon 14:30 22:30 APL Series: ¥ 3.150 Sunday High Roller Bounty ¥3,150 ¥600,000
11 feb Zon 14:30 22:30 APL-serie: ¥ 320 Zodiac Varken Bounty Feest ¥320 ¥388,000
11 feb Zon 14:40 22:40 APL-serie: ¥ 1.100 PLO-NL Klassiek ¥1,100 ¥60,000
11 feb Zon 16:00 23:00 APL-serie: ¥800 zondag 6-Max ¥800 ¥388,000
11 feb Zon 16:00 23:00 APL Series: ¥5.500 Sunday High Roller 6-Max ¥5,500 ¥700,000
11 feb Zon 16:00 23:00 APL serie: ¥ 25.500 zondag SHR ¥25,500 ¥1,000,000
11 feb Zon 15:10 23:10 APL serie: ¥ 5.250 Short Deck Bounty HR ¥5,250 ¥200,000
11 feb Zon 15:10 23:10 APL serie: ¥ 530 Short Deck Bounty [Turbo] ¥530 ¥50,000
11 feb Zon 15:40 23:40 APL Serie: ¥5.250 PLO-NL Bounty High Roller ¥5,250 ¥200,000
11 feb Zon 15:40 23:40 APL Serie: ¥530 PLO-NL Bounty [Turbo] ¥530 ¥50,000
11 feb Zon 16:00 0:00 APL serie: 51.000¥ Zondag Ultra HR ¥51,000 ¥1,000,000
11 feb Zon 16:00 0:00 APL serie: ¥330 Midnight Madness [Hyper] ¥330 ¥150,000
11 feb Zon 16:30 0:30 APL serie: ¥ 2.100 Speed Racer Bounty Dichterbij HR ¥2,100 ¥100,000
11 feb Zon 16:40 0:40 APL-serie: ¥ 1.100 PLO-NL Hundred Stack ¥1,100 ¥80,000
11 feb Zon 16:40 0:40 APL serie: ¥ 10.300 PLO-NL Honderd Stack HR ¥10,300 ¥200,000
12 feb Maa 5:00 13:00 APL-serie: ¥ 550 dagelijkse opener ¥550 ¥60,000
12 feb Maa 5:00 13:00 APL serie: ¥88 Zodiac Rattenopener ¥88 ¥30,000
12 feb Maa 5:00 13:00 APL-serie: ¥ 550 dagelijkse opener ¥550 ¥60,000
12 feb Maa 5:00 13:00 APL serie: ¥88 Zodiac Rattenopener ¥88 ¥30,000
12 feb Maa 6:00 14:00 APL serie: ¥ 1.100 Deepstack High Roller ¥1,100 ¥80,000
12 feb Maa 6:00 14:00 APL-serie: ¥ 330 Zodiac Ox Sterk Stack ¥330 ¥70,000
12 feb Maa 6:00 14:00 APL serie: ¥ 1.100 Deepstack High Roller ¥1,100 ¥80,000
12 feb Maa 6:00 14:00 APL-serie: ¥ 330 Zodiac Ox Sterk Stack ¥330 ¥70,000
12 feb Maa 7:00 16:00 APL Serie: ¥ 1.050 Bounty High Roller ¥1,050 ¥100,000
12 feb Maa 7:00 16:00 APL-serie: ¥108 Zodiac Tiger King Bounty ¥108 ¥70,000
12 feb Maa 7:00 16:00 APL Serie: ¥ 1.050 Bounty High Roller ¥1,050 ¥100,000
12 feb Maa 7:00 16:00 APL-serie: ¥108 Zodiac Tiger King Bounty ¥108 ¥70,000
12 feb Maa 8:00 16:00 APL-serie: ¥220 Hold'em Klassieker ¥220 ¥50,000
12 feb Maa 8:00 16:00 APL-serie: ¥85.50 Zodiac Konijn Lucky Bounty ¥85.5 ¥50,000
12 feb Maa 8:00 16:00 APL-serie: ¥220 Hold'em Klassieker ¥220 ¥50,000
12 feb Maa 8:00 16:00 APL-serie: ¥85.50 Zodiac Konijn Lucky Bounty ¥85.5 ¥50,000
12 feb Maa 9:00 18:00 APL-serie: ¥80 Hold'em Klassieker ¥80 ¥30,000
12 feb Maa 9:00 18:00 APL-serie: ¥800 Zodiac Dragon High Roller ¥800 ¥100,000
12 feb Maa 9:00 18:00 APL-serie: ¥80 Hold'em Klassieker ¥80 ¥30,000
12 feb Maa 9:00 18:00 APL-serie: ¥800 Zodiac Dragon High Roller ¥800 ¥100,000
12 feb Maa 9:30 17:30 APL Series: ¥630 Hold'em Bounty [6-Max] ¥630 ¥120,000
12 feb Maa 9:30 17:30 APL serie: ¥64.50 Zodiac Snake Bounty [6-Max] ¥64.5 ¥50,000
12 feb Maa 9:30 17:30 APL Series: ¥630 Hold'em Bounty [6-Max] ¥630 ¥120,000
12 feb Maa 9:30 17:30 APL serie: ¥64.50 Zodiac Snake Bounty [6-Max] ¥64.5 ¥50,000
12 feb Maa 10:00 18:00 APL-serie: ¥1.100 Hold'em Marathon ¥1,100 ¥88,000
12 feb Maa 10:00 18:00 APL-serie: ¥110 Zodiac Paardenmarathon ¥110 ¥50,000
12 feb Maa 10:00 18:00 APL-serie: ¥1.100 Hold'em Marathon ¥1,100 ¥88,000
12 feb Maa 10:00 18:00 APL-serie: ¥110 Zodiac Paardenmarathon ¥110 ¥50,000
12 feb Maa 10:30 18:30 APL Series: ¥840 Hold'em Bounty ¥840 ¥125,000
12 feb Maa 10:30 18:30 APL-serie: ¥ 85,50 Hold'em Bounty ¥85.5 ¥60,000
12 feb Maa 10:30 18:30 APL Series: ¥840 Hold'em Bounty ¥840 ¥125,000
12 feb Maa 10:30 18:30 APL-serie: ¥ 85,50 Hold'em Bounty ¥85.5 ¥60,000
12 feb Maa 11:00 20:00 APL-serie: ¥ 2.024 Zodiac Geit High Roller ¥2,024 ¥130,000
12 feb Maa 11:00 20:00 APL-serie: ¥ 2.024 Zodiac Geit High Roller ¥2,024 ¥130,000
12 feb Maa 11:30 19:30 APL serie: ¥ 2.100 Bounty High Roller ¥2,100 ¥130,000
12 feb Maa 11:30 19:30 APL-serie: ¥ 215 Zodiac Apenkoning Bounty ¥215 ¥125,000
12 feb Maa 11:30 19:30 APL serie: ¥ 2.100 Bounty High Roller ¥2,100 ¥130,000
12 feb Maa 11:30 19:30 APL-serie: ¥ 215 Zodiac Apenkoning Bounty ¥215 ¥125,000
12 feb Maa 13:00 20:00 APL serie: ¥388 Zodiac Main Event , ¥250K GTD ¥388 ¥300,000
12 feb Maa 13:00 20:00 APL serie: ¥388 Zodiac Main Event , ¥250K GTD ¥388 ¥300,000
12 feb Maa 13:00 21:00 APL-serie: ¥ 5.500 Deepstack High Roller ¥5,500 ¥200,000
12 feb Maa 13:00 21:00 APL Series: ¥550 Hold'em Deepstack ¥550 ¥100,000
12 feb Maa 13:00 21:00 APL-serie: ¥50 Zodiac Haan Zonsondergang Speciaal ¥50 ¥35,000
12 feb Maa 13:00 21:00 APL-serie: ¥ 5.500 Deepstack High Roller ¥5,500 ¥200,000
12 feb Maa 13:00 21:00 APL Series: ¥550 Hold'em Deepstack ¥550 ¥100,000
12 feb Maa 13:00 21:00 APL-serie: ¥50 Zodiac Haan Zonsondergang Speciaal ¥50 ¥35,000
12 feb Maa 13:10 21:10 APL serie: ¥ 3.150 Short Deck Bounty HR ¥3,150 ¥88,000
12 feb Maa 13:10 21:10 APL-serie: ¥ 320 Short Deck Bounty ¥320 ¥25,000
12 feb Maa 13:10 21:10 APL serie: ¥ 3.150 Short Deck Bounty HR ¥3,150 ¥88,000
12 feb Maa 13:10 21:10 APL-serie: ¥ 320 Short Deck Bounty ¥320 ¥25,000
12 feb Maa 13:40 21:40 APL serie: ¥ 5.250 PLO-NL Bounty HR ¥5,250 ¥88,000
12 feb Maa 13:40 21:40 APL Serie: ¥530 PLO-NL Bounty ¥530 ¥30,000
12 feb Maa 13:40 21:40 APL serie: ¥ 5.250 PLO-NL Bounty HR ¥5,250 ¥88,000
12 feb Maa 13:40 21:40 APL Serie: ¥530 PLO-NL Bounty ¥530 ¥30,000
12 feb Maa 14:00 23:00 APL Series: ¥1.100 Hold'em Klassieker ¥1,100 ¥100,000
12 feb Maa 14:00 23:00 APL serie: ¥110 Zodiac Hond Ultra Deepstack Turbo ¥110 ¥50,000
12 feb Maa 14:00 23:00 APL Series: ¥1.100 Hold'em Klassieker ¥1,100 ¥100,000
12 feb Maa 14:00 23:00 APL serie: ¥110 Zodiac Hond Ultra Deepstack Turbo ¥110 ¥50,000
12 feb Maa 14:10 22:10 APL-serie: 8.000 YEN Short Deck HR [3-Stack] ¥8,000 ¥100,000
12 feb Maa 14:10 22:10 APL serie: ¥800 Short Deck [3-Stack] ¥800 ¥25,000
12 feb Maa 14:10 22:10 APL-serie: 8.000 YEN Short Deck HR [3-Stack] ¥8,000 ¥100,000
12 feb Maa 14:10 22:10 APL serie: ¥800 Short Deck [3-Stack] ¥800 ¥25,000
12 feb Maa 14:30 22:30 APL serie: ¥ 3.150 Bounty High Roller ¥3,150 ¥180,000
12 feb Maa 14:30 22:30 APL-serie: ¥ 320 Zodiac Varken Bounty Feest ¥320 ¥180,000
12 feb Maa 14:30 22:30 APL serie: ¥ 3.150 Bounty High Roller ¥3,150 ¥180,000
12 feb Maa 14:30 22:30 APL-serie: ¥ 320 Zodiac Varken Bounty Feest ¥320 ¥180,000
12 feb Maa 14:40 22:40 APL-serie: ¥ 1.100 PLO-NL Klassiek ¥1,100 ¥25,000
12 feb Maa 14:40 22:40 APL-serie: ¥ 1.100 PLO-NL Klassiek ¥1,100 ¥25,000
12 feb Maa 16:00 23:00 APL Serie: ¥5.500 Hoge Roller 6-Max ¥5,500 ¥250,000
12 feb Maa 16:00 23:00 APL Series: ¥800 Hold'em 6-Max ¥800 ¥150,000
12 feb Maa 16:00 23:00 APL Serie: ¥5.500 Hoge Roller 6-Max ¥5,500 ¥250,000
12 feb Maa 16:00 23:00 APL Series: ¥800 Hold'em 6-Max ¥800 ¥150,000
12 feb Maa 15:10 23:10 APL serie: ¥ 530 Short Deck Bounty [Turbo] ¥530 ¥30,000
12 feb Maa 15:10 23:10 APL serie: ¥ 530 Short Deck Bounty [Turbo] ¥530 ¥30,000
12 feb Maa 15:40 23:40 APL Serie: ¥530 PLO-NL Bounty [Turbo] ¥530 ¥30,000
12 feb Maa 15:40 23:40 APL Serie: ¥530 PLO-NL Bounty [Turbo] ¥530 ¥30,000
12 feb Maa 16:00 0:00 APL serie: ¥330 Midnight Madness [Hyper] ¥330 ¥60,000
12 feb Maa 16:00 0:00 APL serie: ¥330 Midnight Madness [Hyper] ¥330 ¥60,000
12 feb Maa 16:30 0:30 APL serie: ¥ 2.100 Speed Racer Bounty Dichterbij HR ¥2,100 ¥75,000
12 feb Maa 16:30 0:30 APL-serie: ¥ 215 Speed Racer Bounty Closer ¥215 ¥50,000
12 feb Maa 16:30 0:30 APL serie: ¥ 2.100 Speed Racer Bounty Dichterbij HR ¥2,100 ¥75,000
12 feb Maa 16:30 0:30 APL-serie: ¥ 215 Speed Racer Bounty Closer ¥215 ¥50,000
13 februari Tue 5:00 13:00 APL-serie: ¥ 550 dagelijkse opener ¥550 ¥60,000
13 februari Tue 5:00 13:00 APL serie: ¥88 Zodiac Rattenopener ¥88 ¥30,000
13 februari Tue 5:00 13:00 APL-serie: ¥ 550 dagelijkse opener ¥550 ¥60,000
13 februari Tue 5:00 13:00 APL serie: ¥88 Zodiac Rattenopener ¥88 ¥30,000
13 februari Tue 6:00 14:00 APL serie: ¥ 1.100 Deepstack High Roller ¥1,100 ¥80,000
13 februari Tue 6:00 14:00 APL-serie: ¥ 330 Zodiac Ox Sterk Stack ¥330 ¥70,000
13 februari Tue 6:00 14:00 APL serie: ¥ 1.100 Deepstack High Roller ¥1,100 ¥80,000
13 februari Tue 6:00 14:00 APL-serie: ¥ 330 Zodiac Ox Sterk Stack ¥330 ¥70,000
13 februari Tue 7:00 16:00 APL Serie: ¥ 1.050 Bounty High Roller ¥1,050 ¥100,000
13 februari Tue 7:00 16:00 APL-serie: ¥108 Zodiac Tiger King Bounty ¥108 ¥70,000
13 februari Tue 7:00 16:00 APL Serie: ¥ 1.050 Bounty High Roller ¥1,050 ¥100,000
13 februari Tue 7:00 16:00 APL-serie: ¥108 Zodiac Tiger King Bounty ¥108 ¥70,000
13 februari Tue 8:00 16:00 APL-serie: ¥220 Hold'em Klassieker ¥220 ¥50,000
13 februari Tue 8:00 16:00 APL-serie: ¥85.50 Zodiac Konijn Lucky Bounty ¥85.5 ¥50,000
13 februari Tue 8:00 16:00 APL-serie: ¥220 Hold'em Klassieker ¥220 ¥50,000
13 februari Tue 8:00 16:00 APL-serie: ¥85.50 Zodiac Konijn Lucky Bounty ¥85.5 ¥50,000
13 februari Tue 9:00 18:00 APL-serie: ¥80 Hold'em Klassieker ¥80 ¥30,000
13 februari Tue 9:00 18:00 APL-serie: ¥800 Zodiac Dragon High Roller ¥800 ¥100,000
13 februari Tue 9:00 18:00 APL-serie: ¥80 Hold'em Klassieker ¥80 ¥30,000
13 februari Tue 9:00 18:00 APL-serie: ¥800 Zodiac Dragon High Roller ¥800 ¥100,000
13 februari Tue 9:30 17:30 APL Series: ¥630 Hold'em Bounty [6-Max] ¥630 ¥120,000
13 februari Tue 9:30 17:30 APL serie: ¥64.50 Zodiac Snake Bounty [6-Max] ¥64.5 ¥50,000
13 februari Tue 9:30 17:30 APL Series: ¥630 Hold'em Bounty [6-Max] ¥630 ¥120,000
13 februari Tue 9:30 17:30 APL serie: ¥64.50 Zodiac Snake Bounty [6-Max] ¥64.5 ¥50,000
13 februari Tue 10:00 18:00 APL-serie: ¥1.100 Hold'em Marathon ¥1,100 ¥88,000
13 februari Tue 10:00 18:00 APL-serie: ¥110 Zodiac Paardenmarathon ¥110 ¥50,000
13 februari Tue 10:00 18:00 APL-serie: ¥1.100 Hold'em Marathon ¥1,100 ¥88,000
13 februari Tue 10:00 18:00 APL-serie: ¥110 Zodiac Paardenmarathon ¥110 ¥50,000
13 februari Tue 10:30 18:30 APL Series: ¥840 Hold'em Bounty ¥840 ¥125,000
13 februari Tue 10:30 18:30 APL-serie: ¥ 85,50 Hold'em Bounty ¥85.5 ¥60,000
13 februari Tue 10:30 18:30 APL Series: ¥840 Hold'em Bounty ¥840 ¥125,000
13 februari Tue 10:30 18:30 APL-serie: ¥ 85,50 Hold'em Bounty ¥85.5 ¥60,000
13 februari Tue 11:00 20:00 APL-serie: ¥ 2.024 Zodiac Geit High Roller ¥2,024 ¥130,000
13 februari Tue 11:00 20:00 APL-serie: ¥ 2.024 Zodiac Geit High Roller ¥2,024 ¥130,000
13 februari Tue 11:30 19:30 APL serie: ¥ 2.100 Bounty High Roller ¥2,100 ¥130,000
13 februari Tue 11:30 19:30 APL-serie: ¥ 215 Zodiac Apenkoning Bounty ¥215 ¥125,000
13 februari Tue 11:30 19:30 APL serie: ¥ 2.100 Bounty High Roller ¥2,100 ¥130,000
13 februari Tue 11:30 19:30 APL-serie: ¥ 215 Zodiac Apenkoning Bounty ¥215 ¥125,000
13 februari Tue 13:00 20:00 APL serie: ¥388 Zodiac Main Event , ¥250K GTD ¥388 ¥300,000
13 februari Tue 13:00 20:00 APL serie: ¥388 Zodiac Main Event , ¥250K GTD ¥388 ¥300,000
13 februari Tue 13:00 21:00 APL-serie: ¥ 5.500 Deepstack High Roller ¥5,500 ¥200,000
13 februari Tue 13:00 21:00 APL Series: ¥550 Hold'em Deepstack ¥550 ¥100,000
13 februari Tue 13:00 21:00 APL-serie: ¥50 Zodiac Haan Zonsondergang Speciaal ¥50 ¥35,000
13 februari Tue 13:00 21:00 APL-serie: ¥ 5.500 Deepstack High Roller ¥5,500 ¥200,000
13 februari Tue 13:00 21:00 APL Series: ¥550 Hold'em Deepstack ¥550 ¥100,000
13 februari Tue 13:00 21:00 APL-serie: ¥50 Zodiac Haan Zonsondergang Speciaal ¥50 ¥35,000
13 februari Tue 13:10 21:10 APL serie: ¥ 3.150 Short Deck Bounty HR ¥3,150 ¥88,000
13 februari Tue 13:10 21:10 APL-serie: ¥ 320 Short Deck Bounty ¥320 ¥25,000
13 februari Tue 13:10 21:10 APL serie: ¥ 3.150 Short Deck Bounty HR ¥3,150 ¥88,000
13 februari Tue 13:10 21:10 APL-serie: ¥ 320 Short Deck Bounty ¥320 ¥25,000
13 februari Tue 13:40 21:40 APL serie: ¥ 5.250 PLO-NL Bounty HR ¥5,250 ¥88,000
13 februari Tue 13:40 21:40 APL Serie: ¥530 PLO-NL Bounty ¥530 ¥30,000
13 februari Tue 13:40 21:40 APL serie: ¥ 5.250 PLO-NL Bounty HR ¥5,250 ¥88,000
13 februari Tue 13:40 21:40 APL Serie: ¥530 PLO-NL Bounty ¥530 ¥30,000
13 februari Tue 14:00 23:00 APL Series: ¥1.100 Hold'em Klassieker ¥1,100 ¥100,000
13 februari Tue 14:00 23:00 APL serie: ¥110 Zodiac Hond Ultra Deepstack Turbo ¥110 ¥50,000
13 februari Tue 14:00 23:00 APL Series: ¥1.100 Hold'em Klassieker ¥1,100 ¥100,000
13 februari Tue 14:00 23:00 APL serie: ¥110 Zodiac Hond Ultra Deepstack Turbo ¥110 ¥50,000
13 februari Tue 14:10 22:10 APL-serie: 8.000 YEN Short Deck HR [3-Stack] ¥8,000 ¥100,000
13 februari Tue 14:10 22:10 APL serie: ¥800 Short Deck [3-Stack] ¥800 ¥25,000
13 februari Tue 14:10 22:10 APL-serie: 8.000 YEN Short Deck HR [3-Stack] ¥8,000 ¥100,000
13 februari Tue 14:10 22:10 APL serie: ¥800 Short Deck [3-Stack] ¥800 ¥25,000
13 februari Tue 14:30 22:30 APL serie: ¥ 3.150 Bounty High Roller ¥3,150 ¥180,000
13 februari Tue 14:30 22:30 APL-serie: ¥ 320 Zodiac Varken Bounty Feest ¥320 ¥180,000
13 februari Tue 14:30 22:30 APL serie: ¥ 3.150 Bounty High Roller ¥3,150 ¥180,000
13 februari Tue 14:30 22:30 APL-serie: ¥ 320 Zodiac Varken Bounty Feest ¥320 ¥180,000
13 februari Tue 14:40 22:40 APL-serie: ¥ 1.100 PLO-NL Klassiek ¥1,100 ¥25,000
13 februari Tue 14:40 22:40 APL-serie: ¥ 1.100 PLO-NL Klassiek ¥1,100 ¥25,000
13 februari Tue 16:00 23:00 APL Serie: ¥5.500 Hoge Roller 6-Max ¥5,500 ¥250,000
13 februari Tue 16:00 23:00 APL Series: ¥800 Hold'em 6-Max ¥800 ¥150,000
13 februari Tue 16:00 23:00 APL Serie: ¥5.500 Hoge Roller 6-Max ¥5,500 ¥250,000
13 februari Tue 16:00 23:00 APL Series: ¥800 Hold'em 6-Max ¥800 ¥150,000
13 februari Tue 15:10 23:10 APL serie: ¥ 530 Short Deck Bounty [Turbo] ¥530 ¥30,000
13 februari Tue 15:10 23:10 APL serie: ¥ 530 Short Deck Bounty [Turbo] ¥530 ¥30,000
13 februari Tue 15:40 23:40 APL Serie: ¥530 PLO-NL Bounty [Turbo] ¥530 ¥30,000
13 februari Tue 15:40 23:40 APL Serie: ¥530 PLO-NL Bounty [Turbo] ¥530 ¥30,000
13 februari Tue 16:00 0:00 APL serie: ¥330 Midnight Madness [Hyper] ¥330 ¥60,000
13 februari Tue 16:00 0:00 APL serie: ¥330 Midnight Madness [Hyper] ¥330 ¥60,000
13 februari Tue 16:30 0:30 APL serie: ¥ 2.100 Speed Racer Bounty Dichterbij HR ¥2,100 ¥75,000
13 februari Tue 16:30 0:30 APL-serie: ¥ 215 Speed Racer Bounty Closer ¥215 ¥50,000
13 februari Tue 16:30 0:30 APL serie: ¥ 2.100 Speed Racer Bounty Dichterbij HR ¥2,100 ¥75,000
13 februari Tue 16:30 0:30 APL-serie: ¥ 215 Speed Racer Bounty Closer ¥215 ¥50,000
14 februari wo 5:00 13:00 APL-serie: ¥ 550 dagelijkse opener ¥550 ¥60,000
14 februari wo 5:00 13:00 APL serie: ¥88 Zodiac Rattenopener ¥88 ¥30,000
14 februari wo 5:00 13:00 APL-serie: ¥ 550 dagelijkse opener ¥550 ¥60,000
14 februari wo 5:00 13:00 APL serie: ¥88 Zodiac Rattenopener ¥88 ¥30,000
14 februari wo 6:00 14:00 APL serie: ¥ 1.100 Deepstack High Roller ¥1,100 ¥80,000
14 februari wo 6:00 14:00 APL-serie: ¥ 330 Zodiac Ox Sterk Stack ¥330 ¥70,000
14 februari wo 6:00 14:00 APL serie: ¥ 1.100 Deepstack High Roller ¥1,100 ¥80,000
14 februari wo 6:00 14:00 APL-serie: ¥ 330 Zodiac Ox Sterk Stack ¥330 ¥70,000
14 februari wo 7:00 16:00 APL Serie: ¥ 1.050 Bounty High Roller ¥1,050 ¥100,000
14 februari wo 7:00 16:00 APL-serie: ¥108 Zodiac Tiger King Bounty ¥108 ¥70,000
14 februari wo 7:00 16:00 APL Serie: ¥ 1.050 Bounty High Roller ¥1,050 ¥100,000
14 februari wo 7:00 16:00 APL-serie: ¥108 Zodiac Tiger King Bounty ¥108 ¥70,000
14 februari wo 8:00 16:00 APL-serie: ¥220 Hold'em Klassieker ¥220 ¥50,000
14 februari wo 8:00 16:00 APL-serie: ¥85.50 Zodiac Konijn Lucky Bounty ¥85.5 ¥50,000
14 februari wo 8:00 16:00 APL-serie: ¥220 Hold'em Klassieker ¥220 ¥50,000
14 februari wo 8:00 16:00 APL-serie: ¥85.50 Zodiac Konijn Lucky Bounty ¥85.5 ¥50,000
14 februari wo 9:00 18:00 APL-serie: ¥80 Hold'em Klassieker ¥80 ¥30,000
14 februari wo 9:00 18:00 APL-serie: ¥800 Zodiac Dragon High Roller ¥800 ¥100,000
14 februari wo 9:00 18:00 APL-serie: ¥80 Hold'em Klassieker ¥80 ¥30,000
14 februari wo 9:00 18:00 APL-serie: ¥800 Zodiac Dragon High Roller ¥800 ¥100,000
14 februari wo 9:30 17:30 APL Series: ¥630 Hold'em Bounty [6-Max] ¥630 ¥120,000
14 februari wo 9:30 17:30 APL serie: ¥64.50 Zodiac Snake Bounty [6-Max] ¥64.5 ¥50,000
14 februari wo 9:30 17:30 APL Series: ¥630 Hold'em Bounty [6-Max] ¥630 ¥120,000
14 februari wo 9:30 17:30 APL serie: ¥64.50 Zodiac Snake Bounty [6-Max] ¥64.5 ¥50,000
14 februari wo 10:00 18:00 APL-serie: ¥1.100 Hold'em Marathon ¥1,100 ¥88,000
14 februari wo 10:00 18:00 APL-serie: ¥110 Zodiac Paardenmarathon ¥110 ¥50,000
14 februari wo 10:00 18:00 APL-serie: ¥1.100 Hold'em Marathon ¥1,100 ¥88,000
14 februari wo 10:00 18:00 APL-serie: ¥110 Zodiac Paardenmarathon ¥110 ¥50,000
14 februari wo 10:30 18:30 APL Series: ¥840 Hold'em Bounty ¥840 ¥125,000
14 februari wo 10:30 18:30 APL-serie: ¥ 85,50 Hold'em Bounty ¥85.5 ¥60,000
14 februari wo 10:30 18:30 APL Series: ¥840 Hold'em Bounty ¥840 ¥125,000
14 februari wo 10:30 18:30 APL-serie: ¥ 85,50 Hold'em Bounty ¥85.5 ¥60,000
14 februari wo 11:00 20:00 APL-serie: ¥ 2.024 Zodiac Geit High Roller ¥2,024 ¥130,000
14 februari wo 11:00 20:00 APL-serie: ¥ 2.024 Zodiac Geit High Roller ¥2,024 ¥130,000
14 februari wo 11:30 19:30 APL serie: ¥ 2.100 Bounty High Roller ¥2,100 ¥130,000
14 februari wo 11:30 19:30 APL-serie: ¥ 215 Zodiac Apenkoning Bounty ¥215 ¥125,000
14 februari wo 11:30 19:30 APL serie: ¥ 2.100 Bounty High Roller ¥2,100 ¥130,000
14 februari wo 11:30 19:30 APL-serie: ¥ 215 Zodiac Apenkoning Bounty ¥215 ¥125,000
14 februari wo 13:00 20:00 APL serie: ¥388 Zodiac Main Event , ¥250K GTD ¥388 ¥300,000
14 februari wo 13:00 20:00 APL serie: ¥388 Zodiac Main Event , ¥250K GTD ¥388 ¥300,000
14 februari wo 13:00 21:00 APL-serie: ¥ 5.500 Deepstack High Roller ¥5,500 ¥200,000
14 februari wo 13:00 21:00 APL Series: ¥550 Hold'em Deepstack ¥550 ¥100,000
14 februari wo 13:00 21:00 APL-serie: ¥50 Zodiac Haan Zonsondergang Speciaal ¥50 ¥35,000
14 februari wo 13:00 21:00 APL-serie: ¥ 5.500 Deepstack High Roller ¥5,500 ¥200,000
14 februari wo 13:00 21:00 APL Series: ¥550 Hold'em Deepstack ¥550 ¥100,000
14 februari wo 13:00 21:00 APL-serie: ¥50 Zodiac Haan Zonsondergang Speciaal ¥50 ¥35,000
14 februari wo 13:10 21:10 APL serie: ¥ 3.150 Short Deck Bounty HR ¥3,150 ¥88,000
14 februari wo 13:10 21:10 APL-serie: ¥ 320 Short Deck Bounty ¥320 ¥25,000
14 februari wo 13:10 21:10 APL serie: ¥ 3.150 Short Deck Bounty HR ¥3,150 ¥88,000
14 februari wo 13:10 21:10 APL-serie: ¥ 320 Short Deck Bounty ¥320 ¥25,000
14 februari wo 13:40 21:40 APL serie: ¥ 5.250 PLO-NL Bounty HR ¥5,250 ¥88,000
14 februari wo 13:40 21:40 APL Serie: ¥530 PLO-NL Bounty ¥530 ¥30,000
14 februari wo 13:40 21:40 APL serie: ¥ 5.250 PLO-NL Bounty HR ¥5,250 ¥88,000
14 februari wo 13:40 21:40 APL Serie: ¥530 PLO-NL Bounty ¥530 ¥30,000
14 februari wo 14:00 23:00 APL Series: ¥1.100 Hold'em Klassieker ¥1,100 ¥100,000
14 februari wo 14:00 23:00 APL serie: ¥110 Zodiac Hond Ultra Deepstack Turbo ¥110 ¥50,000
14 februari wo 14:00 23:00 APL Series: ¥1.100 Hold'em Klassieker ¥1,100 ¥100,000
14 februari wo 14:00 23:00 APL serie: ¥110 Zodiac Hond Ultra Deepstack Turbo ¥110 ¥50,000
14 februari wo 14:10 22:10 APL-serie: 8.000 YEN Short Deck HR [3-Stack] ¥8,000 ¥100,000
14 februari wo 14:10 22:10 APL serie: ¥800 Short Deck [3-Stack] ¥800 ¥25,000
14 februari wo 14:10 22:10 APL-serie: 8.000 YEN Short Deck HR [3-Stack] ¥8,000 ¥100,000
14 februari wo 14:10 22:10 APL serie: ¥800 Short Deck [3-Stack] ¥800 ¥25,000
14 februari wo 14:30 22:30 APL serie: ¥ 3.150 Bounty High Roller ¥3,150 ¥180,000
14 februari wo 14:30 22:30 APL-serie: ¥ 320 Zodiac Varken Bounty Feest ¥320 ¥180,000
14 februari wo 14:30 22:30 APL serie: ¥ 3.150 Bounty High Roller ¥3,150 ¥180,000
14 februari wo 14:30 22:30 APL-serie: ¥ 320 Zodiac Varken Bounty Feest ¥320 ¥180,000
14 februari wo 14:40 22:40 APL-serie: ¥ 1.100 PLO-NL Klassiek ¥1,100 ¥25,000
14 februari wo 14:40 22:40 APL-serie: ¥ 1.100 PLO-NL Klassiek ¥1,100 ¥25,000
14 februari wo 16:00 23:00 APL Serie: ¥5.500 Hoge Roller 6-Max ¥5,500 ¥250,000
14 februari wo 16:00 23:00 APL Series: ¥800 Hold'em 6-Max ¥800 ¥150,000
14 februari wo 16:00 23:00 APL Serie: ¥5.500 Hoge Roller 6-Max ¥5,500 ¥250,000
14 februari wo 16:00 23:00 APL Series: ¥800 Hold'em 6-Max ¥800 ¥150,000
14 februari wo 15:10 23:10 APL serie: ¥ 530 Short Deck Bounty [Turbo] ¥530 ¥30,000
14 februari wo 15:10 23:10 APL serie: ¥ 530 Short Deck Bounty [Turbo] ¥530 ¥30,000
14 februari wo 15:40 23:40 APL Serie: ¥530 PLO-NL Bounty [Turbo] ¥530 ¥30,000
14 februari wo 15:40 23:40 APL Serie: ¥530 PLO-NL Bounty [Turbo] ¥530 ¥30,000
14 februari wo 16:00 0:00 APL serie: ¥330 Midnight Madness [Hyper] ¥330 ¥60,000
14 februari wo 16:00 0:00 APL serie: ¥330 Midnight Madness [Hyper] ¥330 ¥60,000
14 februari wo 16:30 0:30 APL serie: ¥ 2.100 Speed Racer Bounty Dichterbij HR ¥2,100 ¥75,000
14 februari wo 16:30 0:30 APL-serie: ¥ 215 Speed Racer Bounty Closer ¥215 ¥50,000
14 februari wo 16:30 0:30 APL serie: ¥ 2.100 Speed Racer Bounty Dichterbij HR ¥2,100 ¥75,000
14 februari wo 16:30 0:30 APL-serie: ¥ 215 Speed Racer Bounty Closer ¥215 ¥50,000
15 feb Thu 5:00 13:00 APL-serie: ¥ 550 dagelijkse opener ¥550 ¥60,000
15 feb Thu 5:00 13:00 APL serie: ¥88 Zodiac Rattenopener ¥88 ¥30,000
15 feb Thu 5:00 13:00 APL-serie: ¥ 550 dagelijkse opener ¥550 ¥60,000
15 feb Thu 5:00 13:00 APL serie: ¥88 Zodiac Rattenopener ¥88 ¥30,000
15 feb Thu 6:00 14:00 APL serie: ¥ 1.100 Deepstack High Roller ¥1,100 ¥80,000
15 feb Thu 6:00 14:00 APL-serie: ¥ 330 Zodiac Ox Sterk Stack ¥330 ¥70,000
15 feb Thu 6:00 14:00 APL serie: ¥ 1.100 Deepstack High Roller ¥1,100 ¥80,000
15 feb Thu 6:00 14:00 APL-serie: ¥ 330 Zodiac Ox Sterk Stack ¥330 ¥70,000
15 feb Thu 7:00 16:00 APL Serie: ¥ 1.050 Bounty High Roller ¥1,050 ¥100,000
15 feb Thu 7:00 16:00 APL-serie: ¥108 Zodiac Tiger King Bounty ¥108 ¥70,000
15 feb Thu 7:00 16:00 APL Serie: ¥ 1.050 Bounty High Roller ¥1,050 ¥100,000
15 feb Thu 7:00 16:00 APL-serie: ¥108 Zodiac Tiger King Bounty ¥108 ¥70,000
15 feb Thu 8:00 16:00 APL-serie: ¥220 Hold'em Klassieker ¥220 ¥50,000
15 feb Thu 8:00 16:00 APL-serie: ¥85.50 Zodiac Konijn Lucky Bounty ¥85.5 ¥50,000
15 feb Thu 8:00 16:00 APL-serie: ¥220 Hold'em Klassieker ¥220 ¥50,000
15 feb Thu 8:00 16:00 APL-serie: ¥85.50 Zodiac Konijn Lucky Bounty ¥85.5 ¥50,000
15 feb Thu 9:00 18:00 APL-serie: ¥80 Hold'em Klassieker ¥80 ¥30,000
15 feb Thu 9:00 18:00 APL-serie: ¥800 Zodiac Dragon High Roller ¥800 ¥100,000
15 feb Thu 9:00 18:00 APL-serie: ¥80 Hold'em Klassieker ¥80 ¥30,000
15 feb Thu 9:00 18:00 APL-serie: ¥800 Zodiac Dragon High Roller ¥800 ¥100,000
15 feb Thu 9:30 17:30 APL Series: ¥630 Hold'em Bounty [6-Max] ¥630 ¥120,000
15 feb Thu 9:30 17:30 APL serie: ¥64.50 Zodiac Snake Bounty [6-Max] ¥64.5 ¥50,000
15 feb Thu 9:30 17:30 APL Series: ¥630 Hold'em Bounty [6-Max] ¥630 ¥120,000
15 feb Thu 9:30 17:30 APL serie: ¥64.50 Zodiac Snake Bounty [6-Max] ¥64.5 ¥50,000
15 feb Thu 10:00 18:00 APL-serie: ¥1.100 Hold'em Marathon ¥1,100 ¥88,000
15 feb Thu 10:00 18:00 APL-serie: ¥110 Zodiac Paardenmarathon ¥110 ¥50,000
15 feb Thu 10:00 18:00 APL-serie: ¥1.100 Hold'em Marathon ¥1,100 ¥88,000
15 feb Thu 10:00 18:00 APL-serie: ¥110 Zodiac Paardenmarathon ¥110 ¥50,000
15 feb Thu 10:30 18:30 APL Series: ¥840 Hold'em Bounty ¥840 ¥125,000
15 feb Thu 10:30 18:30 APL-serie: ¥ 85,50 Hold'em Bounty ¥85.5 ¥60,000
15 feb Thu 10:30 18:30 APL Series: ¥840 Hold'em Bounty ¥840 ¥125,000
15 feb Thu 10:30 18:30 APL-serie: ¥ 85,50 Hold'em Bounty ¥85.5 ¥60,000
15 feb Thu 11:00 20:00 APL-serie: ¥ 2.024 Zodiac Geit High Roller ¥2,024 ¥130,000
15 feb Thu 11:00 20:00 APL-serie: ¥ 2.024 Zodiac Geit High Roller ¥2,024 ¥130,000
15 feb Thu 11:30 19:30 APL serie: ¥ 2.100 Bounty High Roller ¥2,100 ¥130,000
15 feb Thu 11:30 19:30 APL-serie: ¥ 215 Zodiac Apenkoning Bounty ¥215 ¥125,000
15 feb Thu 11:30 19:30 APL serie: ¥ 2.100 Bounty High Roller ¥2,100 ¥130,000
15 feb Thu 11:30 19:30 APL-serie: ¥ 215 Zodiac Apenkoning Bounty ¥215 ¥125,000
15 feb Thu 13:00 20:00 APL serie: ¥388 Zodiac Main Event , ¥250K GTD ¥388 ¥300,000
15 feb Thu 13:00 20:00 APL serie: ¥388 Zodiac Main Event , ¥250K GTD ¥388 ¥300,000
15 feb Thu 13:00 21:00 APL-serie: ¥ 5.500 Deepstack High Roller ¥5,500 ¥200,000
15 feb Thu 13:00 21:00 APL Series: ¥550 Hold'em Deepstack ¥550 ¥100,000
15 feb Thu 13:00 21:00 APL-serie: ¥50 Zodiac Haan Zonsondergang Speciaal ¥50 ¥35,000
15 feb Thu 13:00 21:00 APL-serie: ¥ 5.500 Deepstack High Roller ¥5,500 ¥200,000
15 feb Thu 13:00 21:00 APL Series: ¥550 Hold'em Deepstack ¥550 ¥100,000
15 feb Thu 13:00 21:00 APL-serie: ¥50 Zodiac Haan Zonsondergang Speciaal ¥50 ¥35,000
15 feb Thu 13:10 21:10 APL serie: ¥ 3.150 Short Deck Bounty HR ¥3,150 ¥88,000
15 feb Thu 13:10 21:10 APL-serie: ¥ 320 Short Deck Bounty ¥320 ¥25,000
15 feb Thu 13:10 21:10 APL serie: ¥ 3.150 Short Deck Bounty HR ¥3,150 ¥88,000
15 feb Thu 13:10 21:10 APL-serie: ¥ 320 Short Deck Bounty ¥320 ¥25,000
15 feb Thu 13:40 21:40 APL serie: ¥ 5.250 PLO-NL Bounty HR ¥5,250 ¥88,000
15 feb Thu 13:40 21:40 APL Serie: ¥530 PLO-NL Bounty ¥530 ¥30,000
15 feb Thu 13:40 21:40 APL serie: ¥ 5.250 PLO-NL Bounty HR ¥5,250 ¥88,000
15 feb Thu 13:40 21:40 APL Serie: ¥530 PLO-NL Bounty ¥530 ¥30,000
15 feb Thu 14:00 23:00 APL Series: ¥1.100 Hold'em Klassieker ¥1,100 ¥100,000
15 feb Thu 14:00 23:00 APL serie: ¥110 Zodiac Hond Ultra Deepstack Turbo ¥110 ¥50,000
15 feb Thu 14:00 23:00 APL Series: ¥1.100 Hold'em Klassieker ¥1,100 ¥100,000
15 feb Thu 14:00 23:00 APL serie: ¥110 Zodiac Hond Ultra Deepstack Turbo ¥110 ¥50,000
15 feb Thu 14:10 22:10 APL-serie: 8.000 YEN Short Deck HR [3-Stack] ¥8,000 ¥100,000
15 feb Thu 14:10 22:10 APL serie: ¥800 Short Deck [3-Stack] ¥800 ¥25,000
15 feb Thu 14:10 22:10 APL-serie: 8.000 YEN Short Deck HR [3-Stack] ¥8,000 ¥100,000
15 feb Thu 14:10 22:10 APL serie: ¥800 Short Deck [3-Stack] ¥800 ¥25,000
15 feb Thu 14:30 22:30 APL serie: ¥ 3.150 Bounty High Roller ¥3,150 ¥180,000
15 feb Thu 14:30 22:30 APL-serie: ¥ 320 Zodiac Varken Bounty Feest ¥320 ¥180,000
15 feb Thu 14:30 22:30 APL serie: ¥ 3.150 Bounty High Roller ¥3,150 ¥180,000
15 feb Thu 14:30 22:30 APL-serie: ¥ 320 Zodiac Varken Bounty Feest ¥320 ¥180,000
15 feb Thu 14:40 22:40 APL-serie: ¥ 1.100 PLO-NL Klassiek ¥1,100 ¥25,000
15 feb Thu 14:40 22:40 APL-serie: ¥ 1.100 PLO-NL Klassiek ¥1,100 ¥25,000
15 feb Thu 16:00 23:00 APL Serie: ¥5.500 Hoge Roller 6-Max ¥5,500 ¥250,000
15 feb Thu 16:00 23:00 APL Series: ¥800 Hold'em 6-Max ¥800 ¥150,000
15 feb Thu 16:00 23:00 APL Serie: ¥5.500 Hoge Roller 6-Max ¥5,500 ¥250,000
15 feb Thu 16:00 23:00 APL Series: ¥800 Hold'em 6-Max ¥800 ¥150,000
15 feb Thu 15:10 23:10 APL serie: ¥ 530 Short Deck Bounty [Turbo] ¥530 ¥30,000
15 feb Thu 15:10 23:10 APL serie: ¥ 530 Short Deck Bounty [Turbo] ¥530 ¥30,000
15 feb Thu 15:40 23:40 APL Serie: ¥530 PLO-NL Bounty [Turbo] ¥530 ¥30,000
15 feb Thu 15:40 23:40 APL Serie: ¥530 PLO-NL Bounty [Turbo] ¥530 ¥30,000
15 feb Thu 16:00 0:00 APL serie: ¥330 Midnight Madness [Hyper] ¥330 ¥60,000
15 feb Thu 16:00 0:00 APL serie: ¥330 Midnight Madness [Hyper] ¥330 ¥60,000
15 feb Thu 16:30 0:30 APL serie: ¥ 2.100 Speed Racer Bounty Dichterbij HR ¥2,100 ¥75,000
15 feb Thu 16:30 0:30 APL-serie: ¥ 215 Speed Racer Bounty Closer ¥215 ¥50,000
15 feb Thu 16:30 0:30 APL serie: ¥ 2.100 Speed Racer Bounty Dichterbij HR ¥2,100 ¥75,000
15 feb Thu 16:30 0:30 APL-serie: ¥ 215 Speed Racer Bounty Closer ¥215 ¥50,000
16 feb vr 5:00 13:00 APL-serie: ¥ 550 dagelijkse opener ¥550 ¥60,000
16 feb vr 5:00 13:00 APL serie: ¥88 Zodiac Rattenopener ¥88 ¥30,000
16 feb vr 5:00 13:00 APL-serie: ¥ 550 dagelijkse opener ¥550 ¥60,000
16 feb vr 5:00 13:00 APL serie: ¥88 Zodiac Rattenopener ¥88 ¥30,000
16 feb vr 6:00 14:00 APL serie: ¥ 1.100 Deepstack High Roller ¥1,100 ¥80,000
16 feb vr 6:00 14:00 APL-serie: ¥ 330 Zodiac Ox Sterk Stack ¥330 ¥70,000
16 feb vr 6:00 14:00 APL serie: ¥ 1.100 Deepstack High Roller ¥1,100 ¥80,000
16 feb vr 6:00 14:00 APL-serie: ¥ 330 Zodiac Ox Sterk Stack ¥330 ¥70,000
16 feb vr 7:00 16:00 APL Serie: ¥ 1.050 Bounty High Roller ¥1,050 ¥100,000
16 feb vr 7:00 16:00 APL-serie: ¥108 Zodiac Tiger King Bounty ¥108 ¥70,000
16 feb vr 7:00 16:00 APL Serie: ¥ 1.050 Bounty High Roller ¥1,050 ¥100,000
16 feb vr 7:00 16:00 APL-serie: ¥108 Zodiac Tiger King Bounty ¥108 ¥70,000
16 feb vr 8:00 16:00 APL-serie: ¥220 Hold'em Klassieker ¥220 ¥50,000
16 feb vr 8:00 16:00 APL-serie: ¥85.50 Zodiac Konijn Lucky Bounty ¥85.5 ¥50,000
16 feb vr 8:00 16:00 APL-serie: ¥220 Hold'em Klassieker ¥220 ¥50,000
16 feb vr 8:00 16:00 APL-serie: ¥85.50 Zodiac Konijn Lucky Bounty ¥85.5 ¥50,000
16 feb vr 9:00 18:00 APL-serie: ¥80 Hold'em Klassieker ¥80 ¥30,000
16 feb vr 9:00 18:00 APL-serie: ¥800 Zodiac Dragon High Roller ¥800 ¥100,000
16 feb vr 9:00 18:00 APL-serie: ¥80 Hold'em Klassieker ¥80 ¥30,000
16 feb vr 9:00 18:00 APL-serie: ¥800 Zodiac Dragon High Roller ¥800 ¥100,000
16 feb vr 9:30 17:30 APL Series: ¥630 Hold'em Bounty [6-Max] ¥630 ¥120,000
16 feb vr 9:30 17:30 APL serie: ¥64.50 Zodiac Snake Bounty [6-Max] ¥64.5 ¥50,000
16 feb vr 9:30 17:30 APL Series: ¥630 Hold'em Bounty [6-Max] ¥630 ¥120,000
16 feb vr 9:30 17:30 APL serie: ¥64.50 Zodiac Snake Bounty [6-Max] ¥64.5 ¥50,000
16 feb vr 10:00 18:00 APL-serie: ¥1.100 Hold'em Marathon ¥1,100 ¥88,000
16 feb vr 10:00 18:00 APL-serie: ¥110 Zodiac Paardenmarathon ¥110 ¥50,000
16 feb vr 10:00 18:00 APL-serie: ¥1.100 Hold'em Marathon ¥1,100 ¥88,000
16 feb vr 10:00 18:00 APL-serie: ¥110 Zodiac Paardenmarathon ¥110 ¥50,000
16 feb vr 10:30 18:30 APL Series: ¥840 Hold'em Bounty ¥840 ¥125,000
16 feb vr 10:30 18:30 APL-serie: ¥ 85,50 Hold'em Bounty ¥85.5 ¥60,000
16 feb vr 10:30 18:30 APL Series: ¥840 Hold'em Bounty ¥840 ¥125,000
16 feb vr 10:30 18:30 APL-serie: ¥ 85,50 Hold'em Bounty ¥85.5 ¥60,000
16 feb vr 11:00 20:00 APL-serie: ¥ 2.024 Zodiac Geit High Roller ¥2,024 ¥130,000
16 feb vr 11:00 20:00 APL-serie: ¥ 2.024 Zodiac Geit High Roller ¥2,024 ¥130,000
16 feb vr 11:30 19:30 APL serie: ¥ 2.100 Bounty High Roller ¥2,100 ¥130,000
16 feb vr 11:30 19:30 APL-serie: ¥ 215 Zodiac Apenkoning Bounty ¥215 ¥125,000
16 feb vr 11:30 19:30 APL serie: ¥ 2.100 Bounty High Roller ¥2,100 ¥130,000
16 feb vr 11:30 19:30 APL-serie: ¥ 215 Zodiac Apenkoning Bounty ¥215 ¥125,000
16 feb vr 13:00 20:00 APL serie: ¥388 Zodiac Main Event , ¥250K GTD ¥388 ¥300,000
16 feb vr 13:00 20:00 APL serie: ¥388 Zodiac Main Event , ¥250K GTD ¥388 ¥300,000
16 feb vr 13:00 21:00 APL-serie: ¥ 5.500 Deepstack High Roller ¥5,500 ¥200,000
16 feb vr 13:00 21:00 APL Series: ¥550 Hold'em Deepstack ¥550 ¥100,000
16 feb vr 13:00 21:00 APL-serie: ¥50 Zodiac Haan Zonsondergang Speciaal ¥50 ¥35,000
16 feb vr 13:00 21:00 APL-serie: ¥ 5.500 Deepstack High Roller ¥5,500 ¥200,000
16 feb vr 13:00 21:00 APL Series: ¥550 Hold'em Deepstack ¥550 ¥100,000
16 feb vr 13:00 21:00 APL-serie: ¥50 Zodiac Haan Zonsondergang Speciaal ¥50 ¥35,000
16 feb vr 13:10 21:10 APL serie: ¥ 3.150 Short Deck Bounty HR ¥3,150 ¥88,000
16 feb vr 13:10 21:10 APL-serie: ¥ 320 Short Deck Bounty ¥320 ¥25,000
16 feb vr 13:10 21:10 APL serie: ¥ 3.150 Short Deck Bounty HR ¥3,150 ¥88,000
16 feb vr 13:10 21:10 APL-serie: ¥ 320 Short Deck Bounty ¥320 ¥25,000
16 feb vr 13:40 21:40 APL serie: ¥ 5.250 PLO-NL Bounty HR ¥5,250 ¥88,000
16 feb vr 13:40 21:40 APL Serie: ¥530 PLO-NL Bounty ¥530 ¥30,000
16 feb vr 13:40 21:40 APL serie: ¥ 5.250 PLO-NL Bounty HR ¥5,250 ¥88,000
16 feb vr 13:40 21:40 APL Serie: ¥530 PLO-NL Bounty ¥530 ¥30,000
16 feb vr 14:00 23:00 APL Series: ¥1.100 Hold'em Klassieker ¥1,100 ¥100,000
16 feb vr 14:00 23:00 APL serie: ¥110 Zodiac Hond Ultra Deepstack Turbo ¥110 ¥50,000
16 feb vr 14:00 23:00 APL Series: ¥1.100 Hold'em Klassieker ¥1,100 ¥100,000
16 feb vr 14:00 23:00 APL serie: ¥110 Zodiac Hond Ultra Deepstack Turbo ¥110 ¥50,000
16 feb vr 14:10 22:10 APL-serie: 8.000 YEN Short Deck HR [3-Stack] ¥8,000 ¥100,000
16 feb vr 14:10 22:10 APL serie: ¥800 Short Deck [3-Stack] ¥800 ¥25,000
16 feb vr 14:10 22:10 APL-serie: 8.000 YEN Short Deck HR [3-Stack] ¥8,000 ¥100,000
16 feb vr 14:10 22:10 APL serie: ¥800 Short Deck [3-Stack] ¥800 ¥25,000
16 feb vr 14:30 22:30 APL serie: ¥ 3.150 Bounty High Roller ¥3,150 ¥180,000
16 feb vr 14:30 22:30 APL-serie: ¥ 320 Zodiac Varken Bounty Feest ¥320 ¥180,000
16 feb vr 14:30 22:30 APL serie: ¥ 3.150 Bounty High Roller ¥3,150 ¥180,000
16 feb vr 14:30 22:30 APL-serie: ¥ 320 Zodiac Varken Bounty Feest ¥320 ¥180,000
16 feb vr 14:40 22:40 APL-serie: ¥ 1.100 PLO-NL Klassiek ¥1,100 ¥25,000
16 feb vr 14:40 22:40 APL-serie: ¥ 1.100 PLO-NL Klassiek ¥1,100 ¥25,000
16 feb vr 16:00 23:00 APL Serie: ¥5.500 Hoge Roller 6-Max ¥5,500 ¥250,000
16 feb vr 16:00 23:00 APL Series: ¥800 Hold'em 6-Max ¥800 ¥150,000
16 feb vr 16:00 23:00 APL Serie: ¥5.500 Hoge Roller 6-Max ¥5,500 ¥250,000
16 feb vr 16:00 23:00 APL Series: ¥800 Hold'em 6-Max ¥800 ¥150,000
16 feb vr 15:10 23:10 APL serie: ¥ 530 Short Deck Bounty [Turbo] ¥530 ¥30,000
16 feb vr 15:10 23:10 APL serie: ¥ 530 Short Deck Bounty [Turbo] ¥530 ¥30,000
16 feb vr 15:40 23:40 APL Serie: ¥530 PLO-NL Bounty [Turbo] ¥530 ¥30,000
16 feb vr 15:40 23:40 APL Serie: ¥530 PLO-NL Bounty [Turbo] ¥530 ¥30,000
16 feb vr 16:00 0:00 APL serie: ¥330 Midnight Madness [Hyper] ¥330 ¥60,000
16 feb vr 16:00 0:00 APL serie: ¥330 Midnight Madness [Hyper] ¥330 ¥60,000
16 feb vr 16:30 0:30 APL serie: ¥ 2.100 Speed Racer Bounty Dichterbij HR ¥2,100 ¥75,000
16 feb vr 16:30 0:30 APL-serie: ¥ 215 Speed Racer Bounty Closer ¥215 ¥50,000
16 feb vr 16:30 0:30 APL serie: ¥ 2.100 Speed Racer Bounty Dichterbij HR ¥2,100 ¥75,000
16 feb vr 16:30 0:30 APL-serie: ¥ 215 Speed Racer Bounty Closer ¥215 ¥50,000
17 februari Zat 5:00 13:00 APL-serie: ¥ 550 dagelijkse opener ¥550 ¥60,000
17 februari Zat 5:00 13:00 APL serie: ¥88 Zodiac Rattenopener ¥88 ¥30,000
17 februari Zat 5:00 13:00 APL-serie: ¥ 550 dagelijkse opener ¥550 ¥60,000
17 februari Zat 5:00 13:00 APL serie: ¥88 Zodiac Rattenopener ¥88 ¥30,000
17 februari Zat 6:00 14:00 APL serie: ¥ 1.100 Deepstack High Roller ¥1,100 ¥80,000
17 februari Zat 6:00 14:00 APL-serie: ¥ 330 Zodiac Ox Sterk Stack ¥330 ¥70,000
17 februari Zat 6:00 14:00 APL serie: ¥ 1.100 Deepstack High Roller ¥1,100 ¥80,000
17 februari Zat 6:00 14:00 APL-serie: ¥ 330 Zodiac Ox Sterk Stack ¥330 ¥70,000
17 februari Zat 7:00 16:00 APL Serie: ¥ 1.050 Bounty High Roller ¥1,050 ¥100,000
17 februari Zat 7:00 16:00 APL-serie: ¥108 Zodiac Tiger King Bounty ¥108 ¥70,000
17 februari Zat 7:00 16:00 APL Serie: ¥ 1.050 Bounty High Roller ¥1,050 ¥100,000
17 februari Zat 7:00 16:00 APL-serie: ¥108 Zodiac Tiger King Bounty ¥108 ¥70,000
17 februari Zat 8:00 16:00 APL-serie: ¥220 Hold'em Klassieker ¥220 ¥50,000
17 februari Zat 8:00 16:00 APL-serie: ¥85.50 Zodiac Konijn Lucky Bounty ¥85.5 ¥50,000
17 februari Zat 8:00 16:00 APL-serie: ¥220 Hold'em Klassieker ¥220 ¥50,000
17 februari Zat 8:00 16:00 APL-serie: ¥85.50 Zodiac Konijn Lucky Bounty ¥85.5 ¥50,000
17 februari Zat 9:00 18:00 APL-serie: ¥80 Hold'em Klassieker ¥80 ¥30,000
17 februari Zat 9:00 18:00 APL-serie: ¥800 Zodiac Dragon High Roller ¥800 ¥100,000
17 februari Zat 9:00 18:00 APL-serie: ¥80 Hold'em Klassieker ¥80 ¥30,000
17 februari Zat 9:00 18:00 APL-serie: ¥800 Zodiac Dragon High Roller ¥800 ¥100,000
17 februari Zat 9:30 17:30 APL Series: ¥630 Hold'em Bounty [6-Max] ¥630 ¥120,000
17 februari Zat 9:30 17:30 APL serie: ¥64.50 Zodiac Snake Bounty [6-Max] ¥64.5 ¥50,000
17 februari Zat 9:30 17:30 APL Series: ¥630 Hold'em Bounty [6-Max] ¥630 ¥120,000
17 februari Zat 9:30 17:30 APL serie: ¥64.50 Zodiac Snake Bounty [6-Max] ¥64.5 ¥50,000
17 februari Zat 10:00 18:00 APL-serie: ¥1.100 Hold'em Marathon ¥1,100 ¥88,000
17 februari Zat 10:00 18:00 APL-serie: ¥110 Zodiac Paardenmarathon ¥110 ¥50,000
17 februari Zat 10:00 18:00 APL-serie: ¥1.100 Hold'em Marathon ¥1,100 ¥88,000
17 februari Zat 10:00 18:00 APL-serie: ¥110 Zodiac Paardenmarathon ¥110 ¥50,000
17 februari Zat 10:30 18:30 APL Series: ¥840 Hold'em Bounty ¥840 ¥125,000
17 februari Zat 10:30 18:30 APL-serie: ¥ 85,50 Hold'em Bounty ¥85.5 ¥60,000
17 februari Zat 10:30 18:30 APL Series: ¥840 Hold'em Bounty ¥840 ¥125,000
17 februari Zat 10:30 18:30 APL-serie: ¥ 85,50 Hold'em Bounty ¥85.5 ¥60,000
17 februari Zat 11:00 20:00 APL-serie: ¥ 2.024 Zodiac Geit High Roller ¥2,024 ¥130,000
17 februari Zat 11:00 20:00 APL-serie: ¥ 2.024 Zodiac Geit High Roller ¥2,024 ¥130,000
17 februari Zat 11:30 19:30 APL serie: ¥ 2.100 Bounty High Roller ¥2,100 ¥130,000
17 februari Zat 11:30 19:30 APL-serie: ¥ 215 Zodiac Apenkoning Bounty ¥215 ¥125,000
17 februari Zat 11:30 19:30 APL serie: ¥ 2.100 Bounty High Roller ¥2,100 ¥130,000
17 februari Zat 11:30 19:30 APL-serie: ¥ 215 Zodiac Apenkoning Bounty ¥215 ¥125,000
17 februari Zat 13:00 20:00 APL serie: ¥388 Zodiac Main Event , ¥250K GTD ¥388 ¥300,000
17 februari Zat 13:00 20:00 APL serie: ¥388 Zodiac Main Event , ¥250K GTD ¥388 ¥300,000
17 februari Zat 13:00 21:00 APL-serie: ¥ 5.500 Deepstack High Roller ¥5,500 ¥200,000
17 februari Zat 13:00 21:00 APL Series: ¥550 Hold'em Deepstack ¥550 ¥100,000
17 februari Zat 13:00 21:00 APL-serie: ¥50 Zodiac Haan Zonsondergang Speciaal ¥50 ¥35,000
17 februari Zat 13:00 21:00 APL-serie: ¥ 5.500 Deepstack High Roller ¥5,500 ¥200,000
17 februari Zat 13:00 21:00 APL Series: ¥550 Hold'em Deepstack ¥550 ¥100,000
17 februari Zat 13:00 21:00 APL-serie: ¥50 Zodiac Haan Zonsondergang Speciaal ¥50 ¥35,000
17 februari Zat 13:10 21:10 APL serie: ¥ 3.150 Short Deck Bounty HR ¥3,150 ¥88,000
17 februari Zat 13:10 21:10 APL-serie: ¥ 320 Short Deck Bounty ¥320 ¥25,000
17 februari Zat 13:10 21:10 APL serie: ¥ 3.150 Short Deck Bounty HR ¥3,150 ¥88,000
17 februari Zat 13:10 21:10 APL-serie: ¥ 320 Short Deck Bounty ¥320 ¥25,000
17 februari Zat 13:40 21:40 APL serie: ¥ 5.250 PLO-NL Bounty HR ¥5,250 ¥88,000
17 februari Zat 13:40 21:40 APL Serie: ¥530 PLO-NL Bounty ¥530 ¥30,000
17 februari Zat 13:40 21:40 APL serie: ¥ 5.250 PLO-NL Bounty HR ¥5,250 ¥88,000
17 februari Zat 13:40 21:40 APL Serie: ¥530 PLO-NL Bounty ¥530 ¥30,000
17 februari Zat 14:00 23:00 APL Series: ¥1.100 Hold'em Klassieker ¥1,100 ¥100,000
17 februari Zat 14:00 23:00 APL serie: ¥110 Zodiac Hond Ultra Deepstack Turbo ¥110 ¥50,000
17 februari Zat 14:00 23:00 APL Series: ¥1.100 Hold'em Klassieker ¥1,100 ¥100,000
17 februari Zat 14:00 23:00 APL serie: ¥110 Zodiac Hond Ultra Deepstack Turbo ¥110 ¥50,000
17 februari Zat 14:10 22:10 APL-serie: 8.000 YEN Short Deck HR [3-Stack] ¥8,000 ¥100,000
17 februari Zat 14:10 22:10 APL serie: ¥800 Short Deck [3-Stack] ¥800 ¥25,000
17 februari Zat 14:10 22:10 APL-serie: 8.000 YEN Short Deck HR [3-Stack] ¥8,000 ¥100,000
17 februari Zat 14:10 22:10 APL serie: ¥800 Short Deck [3-Stack] ¥800 ¥25,000
17 februari Zat 14:30 22:30 APL serie: ¥ 3.150 Bounty High Roller ¥3,150 ¥180,000
17 februari Zat 14:30 22:30 APL-serie: ¥ 320 Zodiac Varken Bounty Feest ¥320 ¥180,000
17 februari Zat 14:30 22:30 APL serie: ¥ 3.150 Bounty High Roller ¥3,150 ¥180,000
17 februari Zat 14:30 22:30 APL-serie: ¥ 320 Zodiac Varken Bounty Feest ¥320 ¥180,000
17 februari Zat 14:40 22:40 APL-serie: ¥ 1.100 PLO-NL Klassiek ¥1,100 ¥25,000
17 februari Zat 14:40 22:40 APL-serie: ¥ 1.100 PLO-NL Klassiek ¥1,100 ¥25,000
17 februari Zat 16:00 23:00 APL Serie: ¥5.500 Hoge Roller 6-Max ¥5,500 ¥250,000
17 februari Zat 16:00 23:00 APL Series: ¥800 Hold'em 6-Max ¥800 ¥150,000
17 februari Zat 16:00 23:00 APL Serie: ¥5.500 Hoge Roller 6-Max ¥5,500 ¥250,000
17 februari Zat 16:00 23:00 APL Series: ¥800 Hold'em 6-Max ¥800 ¥150,000
17 februari Zat 15:10 23:10 APL serie: ¥ 530 Short Deck Bounty [Turbo] ¥530 ¥30,000
17 februari Zat 15:10 23:10 APL serie: ¥ 530 Short Deck Bounty [Turbo] ¥530 ¥30,000
17 februari Zat 15:40 23:40 APL Serie: ¥530 PLO-NL Bounty [Turbo] ¥530 ¥30,000
17 februari Zat 15:40 23:40 APL Serie: ¥530 PLO-NL Bounty [Turbo] ¥530 ¥30,000
17 februari Zat 16:00 0:00 APL serie: ¥330 Midnight Madness [Hyper] ¥330 ¥60,000
17 februari Zat 16:00 0:00 APL serie: ¥330 Midnight Madness [Hyper] ¥330 ¥60,000
17 februari Zat 16:30 0:30 APL serie: ¥ 2.100 Speed Racer Bounty Dichterbij HR ¥2,100 ¥75,000
17 februari Zat 16:30 0:30 APL-serie: ¥ 215 Speed Racer Bounty Closer ¥215 ¥50,000
17 februari Zat 16:30 0:30 APL serie: ¥ 2.100 Speed Racer Bounty Dichterbij HR ¥2,100 ¥75,000
17 februari Zat 16:30 0:30 APL-serie: ¥ 215 Speed Racer Bounty Closer ¥215 ¥50,000
18 feb Zon 5:00 13:00 APL-serie: ¥550 zondagopener ¥550 ¥60,000
18 feb Zon 5:00 13:00 APL serie: ¥88 Zodiac Rattenopener ¥88 ¥30,000
18 feb Zon 6:00 14:00 APL Series: ¥1.100 Sunday High Roller Deepstack ¥1,100 ¥88,000
18 feb Zon 6:00 14:00 APL-serie: ¥ 330 Zodiac Ox Sterk Stack ¥330 ¥60,000
18 feb Zon 7:00 16:00 APL Series: ¥1.050 Sunday High Roller Bounty ¥1,050 ¥88,000
18 feb Zon 7:00 16:00 APL-serie: ¥108 Zodiac Tiger King Bounty ¥108 ¥70,000
18 feb Zon 8:00 16:00 APL-serie: ¥220 Zondagsklassieker ¥220 ¥50,000
18 feb Zon 8:00 16:00 APL-serie: ¥85.50 Zodiac Konijn Lucky Bounty ¥85.5 ¥60,000
18 feb Zon 9:00 18:00 APL-serie: ¥ 80 Zondagsklassieker ¥80 ¥35,000
18 feb Zon 9:00 18:00 APL-serie: ¥800 Zodiac Dragon High Roller ¥800 ¥150,000
18 feb Zon 9:30 17:30 APL serie: ¥ 630 zondag premie [6-Max] ¥630 ¥150,000
18 feb Zon 9:30 17:30 APL serie: ¥64.50 Zodiac Snake Bounty [6-Max] ¥64.5 ¥60,000
18 feb Zon 10:00 18:00 APL-serie: ¥ 1.100 Zondag Marathon ¥1,100 ¥200,000
18 feb Zon 10:00 18:00 APL-serie: ¥110 Zodiac Paardenmarathon ¥110 ¥70,000
18 feb Zon 10:30 18:30 APL serie: 840¥ Zondag Bounty ¥840 ¥200,000
18 feb Zon 10:30 18:30 APL-serie: ¥85.50 Zondag Bounty ¥85.5 ¥100,000
18 feb Zon 11:00 20:00 APL-serie: ¥220 Zondagsklassieker ¥220 ¥125,000
18 feb Zon 11:00 20:00 APL-serie: ¥ 2.024 Zodiac Geit High Roller ¥2,024 ¥388,000
18 feb Zon 11:30 19:30 APL Series: ¥ 2.100 Sunday High Roller Bounty ¥2,100 ¥388,000
18 feb Zon 11:30 19:30 APL-serie: ¥ 215 Zodiac Apenkoning Bounty ¥215 ¥188,000
18 feb Zon 13:00 20:00 APL serie: ¥388 Zodiac Main Event , ¥500K GTD ¥388 ¥700,000
18 feb Zon 13:00 21:00 APL Series: ¥ 550 zondag Deepstack ¥550 ¥300,000
18 feb Zon 13:00 21:00 APL-serie: ¥ 10.300 zondag HR Main Event ¥10,300 ¥1,000,000
18 feb Zon 13:00 21:00 APL-serie: ¥50 Zodiac Haan Zonsondergang Speciaal ¥50 ¥60,000
18 feb Zon 13:10 21:10 APL serie: ¥ 3.150 Short Deck Bounty HR ¥3,150 ¥125,000
18 feb Zon 13:10 21:10 APL-serie: ¥ 320 Short Deck Bounty ¥320 ¥50,000
18 feb Zon 13:40 21:40 APL serie: ¥ 5.250 PLO-NL Bounty HR ¥5,250 ¥150,000
18 feb Zon 13:40 21:40 APL Serie: ¥530 PLO-NL Bounty ¥530 ¥60,000
18 feb Zon 14:00 23:00 APL-serie: ¥ 1.100 Zondagsklassieker ¥1,100 ¥388,000
18 feb Zon 14:00 23:00 APL serie: ¥110 Zodiac Hond Ultra Deepstack Turbo ¥110 ¥80,000
18 feb Zon 14:10 22:10 APL-serie: 8.000 YEN Short Deck HR [3-Stack] ¥8,000 ¥188,000
18 feb Zon 14:10 22:10 APL serie: ¥800 Short Deck [3-Stack] ¥800 ¥50,000
18 feb Zon 14:30 22:30 APL Series: ¥ 3.150 Sunday High Roller Bounty ¥3,150 ¥600,000
18 feb Zon 14:30 22:30 APL-serie: ¥ 320 Zodiac Varken Bounty Feest ¥320 ¥388,000
18 feb Zon 14:40 22:40 APL-serie: ¥ 1.100 PLO-NL Klassiek ¥1,100 ¥60,000
18 feb Zon 16:00 23:00 APL-serie: ¥800 zondag 6-Max ¥800 ¥388,000
18 feb Zon 16:00 23:00 APL Series: ¥5.500 Sunday High Roller 6-Max ¥5,500 ¥700,000
18 feb Zon 16:00 23:00 APL serie: ¥ 25.500 zondag SHR ¥25,500 ¥1,000,000
18 feb Zon 15:10 23:10 APL serie: ¥ 5.250 Short Deck Bounty HR ¥5,250 ¥200,000
18 feb Zon 15:10 23:10 APL serie: ¥ 530 Short Deck Bounty [Turbo] ¥530 ¥50,000
18 feb Zon 15:40 23:40 APL Serie: ¥5.250 PLO-NL Bounty High Roller ¥5,250 ¥200,000
18 feb Zon 15:40 23:40 APL Serie: ¥530 PLO-NL Bounty [Turbo] ¥530 ¥50,000
18 feb Zon 16:00 0:00 APL serie: 51.000¥ Zondag Ultra HR ¥51,000 ¥1,000,000
18 feb Zon 16:00 0:00 APL serie: ¥330 Midnight Madness [Hyper] ¥330 ¥150,000
18 feb Zon 16:30 0:30 APL serie: ¥ 2.100 Speed Racer Bounty Dichterbij HR ¥2,100 ¥100,000
18 feb Zon 16:40 0:40 APL-serie: ¥ 1.100 PLO-NL Hundred Stack ¥1,100 ¥80,000
18 feb Zon 16:40 0:40 APL serie: ¥ 10.300 PLO-NL Honderd Stack HR ¥10,300 ¥200,000
Voorwaarden
  • Spelers moeten 24+ zijn om deel te nemen aan promoties (enkel voor Nederland)
  • Let op: prijzenpotten of garanties kunnen veranderen en sommige bedragen op deze website zijn mogelijk niet actueel. Controleer de garantiebedragen in de spelclient voor de meest actuele informatie.
  • We behouden ons het recht voor om promoties, toernooien of spelfuncties op elk moment te wijzigen of op te schorten.
  • Als er spelers verdacht worden van frauduleuze activiteiten, hebben we het recht om dit te onderzoeken en de spelers te verwijderen als dit bevestigd wordt.
  • Deze algemene voorwaarden zijn onderhevig aan de algemene voorwaarden van de site, die te vinden zijn in de spelclient.
De standaardregels zijn van toepassing. Speel verantwoordelijk.
NL : Wat kost gokken jou? Stop op tijd. 18+